[[{"header":{"parameterUnit":"m.s-1","parameterCategory":1,"la1":30.6,"la2":28.766,"lo1":-90.7593,"lo2":-88.6598,"dy":0.0162,"dx":0.0183,"nx":116,"ny":114,"refTime":"2024-05-04T06:00:00:Z","depth":0,"parameterNumber":2,"parameterNumberName":"U-component_of_WINDS"},"data":[0.0,0.0,0.0,0.0,0.0,0.0,0.0,0.0,0.0,0.0,0.0,0.0,0.0,0.0,0.0,0.0,0.0,0.0,0.0,0.0,0.0,0.0,0.0,0.0,0.0,0.0,0.0,0.0,0.0,0.0,0.0,0.0,0.0,0.0,0.0,0.0,0.0,0.0,0.0,0.0,0.0,0.0,0.0,0.0,0.0,0.0,0.0,0.0,0.0,0.0,0.0,0.0,0.0,0.0,0.0,0.0,0.0,0.0,0.0,0.0,0.0,0.0,0.0,0.0,0.0,0.0,0.0,0.0,0.0,0.0,0.0,0.0,0.0,0.0,0.0,0.0,0.0,0.0,0.0,0.0,0.0,0.0,0.0,0.0,0.0,0.0,0.0,0.0,0.0,0.0,0.0,0.0,0.0,0.0,0.0,0.0,0.0,0.0,0.0,0.0,0.0,0.0,0.0,0.0,0.0,0.0,0.0,0.0,0.0,0.0,0.0,0.0,0.0,0.0,0.0,0.0,0.0,0.0,0.0,0.0,0.0,0.0,0.0,0.0,0.0,0.0,0.0,0.0,0.0,0.0,0.0,0.0,0.0,0.0,0.0,0.0,0.0,0.0,0.0,0.0,0.0,0.0,0.0,0.0,0.0,0.0,0.0,0.0,0.0,0.0,0.0,0.0,0.0,0.0,0.0,0.0,0.0,0.0,0.0,0.0,0.0,0.0,0.0,0.0,0.0,0.0,0.0,0.0,0.0,0.0,0.0,0.0,0.0,0.0,0.0,0.0,0.0,0.0,0.0,0.0,0.0,0.0,0.0,0.0,0.0,0.0,0.0,0.0,0.0,0.0,0.0,0.0,0.0,0.0,0.0,0.0,0.0,0.0,0.0,0.0,0.0,0.0,0.0,0.0,0.0,0.0,0.0,0.0,0.0,0.0,0.0,0.0,0.0,0.0,0.0,0.0,0.0,0.0,0.0,0.0,0.0,0.0,0.0,0.0,0.0,0.0,0.0,0.0,0.0,0.0,0.0,0.0,0.0,0.0,0.0,0.0,0.0,0.0,0.0,0.0,0.0,0.0,0.0,0.0,0.0,0.0,0.0,0.0,0.0,0.0,0.0,0.0,0.0,0.0,0.0,0.0,0.0,0.0,0.0,0.0,0.0,0.0,0.0,0.0,0.0,0.0,0.0,0.0,0.0,0.0,0.0,0.0,0.0,0.0,0.0,0.0,0.0,0.0,0.0,0.0,0.0,0.0,0.0,0.0,0.0,0.0,0.0,0.0,0.0,0.0,0.0,0.0,0.0,0.0,0.0,0.0,0.0,0.0,0.0,0.0,0.0,0.0,0.0,0.0,0.0,0.0,0.0,0.0,0.0,0.0,0.0,0.0,0.0,0.0,0.0,0.0,0.0,0.0,0.0,0.0,0.0,0.0,0.0,0.0,0.0,0.0,0.0,0.0,0.0,0.0,0.0,0.0,0.0,0.0,0.0,0.0,0.0,0.0,0.0,0.0,0.0,0.0,0.0,0.0,0.0,0.0,0.0,0.0,0.0,0.0,0.0,0.0,0.0,0.0,0.0,0.0,0.0,0.0,0.0,0.0,0.0,0.0,0.0,0.0,0.0,0.0,0.0,0.0,0.0,0.0,0.0,0.0,0.0,0.0,0.0,0.0,0.0,0.0,0.0,0.0,0.0,0.0,0.0,0.0,0.0,0.0,0.0,0.0,0.0,0.0,0.0,0.0,0.0,0.0,0.0,0.0,0.0,0.0,0.0,0.0,0.0,0.0,0.0,0.0,0.0,0.0,0.0,0.0,0.0,0.0,0.0,0.0,0.0,0.0,0.0,0.0,0.0,0.0,0.0,0.0,0.0,0.0,0.0,0.0,0.0,0.0,0.0,0.0,0.0,0.0,0.0,0.0,0.0,0.0,0.0,0.0,0.0,0.0,0.0,0.0,0.0,0.0,0.0,0.0,0.0,0.0,0.0,0.0,0.0,0.0,0.0,0.0,0.0,0.0,0.0,0.0,0.0,0.0,0.0,0.0,0.0,0.0,0.0,0.0,0.0,0.0,0.0,0.0,0.0,0.0,0.0,0.0,0.0,0.0,0.0,0.0,0.0,0.0,0.0,0.0,0.0,0.0,0.0,0.0,0.0,0.0,0.0,0.0,0.0,0.0,0.0,0.0,0.0,0.0,0.0,0.0,0.0,0.0,0.0,0.0,0.0,0.0,0.0,0.0,0.0,0.0,0.0,0.0,0.0,0.0,0.0,0.0,0.0,0.0,0.0,0.0,0.0,0.0,0.0,0.0,0.0,0.0,0.0,0.0,0.0,0.0,0.0,0.0,0.0,0.0,0.0,0.0,0.0,0.0,0.0,0.0,0.0,0.0,0.0,0.0,0.0,0.0,0.0,0.0,0.0,0.0,0.0,0.0,0.0,0.0,0.0,0.0,0.0,0.0,0.0,0.0,0.0,0.0,0.0,0.0,0.0,0.0,0.0,0.0,0.0,0.0,0.0,0.0,0.0,0.0,0.0,0.0,0.0,0.0,0.0,0.0,0.0,0.0,0.0,0.0,0.0,0.0,0.0,0.0,0.0,0.0,0.0,0.0,0.0,0.0,0.0,0.0,0.0,0.0,0.0,0.0,0.0,0.0,0.0,0.0,0.0,0.0,0.0,0.0,0.0,0.0,0.0,0.0,0.0,0.0,0.0,0.0,0.0,0.0,0.0,0.0,0.0,0.0,0.0,0.0,0.0,0.0,0.0,0.0,0.0,0.0,0.0,0.0,0.0,0.0,0.0,0.0,0.0,0.0,0.0,0.0,0.0,0.0,0.0,0.0,0.0,0.0,0.0,0.0,0.0,0.0,0.0,0.0,0.0,0.0,0.0,0.0,0.0,0.0,0.0,0.0,0.0,0.0,0.0,0.0,0.0,0.0,0.0,0.0,0.0,0.0,0.0,0.0,0.0,0.0,0.0,0.0,0.0,0.0,0.0,0.0,0.0,0.0,0.0,0.0,0.0,0.0,0.0,0.0,0.0,0.0,0.0,0.0,0.0,0.0,0.0,0.0,0.0,0.0,0.0,0.0,0.0,0.0,0.0,0.0,0.0,0.0,0.0,0.0,0.0,0.0,0.0,0.0,0.0,0.0,0.0,0.0,0.0,0.0,0.0,0.0,0.0,0.0,0.0,0.0,0.0,0.0,0.0,0.0,0.0,0.0,0.0,0.0,0.0,0.0,0.0,0.0,0.0,0.0,0.0,0.0,0.0,0.0,0.0,0.0,0.0,0.0,0.0,0.0,0.0,0.0,0.0,0.0,0.0,0.0,0.0,0.0,0.0,0.0,0.0,0.0,0.0,0.0,0.0,0.0,0.0,0.0,0.0,0.0,0.0,0.0,0.0,0.0,0.0,0.0,0.0,0.0,0.0,0.0,0.0,0.0,0.0,0.0,0.0,0.0,0.0,0.0,0.0,0.0,0.0,0.0,0.0,0.0,0.0,0.0,0.0,0.0,0.0,0.0,0.0,0.0,0.0,0.0,0.0,0.0,0.0,0.0,0.0,0.0,0.0,0.0,0.0,0.0,0.0,0.0,0.0,0.0,0.0,0.0,0.0,0.0,0.0,0.0,0.0,0.0,0.0,0.0,0.0,0.0,0.0,0.0,0.0,0.0,0.0,0.0,0.0,0.0,0.0,0.0,0.0,0.0,0.0,0.0,0.0,0.0,0.0,0.0,0.0,0.0,0.0,0.0,0.0,0.0,0.0,0.0,0.0,0.0,0.0,0.0,0.0,0.0,0.0,0.0,0.0,0.0,0.0,0.0,0.0,0.0,0.0,0.0,0.0,0.0,0.0,0.0,0.0,0.0,0.0,0.0,0.0,0.0,0.0,0.0,0.0,0.0,0.0,0.0,0.0,0.0,0.0,0.0,0.0,0.0,0.0,0.0,0.0,0.0,0.0,0.0,0.0,0.0,0.0,0.0,0.0,0.0,0.0,0.0,0.0,0.0,0.0,0.0,0.0,0.0,0.0,0.0,0.0,0.0,0.0,0.0,0.0,0.0,0.0,0.0,0.0,0.0,0.0,0.0,0.0,0.0,0.0,0.0,0.0,0.0,0.0,0.0,0.0,0.0,0.0,0.0,0.0,0.0,0.0,0.0,0.0,0.0,0.0,0.0,0.0,0.0,0.0,0.0,0.0,0.0,0.0,0.0,0.0,0.0,0.0,0.0,0.0,0.0,0.0,0.0,0.0,0.0,0.0,0.0,0.0,0.0,0.0,0.0,0.0,0.0,0.0,0.0,0.0,0.0,0.0,0.0,0.0,0.0,0.0,0.0,0.0,0.0,0.0,0.0,0.0,0.0,0.0,0.0,0.0,0.0,0.0,0.0,0.0,0.0,0.0,0.0,0.0,0.0,0.0,0.0,0.0,0.0,0.0,0.0,0.0,0.0,0.0,0.0,0.0,0.0,0.0,0.0,0.0,0.0,0.0,0.0,0.0,0.0,0.0,0.0,0.0,0.0,0.0,0.0,0.0,0.0,0.0,0.0,0.0,0.0,0.0,0.0,0.0,0.0,0.0,0.0,0.0,0.0,0.0,0.0,0.0,0.0,0.0,0.0,0.0,0.0,0.0,0.0,0.0,0.0,0.0,0.0,0.0,0.0,0.0,0.0,0.0,0.0,0.0,0.0,0.0,0.0,0.0,0.0,0.0,0.0,0.0,0.0,0.0,0.0,0.0,0.0,0.0,0.0,0.0,0.0,0.0,0.0,0.0,0.0,0.0,0.0,0.0,0.0,0.0,0.0,0.0,0.0,0.0,0.0,0.0,0.0,0.0,0.0,0.0,0.0,0.0,0.0,0.0,0.0,0.0,0.0,0.0,0.0,0.0,0.0,0.0,0.0,0.0,0.0,0.0,0.0,0.0,0.0,0.0,0.0,0.0,0.0,0.0,0.0,0.0,0.0,0.0,0.0,0.0,0.0,0.0,0.0,0.0,0.0,0.0,0.0,0.0,0.0,0.0,0.0,0.0,0.0,0.0,0.0,0.0,0.0,0.0,0.0,0.0,0.0,0.0,0.0,0.0,0.0,0.0,0.0,0.0,0.0,0.0,0.0,0.0,0.0,0.0,0.0,0.0,0.0,0.0,0.0,0.0,0.0,0.0,0.0,0.0,0.0,0.0,0.0,0.0,0.0,0.0,0.0,0.0,0.0,0.0,0.0,0.0,0.0,0.0,0.0,0.0,0.0,0.0,0.0,0.0,0.0,0.0,0.0,0.0,0.0,0.0,0.0,0.0,0.0,0.0,0.0,0.0,0.0,0.0,0.0,0.0,0.0,0.0,0.0,0.0,0.0,0.0,0.0,0.0,0.0,0.0,0.0,0.0,0.0,0.0,0.0,0.0,0.0,0.0,0.0,0.0,0.0,0.0,0.0,0.0,0.0,0.0,0.0,0.0,0.0,0.0,0.0,0.0,0.0,0.0,0.0,0.0,0.0,0.0,0.0,0.0,0.0,0.0,0.0,0.0,0.0,0.0,0.0,0.0,0.0,0.0,0.0,0.0,0.0,0.0,0.0,0.0,0.0,0.0,0.0,0.0,0.0,0.0,0.0,0.0,0.0,0.0,0.0,0.0,0.0,0.0,0.0,0.0,0.0,0.0,0.0,0.0,0.0,0.0,0.0,0.0,0.0,0.0,0.0,0.0,0.0,0.0,0.0,0.0,0.0,0.0,0.0,0.0,0.0,0.0,0.0,0.0,0.0,0.0,0.0,0.0,0.0,0.0,0.0,0.0,0.0,0.0,0.0,0.0,0.0,0.0,0.0,0.0,0.0,0.0,0.0,0.0,0.0,0.0,0.0,0.0,0.0,0.0,0.0,0.0,0.0,0.0,0.0,0.0,0.0,0.0,0.0,0.0,0.0,0.0,0.0,0.0,0.0,0.0,0.0,0.0,0.0,0.0,0.0,0.0,0.0,0.0,0.0,0.0,0.0,0.0,0.0,0.0,0.0,0.0,0.0,0.0,0.0,0.0,0.0,0.0,0.0,0.0,0.0,0.0,0.0,0.0,0.0,0.0,0.0,0.0,0.0,0.0,0.0,0.0,0.0,0.0,0.0,-5.6194,-5.424,0.0,0.0,0.0,0.0,0.0,0.0,0.0,0.0,0.0,0.0,0.0,0.0,0.0,0.0,0.0,0.0,0.0,0.0,0.0,0.0,0.0,0.0,0.0,-4.943,-4.9401,-4.9418,-4.867,-4.8164,-4.8164,0.0,0.0,0.0,0.0,0.0,-4.6219,-4.6219,-4.6219,-4.6219,-4.6608,-4.7274,-4.8139,-4.8578,-4.834,-4.7462,0.0,0.0,0.0,0.0,0.0,0.0,0.0,0.0,0.0,0.0,0.0,0.0,0.0,0.0,0.0,0.0,0.0,0.0,0.0,0.0,0.0,0.0,0.0,0.0,0.0,0.0,0.0,0.0,0.0,0.0,0.0,0.0,0.0,0.0,0.0,0.0,0.0,0.0,0.0,0.0,0.0,0.0,0.0,0.0,0.0,0.0,0.0,0.0,0.0,0.0,0.0,0.0,0.0,0.0,0.0,0.0,0.0,0.0,0.0,0.0,0.0,0.0,0.0,0.0,0.0,0.0,0.0,0.0,0.0,0.0,-5.7294,-5.5957,0.0,0.0,0.0,0.0,0.0,0.0,0.0,0.0,0.0,0.0,0.0,0.0,0.0,0.0,0.0,0.0,0.0,0.0,0.0,0.0,0.0,-4.776,-4.8476,-4.8554,-4.8581,-4.8568,-4.7774,-4.7267,-4.7267,-4.6608,0.0,0.0,0.0,-4.6219,-4.6219,-4.6219,-4.6258,-4.6414,-4.7466,-4.8334,-4.9013,-4.9031,-4.8632,-4.7901,-4.7041,0.0,0.0,0.0,0.0,0.0,0.0,0.0,0.0,0.0,0.0,0.0,0.0,0.0,0.0,0.0,0.0,0.0,0.0,0.0,0.0,0.0,0.0,0.0,0.0,0.0,0.0,0.0,0.0,0.0,0.0,0.0,0.0,0.0,0.0,0.0,0.0,0.0,0.0,0.0,0.0,0.0,0.0,0.0,0.0,0.0,0.0,0.0,0.0,0.0,0.0,0.0,0.0,0.0,0.0,0.0,0.0,0.0,0.0,0.0,0.0,0.0,0.0,0.0,-5.9385,-5.9453,-5.9356,-5.9443,-5.9853,-6.0396,-5.8081,-5.7764,-5.8718,-5.5911,0.0,0.0,0.0,0.0,0.0,0.0,0.0,0.0,0.0,0.0,0.0,0.0,0.0,0.0,0.0,0.0,0.0,0.0,0.0,-4.7521,-4.7656,-4.7686,-4.7654,-4.7664,-4.6878,-4.6375,-4.6375,-4.6258,-4.6219,-4.6219,-4.6219,-4.6219,-4.6219,-4.6219,-4.6569,-4.7345,-4.8961,-4.9835,-4.9928,-4.9931,-4.9853,-4.9731,-4.8857,-4.8032,-4.733,0.0,0.0,0.0,0.0,0.0,0.0,0.0,0.0,0.0,0.0,0.0,0.0,0.0,0.0,0.0,0.0,0.0,0.0,0.0,0.0,0.0,0.0,0.0,0.0,0.0,0.0,0.0,0.0,0.0,0.0,0.0,0.0,0.0,0.0,0.0,0.0,0.0,0.0,0.0,0.0,0.0,-5.3711,-5.3828,0.0,0.0,0.0,0.0,0.0,0.0,0.0,0.0,0.0,0.0,0.0,0.0,0.0,-5.757,-5.7805,-5.9427,-6.0234,-6.0227,-6.0878,-6.1153,-6.114,-6.0978,-6.0974,-6.1085,-6.0702,0.0,-5.9095,-5.9363,0.0,0.0,0.0,0.0,0.0,0.0,0.0,0.0,0.0,0.0,0.0,0.0,0.0,0.0,0.0,0.0,0.0,0.0,0.0,0.0,0.0,-4.7489,-4.7687,-4.8171,-4.7891,-4.7462,-4.6956,-4.6452,-4.5985,-4.5478,-4.5,-4.4961,-4.5478,-4.5935,-4.7108,-4.8957,-4.9728,-5.0366,-5.0842,-5.0842,-5.0847,-5.0813,-5.0438,-4.9494,-4.8245,-4.8227,0.0,0.0,0.0,0.0,0.0,0.0,0.0,0.0,0.0,0.0,0.0,0.0,0.0,0.0,0.0,0.0,0.0,0.0,0.0,0.0,0.0,0.0,0.0,0.0,0.0,0.0,0.0,0.0,0.0,0.0,0.0,0.0,0.0,0.0,0.0,0.0,0.0,0.0,0.0,-5.3437,-5.3825,-5.3318,-5.3354,-5.3037,0.0,0.0,0.0,0.0,0.0,0.0,0.0,0.0,0.0,-5.7959,-5.8358,-5.8984,-5.9999,-6.0721,-6.1049,-6.1033,-6.13,-6.139,-6.1316,-6.1259,-6.1186,-6.1186,-6.1186,-6.0906,-6.0414,-5.9794,-5.8839,-5.7684,0.0,0.0,0.0,0.0,-5.6242,-5.6094,0.0,0.0,0.0,0.0,0.0,0.0,0.0,0.0,0.0,0.0,0.0,0.0,-4.7422,-4.7692,-4.8106,-4.8746,-4.8818,-4.8535,-4.7894,-4.7228,-4.6569,-4.5946,-4.4837,-4.4795,-4.5868,-4.6753,-4.8132,-5.0114,-5.0327,-5.0769,-5.1399,-5.1394,-5.1396,-5.1403,-5.1383,-5.0558,-4.9118,-4.9139,-4.8626,-4.7807,0.0,0.0,0.0,0.0,0.0,0.0,0.0,0.0,0.0,0.0,0.0,0.0,0.0,0.0,0.0,0.0,0.0,0.0,0.0,0.0,0.0,0.0,0.0,0.0,0.0,0.0,0.0,0.0,0.0,0.0,0.0,0.0,0.0,0.0,0.0,0.0,0.0,-5.3825,-5.4251,-5.3157,-5.417,-5.4282,0.0,0.0,0.0,0.0,0.0,0.0,-5.7231,-5.7231,-5.8023,-5.9682,-5.9724,-6.0351,-6.1635,-6.1616,-6.1588,-6.1517,-6.1422,-6.131,-6.1279,-6.1204,-6.115,-6.1186,-6.1186,-6.1304,-6.1412,-6.0083,-5.943,-5.9092,-5.7606,-5.6811,-5.6613,-5.7658,-5.7611,-5.7385,0.0,0.0,0.0,0.0,0.0,0.0,0.0,0.0,0.0,0.0,0.0,-4.7437,-4.7499,-4.8232,-4.8744,-4.8805,-4.8798,-4.8779,-4.8755,-4.867,-4.8631,-4.8592,-4.6976,-4.6859,-4.8553,-4.9468,-4.9958,-5.0106,-5.0912,-5.1344,-5.1399,-5.1383,-5.1414,-5.1417,-5.1414,-5.0876,-5.0028,-5.0015,-4.9541,-4.8644,-4.7846,0.0,0.0,0.0,0.0,0.0,0.0,0.0,0.0,0.0,0.0,0.0,0.0,0.0,0.0,0.0,0.0,0.0,0.0,0.0,0.0,0.0,0.0,0.0,0.0,0.0,0.0,0.0,0.0,0.0,0.0,0.0,0.0,0.0,0.0,0.0,0.0,0.0,0.0,-5.4133,-5.6119,0.0,0.0,0.0,0.0,-5.6489,-5.6567,-5.7309,-5.8907,-5.8985,-5.9747,-6.1406,-6.1481,-6.15,-6.1527,-6.1551,-6.1588,-6.1595,-6.1344,-6.1318,-6.1476,-6.1174,-6.1079,-6.1186,-6.1186,-6.1304,-6.149,-6.1412,-6.0871,-6.0058,-5.9131,-5.8174,-5.7462,-5.8476,-5.8823,-5.9065,0.0,0.0,0.0,0.0,0.0,-4.6219,-4.6219,-4.6215,-4.6401,-4.6965,-4.7325,-4.792,-4.8984,-4.9374,-4.9798,-5.0364,-5.0411,-5.018,-4.9609,-4.9099,-4.828,-4.7189,-4.6512,-4.7019,-4.8713,-4.9623,-5.0384,-5.0954,-5.1261,-5.1417,-5.1422,-5.1912,-5.2185,-5.2191,-5.2766,-5.2848,-5.2473,-5.1366,-5.0384,-4.9604,-4.9283,-4.8496,0.0,0.0,0.0,0.0,0.0,0.0,0.0,0.0,0.0,0.0,0.0,0.0,0.0,0.0,0.0,0.0,0.0,0.0,0.0,0.0,0.0,0.0,0.0,0.0,0.0,0.0,0.0,0.0,0.0,0.0,0.0,0.0,0.0,0.0,0.0,0.0,0.0,-5.5885,-5.7443,0.0,-5.63,-5.7389,-5.818,-5.816,-5.9237,-6.0132,-6.0698,-6.0759,-6.103,-6.1636,-6.1672,-6.1638,-6.1639,-6.1582,-6.1462,-6.1357,-6.1776,-6.1953,-6.1872,-6.1752,-6.173,-6.1736,-6.128,-6.1167,-6.131,-6.1461,-6.137,-6.1143,-6.0834,-6.0471,-6.0215,-6.0552,-6.0717,-6.0798,0.0,0.0,0.0,-4.6219,-4.6219,-4.6187,-4.6209,-4.6204,-4.65,-4.737,-4.7766,-4.8472,-4.984,-5.0273,-5.0659,-5.1236,-5.1316,-5.1037,-5.0463,-4.9644,-4.867,-4.754,-4.749,-4.7841,-4.8677,-5.0173,-5.1239,-5.1804,-5.211,-5.2227,-5.2272,-5.2802,-5.3036,-5.3049,-5.3657,-5.3891,-5.3819,-5.2675,-5.1853,-5.1356,-5.1076,-5.0251,-4.9149,0.0,0.0,0.0,0.0,0.0,0.0,0.0,0.0,0.0,0.0,0.0,0.0,0.0,0.0,0.0,0.0,0.0,0.0,0.0,0.0,0.0,0.0,0.0,0.0,0.0,0.0,0.0,0.0,0.0,0.0,0.0,0.0,0.0,0.0,-5.7296,-5.8461,-5.6813,-5.8611,-5.9312,-5.7621,-5.899,-5.9979,-5.9917,-6.1034,-6.1694,-6.1635,-6.1696,-6.1811,-6.2105,-6.2066,-6.2187,-6.2456,-6.2384,-6.2274,-6.2129,-6.2595,-6.2771,-6.2671,-6.2635,-6.2645,-6.2653,-6.2194,-6.2058,-6.216,-6.2357,-6.2503,-6.254,-6.1913,-6.1718,-6.1718,-6.1718,-6.1718,-6.1681,0.0,-4.6219,-4.6219,-4.6219,-4.6219,-4.6203,-4.6214,-4.6183,-4.6506,-4.7421,-4.8268,-4.9107,-4.9963,-5.0787,-5.1312,-5.1289,-5.1316,-5.1274,-5.1246,-5.0463,-4.9995,-5.0034,-5.0034,-4.9687,-4.8872,-5.1342,-5.2643,-5.2659,-5.3501,-5.3894,-5.391,-5.3933,-5.3933,-5.3949,-5.3969,-5.3962,-5.4001,-5.3978,-5.3989,-5.3904,-5.2994,-5.2636,-5.2437,0.0,0.0,0.0,0.0,0.0,0.0,0.0,0.0,0.0,0.0,0.0,0.0,0.0,0.0,0.0,0.0,0.0,0.0,0.0,0.0,0.0,0.0,0.0,0.0,0.0,0.0,0.0,0.0,0.0,0.0,0.0,0.0,0.0,-5.6906,-5.811,-5.857,-5.6959,-5.9661,-6.103,-5.9341,-6.0716,-6.1694,-6.1683,-6.172,-6.1759,-6.172,-6.1759,-6.213,-6.2929,-6.2872,-6.3211,-6.3994,-6.3979,-6.3959,-6.3898,-6.3774,-6.3767,-6.3829,-6.3699,-6.3717,-6.3844,-6.3953,-6.4008,-6.4018,-6.419,-6.4297,-6.4143,-6.2423,-6.1757,-6.1757,-6.1718,-6.1718,-6.1683,-4.6212,-4.6219,-4.6219,-4.6219,-4.6219,-4.6187,-4.6203,-4.6201,-4.6734,-4.8266,-4.8647,-4.9341,-5.0787,-5.1162,-5.1288,-5.1289,-5.1293,-5.103,-5.0385,-5.0112,-5.0268,-5.093,-5.093,-5.1406,-5.2434,-5.3163,-5.3557,-5.354,-5.3791,-5.3911,-5.3891,-5.4546,-5.483,-5.4885,-5.5489,-5.579,-5.579,-5.5771,-5.5771,-5.5666,-5.4153,-5.3175,-5.2536,0.0,0.0,0.0,0.0,0.0,0.0,0.0,0.0,0.0,0.0,0.0,0.0,0.0,0.0,0.0,0.0,0.0,0.0,0.0,0.0,0.0,0.0,0.0,0.0,0.0,0.0,0.0,0.0,0.0,0.0,0.0,-5.7886,-5.8976,-5.8466,-5.991,-6.0806,-6.0368,-6.1117,-6.151,-6.1039,-6.1432,-6.1672,-6.164,-6.2253,-6.2638,-6.2574,-6.3162,-6.3593,-6.3828,-6.3769,-6.3854,-6.4073,-6.4012,-6.392,-6.3774,-6.4313,-6.4512,-6.4393,-6.4336,-6.4336,-6.4376,-6.3892,-6.3783,-6.3858,-6.4018,-6.4177,-6.4182,-6.3086,-6.2657,-6.2579,-6.1913,-6.1718,-6.1683,-4.6215,-4.6219,-4.6219,-4.6219,-4.6219,-4.619,-4.6217,-4.6206,-4.6846,-4.8564,-4.8796,-4.9452,-5.111,-5.1318,-5.1289,-5.1289,-5.0969,-5.0385,-4.9566,-4.9488,-5.0034,-5.1242,-5.1632,-5.2493,-5.3869,-5.4247,-5.4441,-5.4453,-5.4792,-5.4999,-5.4986,-5.5493,-5.574,-5.5801,-5.6283,-5.6507,-5.6503,-5.6519,-5.6507,-5.6429,-5.5389,-5.4683,-5.4203,-5.3826,-5.3354,-5.2879,-5.2528,-5.2372,-5.2372,-5.2391,0.0,0.0,0.0,0.0,0.0,0.0,0.0,0.0,0.0,0.0,0.0,0.0,0.0,0.0,0.0,0.0,0.0,0.0,0.0,0.0,0.0,0.0,0.0,0.0,-5.9095,-6.0185,-6.0185,-6.1043,-6.1704,-6.1702,-6.1709,-6.1711,-6.1709,-6.2024,-6.2222,-6.2186,-6.3035,-6.3538,-6.3508,-6.3945,-6.4375,-6.4726,-6.4999,-6.5301,-6.5695,-6.5923,-6.5972,-6.5804,-6.6224,-6.636,-6.6205,-6.6205,-6.5974,-6.5641,-6.5308,-6.5015,-6.479,-6.4998,-6.5147,-6.5156,0.0,0.0,0.0,0.0,-6.2555,-6.2246,-4.6215,-4.6219,-4.6219,-4.6219,-4.6219,-4.62,-4.621,-4.6216,-4.6839,-4.8554,-4.8788,-4.9435,-5.1133,-5.1304,-5.125,-5.1172,-5.0467,-4.9694,-4.8982,-4.9021,-4.9839,-5.1515,-5.245,-5.3307,-5.4164,-5.4944,-5.5333,-5.5333,-5.6117,-5.6492,-5.6485,-5.6485,-5.6542,-5.6604,-5.6536,-5.6482,-5.6482,-5.6484,-5.6507,-5.6507,-5.6507,-5.6507,-5.6429,-5.5645,-5.5333,-5.5256,-5.4476,-5.4126,-5.4052,-5.4047,0.0,0.0,0.0,0.0,0.0,0.0,0.0,0.0,0.0,0.0,0.0,0.0,0.0,0.0,0.0,0.0,0.0,0.0,0.0,0.0,0.0,0.0,0.0,0.0,-6.062,-6.171,-6.171,-6.1705,-6.1704,-6.1709,-6.1793,-6.1833,-6.1868,-6.2652,-6.3159,-6.3146,-6.3964,-6.4507,-6.4575,-6.4607,0.0,0.0,0.0,-6.727,-6.8015,-6.8637,-6.8849,-6.8689,-6.8629,-6.8538,-6.8385,-6.8385,-6.7975,-6.7257,-6.7448,-6.7082,-6.6409,-6.6626,-6.6668,-6.6464,-6.5022,-6.4379,-6.4306,-6.4284,-6.3821,-6.3159,-4.6215,-4.6219,-4.6219,-4.6219,-4.6219,-4.6183,-4.6196,-4.62,-4.6823,-4.8574,-4.8808,-4.9425,-5.1125,-5.1316,-5.1005,-5.0312,-5.0103,-4.994,-4.9765,-5.0424,-5.1593,-5.3307,-5.4238,-5.51,-5.6,-5.6156,-5.6238,-5.6254,-5.641,-5.6507,-5.6503,-5.6503,-5.655,-5.6604,-5.6536,-5.6482,-5.6482,-5.6484,-5.6507,-5.6507,-5.6507,-5.6507,-5.6468,-5.6312,-5.6234,-5.6234,-5.6078,-5.5567,-5.4944,-5.4952,-5.4468,-5.3868,-5.3718,-5.417,0.0,0.0,0.0,0.0,0.0,0.0,0.0,0.0,0.0,0.0,0.0,0.0,0.0,0.0,0.0,0.0,0.0,0.0,0.0,-5.9139,-6.0622,-6.1716,-6.1716,-6.1715,-6.1715,-6.1716,-6.2304,-6.2734,-6.2734,-6.3554,-6.4062,-6.4059,-6.4874,-6.5648,-6.6262,-6.6911,-6.7627,-6.8449,-6.8561,-6.8683,-6.8885,-6.8987,-6.8924,-6.8689,-6.8668,0.0,-6.8385,-6.8385,-6.8321,-6.8167,-6.818,-6.8162,-6.8091,-6.7587,-6.7147,-6.6664,-6.572,-6.4908,-6.4286,-6.4295,-6.4179,-6.4062,-4.6219,-4.6219,-4.6219,-4.6219,-4.6219,-4.6219,-4.6219,-4.6219,-4.6686,-4.7969,-4.8164,-4.8631,-4.9917,-5.0059,-4.9867,-4.9453,-4.9389,-4.9568,-4.996,-5.1203,-5.2723,-5.4472,-5.5372,-5.6035,-5.6507,-5.6507,-5.6511,-5.648,-5.6488,-5.6507,-5.6494,-5.6503,-5.6553,-5.6604,-5.6545,-5.6491,-5.6482,-5.6492,-5.6515,-5.6507,-5.6507,-5.6507,-5.6507,-5.6507,-5.6507,-5.6507,-5.6507,-5.6234,-5.584,-5.584,-5.5814,-5.5712,-5.5326,-5.5815,-5.6157,0.0,0.0,0.0,0.0,0.0,0.0,0.0,0.0,0.0,0.0,0.0,0.0,0.0,0.0,-5.6875,-5.7734,0.0,-5.9452,-6.0311,-6.1131,-6.1717,-6.1717,-6.2069,-6.2343,-6.2343,-6.2734,-6.3164,-6.3594,-6.4453,-6.5117,-6.5584,-6.6399,-6.7212,-6.8062,-6.8431,-6.8786,-6.9176,-6.9538,-6.9694,-6.9694,-7.011,-7.0215,-7.0015,-6.991,-6.982,-6.9667,-6.9667,-6.9438,-6.9117,-6.9078,-6.8933,-6.8694,-6.8493,-6.8011,-6.7402,-6.6991,-6.6327,-6.5539,-6.5546,-6.5309,-6.4957,-4.6219,-4.6219,-4.6219,-4.6219,-4.6219,-4.6219,-4.6219,-4.6219,-4.653,-4.7384,-4.7501,-4.7813,-4.8709,-4.88,-4.8729,-4.8554,-4.8862,-4.9372,-5.019,-5.206,-5.3814,-5.5372,-5.6113,-5.6507,-5.6507,-5.6511,-5.6515,-5.6519,-5.6496,-5.6514,-5.6488,-5.65,-5.6511,-5.6597,-5.6506,-5.6491,-5.6514,-5.6496,-5.6519,-5.6507,-5.6507,-5.6507,-5.6507,-5.6507,-5.6507,-5.6507,-5.6507,-5.6585,-5.6741,-5.6741,-5.7286,-5.7832,-5.7208,-5.7346,-5.7453,-5.5697,-5.564,0.0,0.0,0.0,0.0,0.0,0.0,0.0,0.0,-5.5742,-5.5508,-5.7226,-5.7578,-5.8008,-5.9414,-5.9687,-6.0116,-6.1483,-6.1718,-6.1756,-6.1913,-6.2578,-6.3125,-6.3476,-6.3515,-6.3789,-6.4492,-6.5508,-6.6406,-6.7108,-6.7884,-6.8737,-6.9628,-6.9528,-6.954,-6.9684,-7.0263,-7.058,-7.0549,-7.121,-7.1475,-7.1324,-7.1224,-7.1093,-7.0939,-7.0965,-7.0632,-6.9989,-6.999,-6.9651,-6.911,-6.9343,-6.9018,-6.8351,-6.8357,-6.7811,-6.7029,-6.6869,-6.6392,-6.5844,-4.6219,-4.6219,-4.6219,-4.6219,-4.6219,-4.6219,-4.6219,-4.6219,-4.653,-4.7384,-4.7501,-4.7813,-4.8709,-4.8794,-4.8496,-4.7694,-4.9018,-5.0229,-5.1086,-5.3502,-5.5333,-5.6312,-5.6468,-5.6507,-5.6507,-5.6484,-5.65,-5.6517,-5.6494,-5.6503,-5.6506,-5.6506,-5.65,-5.6527,-5.651,-5.65,-5.6496,-5.6515,-5.6507,-5.6507,-5.6507,-5.6507,-5.6507,-5.6507,-5.6507,-5.6507,-5.6507,-5.6974,-5.7559,-5.7559,-5.8144,-5.8841,-5.8763,-5.826,-5.7385,-5.5689,-5.473,-5.3842,-5.2147,-5.3047,-5.4765,-5.625,-5.6523,-5.7265,0.0,-5.9765,-5.9101,-6.0781,-6.1133,-6.1172,-6.1367,-6.1406,-6.1484,-6.1679,-6.1718,-6.1953,-6.2733,-6.2929,-6.3555,-6.5117,-6.5312,-6.5351,-6.5469,-6.6953,-6.7969,-6.8047,-6.8785,-6.9638,-7.0494,-7.0468,-7.0775,-7.1482,-7.1512,-7.1505,-7.1442,-7.1551,-7.1538,-7.1475,-7.1465,-7.1302,-7.1081,-7.1201,-7.1065,-7.0785,-7.096,-7.0705,-7.0155,-7.0216,-6.9852,-6.925,-6.9255,-6.8702,-6.7843,-6.7082,-6.6722,-6.6683,-4.6219,-4.6219,-4.6219,-4.6219,-4.6219,-4.6219,-4.6219,-4.6219,-4.6336,-4.6686,-4.6725,-4.6881,-4.7267,-4.7294,-4.7331,-4.75,-4.9484,-5.0891,-5.1281,-5.4203,-5.6113,-5.6468,-5.6507,-5.6507,-5.6507,-5.6484,-5.6492,-5.6492,-5.6482,-5.6488,-5.6517,-5.6488,-5.6491,-5.6482,-5.6514,-5.6503,-5.6492,-5.6484,-5.6515,-5.6507,-5.6507,-5.6507,-5.6546,-5.7065,-5.664,-5.5744,-5.5744,-5.5969,0.0,-5.6827,-5.7567,-5.8256,-5.8256,-5.8351,-5.7911,-5.5223,-5.4931,-5.5532,-5.5859,-5.5742,-5.5937,-5.7695,-5.8125,-5.8476,-5.9922,-5.9687,-5.9687,-6.1367,-6.1719,-6.1719,-6.1719,-6.1719,-6.1719,-6.1719,-6.2148,-6.2577,-6.2968,-6.3867,-6.4765,-6.5508,-6.6484,-6.7109,-6.7109,-6.7773,-6.8594,-6.957,-6.9957,-7.0535,-7.1394,-7.1405,-7.148,-7.1795,-7.1716,-7.168,-7.1606,-7.1598,-7.1556,-7.1494,-7.1494,-7.1415,-7.1213,-7.1269,-7.1201,-7.1056,-7.1395,-7.1349,-7.0999,-7.1223,-7.0859,-7.0155,-7.0178,-6.962,-6.8761,-6.7893,-6.7224,-6.6795,-4.6219,-4.6219,-4.6219,-4.6219,-4.6219,-4.6219,-4.6219,-4.6219,-4.6219,-4.6219,-4.6219,-4.6219,-4.6219,-4.6184,-4.6561,-4.7422,-4.9417,-5.0913,-5.1593,-5.4242,-5.6,-5.6468,-5.6507,-5.6507,-5.6507,-5.6484,-5.6488,-5.6515,-5.6507,-5.6514,-5.6492,-5.6507,-5.6514,-5.6507,-5.6507,-5.65,-5.6488,-5.6488,-5.6519,-5.6507,-5.6507,-5.6628,-5.6866,-5.7038,-5.6461,-5.5567,-5.556,-5.5393,-5.5303,-5.5935,-5.6671,-5.7364,-5.7373,-5.7474,-5.7112,-5.465,-5.4515,-5.5543,-5.7304,-5.7187,-5.7031,-5.875,-5.9531,-5.9883,-5.9883,-5.9883,-6.0234,-6.1445,-6.1719,-6.1719,-6.1719,-6.1719,-6.1719,-6.1718,-6.2421,-6.3084,-6.3319,-6.4647,-6.5702,-6.5937,-6.7304,-6.8281,-6.8515,-6.875,-6.9375,-7.0625,-7.0932,-7.1316,-7.1977,-7.1947,-7.1874,-7.1795,-7.1741,-7.1677,-7.1606,-7.1598,-7.1564,-7.1532,-7.1532,-7.1485,-7.1334,-7.1313,-7.128,-7.1214,-7.1589,-7.1692,-7.1627,-7.1873,-7.163,-7.1042,-7.106,-7.0543,-6.9684,-6.9059,-6.8122,-6.7107,-4.6219,-4.6219,-4.6219,-4.6219,-4.6219,-4.6219,-4.6219,-4.6219,-4.6219,-4.6219,-4.6219,-4.6219,-4.6219,-4.6197,-4.6549,-4.7422,-4.8345,-4.9903,-5.2415,-5.3463,-5.4749,-5.6429,-5.6507,-5.6507,-5.6507,-5.6484,-5.6492,-5.6492,-5.6514,-5.6514,-5.6492,-5.6492,-5.6484,-5.6507,-5.6507,-5.6507,-5.6507,-5.6507,-5.6507,-5.6507,-5.6507,-5.7026,-5.7588,-5.5911,-5.5766,-5.6443,-5.6464,-5.5911,-5.5205,-5.5221,-5.5801,-5.655,-5.6546,-5.5386,-5.4036,-5.4003,-5.2848,-5.1953,-5.3672,-5.5351,-5.7031,-5.875,-6.043,-6.1601,-6.1601,-6.1601,-6.164,-6.168,-6.1719,-6.1719,-6.1719,-6.1719,-6.1718,-6.1717,-6.2421,-6.3281,-6.414,-6.5039,-6.5898,-6.6756,-6.7656,-6.8515,-6.9297,-7.0117,-7.0664,-7.0701,-7.1477,-7.1977,-7.2006,-7.1997,-7.1947,-7.1795,-7.1789,-7.1716,-7.1606,-7.1598,-7.1598,-7.1598,-7.1598,-7.1547,-7.1485,-7.1345,-7.1368,-7.1481,-7.1569,-7.172,-7.1873,-7.1953,-7.198,-7.1978,-7.1958,-7.1441,-7.066,-7.0621,-6.9528,-6.7927,-4.7072,-4.6598,-4.6353,-4.6898,-4.6536,-4.6138,-4.6138,-4.615,-4.6193,-4.6138,-4.615,0.0,0.0,0.0,0.0,0.0,-4.9126,-4.9945,-5.0817,-5.3307,-5.4788,-5.4788,-5.5883,-5.6507,-5.6507,-5.6484,-5.6488,-5.6515,-5.6496,-5.6496,-5.6515,-5.6515,-5.6511,-5.6507,-5.6507,-5.6507,-5.6507,-5.6507,-5.6827,-5.7346,-5.7346,-5.7201,-5.6943,-5.6917,-5.5717,-5.4039,0.0,-5.4206,-5.3572,-5.4149,-5.4543,-5.4787,-5.4759,-5.4401,-5.3728,-5.2613,-5.2695,-5.3516,-5.5234,-5.6992,-5.8711,-6.043,-6.1289,-6.1719,-6.1719,-6.1719,-6.1719,-6.1719,-6.0351,-5.9375,-5.9922,-5.957,-5.9531,-6.0664,-6.2538,-6.4179,-6.5038,-6.5897,-6.6796,-6.7656,-6.8476,-6.9336,-7.0195,-7.0547,-7.0937,-7.1521,-7.1829,-7.2016,-7.2006,-7.1995,-7.1977,-7.1871,-7.1809,-7.1745,-7.168,-7.1614,-7.1598,-7.1598,-7.1598,-7.1581,-7.1556,-7.152,-7.1495,-7.1496,-7.1666,-7.1764,-7.1781,-7.1951,-7.2012,-7.2,-7.1993,-7.1836,-7.1492,-7.0907,-7.0323,-6.9618,0.0,-4.7494,-4.7288,-4.7794,-4.7435,0.0,0.0,0.0,0.0,0.0,0.0,0.0,0.0,0.0,0.0,0.0,0.0,-4.9495,-5.0392,-5.2255,-5.3385,-5.3424,-5.4515,-5.51,-5.51,-5.5424,-5.5424,-5.51,-5.5736,-5.5892,-5.5567,-5.6195,-5.6507,-5.6507,-5.6507,-5.6507,-5.6468,-5.6152,-5.616,-5.641,-5.6418,-5.6078,-5.5588,-5.5879,-5.4794,0.0,-5.3027,-5.2662,-5.2253,-5.2785,-5.2983,-5.2994,-5.3007,-5.3043,-5.2914,-5.2103,-5.2847,-5.4488,-5.6834,-5.8319,-5.9569,-6.1289,-6.1719,-6.1719,-6.1719,-6.1719,-6.1719,-6.1719,-5.9922,-5.8633,-5.9453,-5.918,-5.9062,-5.9843,-6.2147,-6.4022,-6.4607,-6.5428,-6.6522,-6.8007,-6.8945,-6.9765,-7.0625,-7.0976,-7.1406,-7.1951,-7.1985,-7.2016,-7.2006,-7.1995,-7.1971,-7.1914,-7.1868,-7.1786,-7.17,-7.166,-7.1651,-7.1651,-7.166,-7.1634,-7.1608,-7.1634,-7.1632,-7.1594,-7.1741,-7.1805,-7.1834,-7.1951,-7.2019,-7.2002,-7.2002,-7.2006,-7.1934,-7.1387,-7.0958,-7.045,0.0,0.0,-4.8826,0.0,0.0,0.0,0.0,0.0,0.0,0.0,0.0,0.0,0.0,0.0,0.0,0.0,0.0,0.0,-5.0945,-5.0463,-5.0774,-5.2411,-5.2606,-5.2684,-5.2684,-5.3463,-5.3502,-5.2684,-5.4316,-5.4706,-5.3931,-5.5606,-5.639,-5.639,-5.639,-5.6351,-5.6234,-5.5489,-5.4671,-5.3896,-5.3954,-5.3936,-5.3838,-5.3072,-5.324,-5.3637,-5.1986,-5.1389,-5.1408,-5.1335,-5.1359,-5.1445,-5.16,-5.1669,-5.1804,-5.2661,-5.3481,-5.489,-5.8189,-5.9169,-5.9642,-6.1289,-6.1719,-6.1719,-6.1719,-6.1719,-6.168,-6.1601,-6.0195,-5.9219,-6.0,-6.0195,-6.0,-5.9375,-6.1445,-6.3164,-6.3201,-6.3906,-6.539,-6.7967,-6.8984,-6.9844,-7.0664,-7.1523,-7.1992,-7.199,-7.1985,-7.2017,-7.2006,-7.1997,-7.1971,-7.1914,-7.1953,-7.1897,-7.1799,-7.1827,-7.1827,-7.1788,-7.1838,-7.1774,-7.1624,-7.1738,-7.1753,-7.1719,-7.1846,-7.1947,-7.1989,-7.1992,-7.199,-7.2019,-7.2019,-7.1981,-7.1981,-7.1981,-7.1473,-7.0537,0.0,0.0,0.0,0.0,0.0,0.0,0.0,0.0,0.0,0.0,0.0,0.0,0.0,0.0,0.0,0.0,0.0,0.0,-4.8469,-5.0024,-5.0891,-5.0657,-5.2528,-5.358,-5.358,-5.3771,-5.3771,-5.358,-5.4004,-5.4121,-5.3927,-5.4359,-5.4554,-5.4554,-5.4554,-5.4203,-5.3619,-5.4048,-5.4103,-5.3975,-5.4603,-5.4504,-5.3943,-5.375,-5.3012,-5.1997,-5.1545,-5.1417,-5.1372,-5.1314,-5.2171,-5.3472,-5.4786,-5.5189,-5.5233,-5.5467,-5.6614,-5.7955,-5.8856,-6.0035,-6.1132,-6.1601,-6.1719,-6.1719,-6.1719,-6.1719,-6.1367,-6.0078,-5.7969,-5.6367,-5.6562,-5.7148,-5.8125,-5.9805,-6.2812,-6.5156,-6.582,-6.6094,-6.6953,-6.8867,-6.9297,-7.0039,-7.1523,-7.1875,-7.1992,-7.1992,-7.199,-7.1986,-7.2017,-7.2014,-7.1975,-7.1978,-7.2578,-7.2848,-7.2801,-7.3395,-7.3371,-7.2746,-7.275,-7.2402,-7.1741,-7.176,-7.1828,-7.1866,-7.1887,-7.1946,-7.1984,-7.1991,-7.199,-7.2019,-7.2019,-7.1984,-7.1988,-7.1988,-7.1871,-7.152,0.0,0.0,0.0,0.0,0.0,0.0,0.0,0.0,0.0,0.0,0.0,0.0,0.0,0.0,0.0,0.0,0.0,0.0,0.0,-4.9607,-5.0151,-4.9995,-5.1086,-5.1826,-5.2177,-5.2567,-5.2567,-5.2177,-5.2957,-5.3112,-5.2801,-5.3541,-5.3888,-5.3888,-5.3888,-5.3619,-5.319,-5.3268,-5.3124,0.0,0.0,-5.3025,-5.2338,-5.2698,-5.2234,-5.1412,-5.1394,-5.1885,-5.261,-5.3334,-5.4231,-5.5135,-5.5737,-5.6173,-5.6566,-5.6971,-5.8041,-5.9267,-6.0026,-6.0971,-6.1717,-6.1719,-6.1719,-6.1523,-6.0781,-6.0586,-6.0117,-5.8398,-5.6601,-5.5312,-5.5312,-5.6914,-5.8476,-5.918,-6.2539,-6.5195,-6.5703,-6.5742,-6.664,-6.9101,-6.9414,-7.0078,-7.1836,-7.1992,-7.1992,-7.1992,-7.1991,-7.1989,-7.1986,-7.1982,-7.2173,-7.2559,-7.3004,-7.3398,-7.3787,-7.4204,-7.4193,-7.3725,-7.3345,-7.2922,-7.2456,-7.2058,-7.1908,-7.1953,-7.1949,-7.1952,-7.1986,-7.1992,-7.1991,-7.1989,-7.1989,-7.199,-7.1991,-7.1991,-7.1991,-7.1874,0.0,0.0,0.0,0.0,0.0,0.0,0.0,0.0,0.0,0.0,-4.8881,-4.8764,-4.8772,-4.8885,0.0,0.0,0.0,0.0,0.0,0.0,-4.9255,-4.9956,-4.9449,-4.9449,-5.0151,-5.0891,-5.093,-5.0151,-5.171,-5.206,-5.132,-5.284,-5.3541,-5.3541,-5.3541,-5.3502,-5.3346,-5.2684,-5.1943,-5.1172,-5.1323,-5.0948,-5.0369,0.0,-5.1414,-5.1412,-5.1401,-5.2467,-5.4188,-5.5926,-5.6663,-5.6741,-5.623,-5.658,-5.7334,-5.807,-5.8864,-5.9781,-6.1309,-6.1709,-6.1713,-6.1718,-6.1719,-6.125,-5.957,-5.9219,-5.8672,-5.6797,-5.5742,-5.5156,-5.5273,-5.7812,-5.957,-5.8555,-6.1719,-6.4375,-6.4609,-6.4648,-6.582,-6.9023,-6.9414,-7.0078,-7.1836,-7.1992,-7.1992,-7.1992,-7.1991,-7.199,-7.199,-7.2103,-7.2646,-7.3623,-7.366,-7.4021,-7.4837,-7.4837,-7.4798,-7.4681,-7.3983,-7.3504,-7.327,-7.2529,-7.21,-7.1982,-7.1989,-7.199,-7.199,-7.1992,-7.1992,-7.1992,-7.1992,-7.1992,-7.1992,-7.1992,-7.1992,-7.1875,0.0,0.0,0.0,0.0,0.0,0.0,0.0,0.0,0.0,0.0,-5.0076,-4.943,0.0,0.0,0.0,0.0,0.0,0.0,0.0,0.0,0.0,-4.9995,-5.0579,-5.093,-5.1086,-5.1203,-5.1242,-5.1086,-5.1398,-5.1437,-5.132,-5.1593,-5.1749,-5.1749,-5.1749,-5.1359,-5.0696,-5.1281,-5.1055,-5.0371,-5.1093,-5.1305,-5.1201,-5.1332,0.0,0.0,-5.1389,-5.2487,-5.4169,-5.5922,-5.7403,-5.8802,-6.0088,-6.0594,-6.0755,-6.0915,-6.1084,-6.1325,-6.1605,-6.1708,-6.1718,-6.1719,-6.1719,-6.125,-5.957,-5.9219,-5.8515,-5.6015,-5.4844,-5.4453,-5.5156,-5.6367,-5.8086,-6.0625,-6.2851,-6.4805,-6.625,-6.6445,-6.7187,-6.9258,-6.9492,-7.0156,-7.1836,-7.1992,-7.1992,-7.1992,-7.1992,-7.1992,-7.1992,-7.2695,-7.3788,-7.5386,-7.546,-7.585,-7.6636,-7.6636,-7.6323,-7.5659,-7.5503,-7.4681,-7.3309,-7.3123,-7.2694,-7.1989,-7.1991,-7.1992,-7.1992,-7.1992,-7.1992,-7.1992,-7.1992,-7.1992,-7.1992,-7.1992,-7.1992,-7.1992,0.0,0.0,0.0,0.0,0.0,0.0,0.0,-5.0738,-5.0678,-4.9773,-4.9698,-4.9789,-4.9909,-5.0653,-5.0825,0.0,0.0,0.0,0.0,0.0,0.0,-5.0657,0.0,0.0,-5.1281,-5.0852,-5.0618,-5.0618,0.0,-5.0229,-5.0618,-5.0618,-5.0852,-5.132,-5.132,-5.1086,-5.0696,-5.1125,-5.1097,-5.0764,-5.1213,-5.1383,-5.1399,0.0,0.0,0.0,0.0,-5.2483,-5.4048,-5.4866,-5.6853,-5.9308,-6.1062,-6.1607,-6.1612,-6.1599,-6.1634,-6.1663,-6.1676,-6.1696,-6.1709,-6.1715,-6.2029,-6.1561,-5.8555,-5.8203,-5.7656,-5.457,-5.3984,-5.4141,-5.4531,-5.6445,-5.8359,-5.9531,-6.2305,-6.4609,-6.543,-6.6328,-6.7539,-6.9258,-6.9453,-7.0117,-7.1836,-7.1992,-7.1992,-7.1992,-7.1992,-7.2187,-7.2656,-7.3945,-7.5039,-7.5858,-7.6326,-7.6755,-7.7146,-7.7146,-7.6951,-7.656,-7.6132,-7.5233,-7.3942,-7.3515,-7.2812,-7.1991,-7.1992,-7.1992,-7.1992,-7.1992,-7.1992,-7.1992,-7.1992,-7.1992,-7.1992,-7.1992,-7.1992,-7.1992,0.0,0.0,0.0,0.0,0.0,0.0,-4.9807,-5.0217,-5.0086,-4.8547,-4.8887,-4.9645,-5.0557,-5.0702,-5.0836,0.0,0.0,0.0,0.0,0.0,0.0,0.0,0.0,0.0,-5.1008,0.0,0.0,-4.9995,-4.9566,0.0,0.0,0.0,0.0,0.0,-5.1515,-5.1476,-5.132,-5.1285,-5.1296,0.0,0.0,-5.1389,0.0,0.0,0.0,0.0,0.0,-5.2366,-5.3654,-5.3849,-5.5684,-5.8217,-5.9971,-6.075,-6.1032,-6.1031,-6.1045,-6.1134,-6.1588,-6.1793,-6.1959,-6.1974,-6.2605,-6.2141,-5.785,-5.7383,-5.6953,-5.3672,-5.3359,-5.3906,-5.4453,-5.664,-5.8242,-5.7969,-6.0898,-6.3398,-6.3945,-6.5351,-6.7109,-6.918,-6.9414,-7.0117,-7.1836,-7.1992,-7.1992,-7.1992,-7.2344,-7.2851,-7.3555,-7.5039,-7.5976,-7.6172,-7.6836,-7.7187,-7.7187,-7.7187,-7.7187,-7.7187,-7.6523,-7.5703,-7.4844,-7.3984,-7.3086,-7.2265,-7.207,-7.1992,-7.1992,-7.1992,-7.1992,-7.1992,-7.1992,-7.1992,-7.1992,-7.1992,-7.1992,-7.1992,0.0,0.0,0.0,0.0,0.0,0.0,-4.9649,-4.9536,-4.9201,-4.8268,-4.8191,-4.8576,-4.9432,-4.9768,-5.0222,0.0,0.0,0.0,0.0,0.0,0.0,0.0,0.0,0.0,0.0,0.0,0.0,-4.9995,-5.0735,0.0,0.0,0.0,0.0,0.0,0.0,-5.206,-5.1281,-5.1303,0.0,0.0,0.0,0.0,0.0,0.0,0.0,0.0,0.0,-5.1977,-5.284,-5.3619,-5.4126,-5.4671,-5.6429,-5.8027,-5.9235,-5.9239,-5.9268,-5.9645,-6.1169,-6.2209,-6.2774,-6.2776,-6.3494,-6.3036,-5.8662,-5.781,-5.7148,-5.4453,-5.332,-5.3555,-5.5937,-5.5976,-5.6133,-5.7656,-5.8906,-6.0469,-6.2773,-6.3945,-6.5781,-6.9101,-6.9492,-7.0156,-7.1836,-7.1992,-7.1992,-7.1992,-7.3476,-7.4414,-7.4492,-7.539,-7.625,-7.707,-7.7148,-7.7187,-7.7187,-7.7187,-7.7187,-7.7187,-7.7109,-7.6601,-7.5742,-7.4883,-7.3984,-7.3125,-7.2344,-7.1992,-7.1992,-7.1992,-7.1992,-7.1992,-7.1992,-7.1992,-7.1992,-7.1992,-7.1992,-7.1992,0.0,0.0,0.0,0.0,0.0,0.0,-4.9586,-4.9875,-4.951,-4.7625,-4.7817,-4.8048,-4.7894,-4.8491,-4.9458,-5.0857,-5.1101,0.0,0.0,0.0,0.0,0.0,0.0,0.0,0.0,0.0,-4.9761,-4.9294,-4.9644,0.0,0.0,0.0,0.0,0.0,0.0,-5.2107,-5.13,-5.131,0.0,0.0,0.0,0.0,0.0,0.0,0.0,0.0,0.0,0.0,-5.2567,-5.2372,-5.3034,-5.3853,-5.3463,-5.4203,-5.5645,-5.8256,-5.8659,-5.887,-6.1634,-6.2625,-6.3031,-6.3559,-6.3199,-6.1852,-5.8541,-5.7028,-5.5898,-5.4336,-5.3711,-5.4101,-5.6211,-5.6328,-5.6133,-5.6328,-5.75,-5.8789,-5.9805,-6.1992,-6.4609,-6.7578,-6.8828,-7.0117,-7.1836,-7.1992,-7.1992,-7.1992,-7.3125,-7.4062,-7.457,-7.5937,-7.6836,-7.7187,-7.7187,-7.7187,-7.7187,-7.7187,-7.7187,-7.7187,-7.7187,-7.6758,-7.5859,-7.5,-7.4101,-7.3242,-7.2383,-7.1992,-7.1992,-7.1992,-7.1992,-7.1992,-7.1992,-7.1992,-7.1992,-7.1992,-7.1992,-7.1992,0.0,0.0,0.0,0.0,0.0,-5.0413,-4.9519,-4.9933,-4.9586,-4.7509,-4.774,-4.7894,-4.7317,-4.8073,-4.9114,-5.0394,-5.0875,0.0,0.0,0.0,0.0,0.0,0.0,0.0,0.0,0.0,-4.973,-4.9195,-4.9425,-5.0123,0.0,0.0,-5.1873,-5.2224,0.0,0.0,0.0,0.0,0.0,0.0,0.0,0.0,0.0,0.0,0.0,0.0,0.0,0.0,0.0,0.0,0.0,-5.2918,-5.171,-5.1554,-5.2567,-5.6386,-5.7438,-5.8066,-6.1257,-6.2854,-6.3799,-6.4415,-6.329,-6.1371,-5.8767,-5.6675,-5.5039,-5.418,-5.3984,-5.4531,-5.6289,-5.6601,-5.6328,-5.543,-5.6328,-5.7226,-5.7461,-5.9609,-6.2265,-6.539,-6.6797,-6.8515,-7.1015,-7.1719,-7.1992,-7.1992,-7.2812,-7.3672,-7.4531,-7.6015,-7.6914,-7.7187,-7.7187,-7.7187,-7.7187,-7.7187,-7.7187,-7.7187,-7.7187,-7.6758,-7.5859,-7.5,-7.4101,-7.3242,-7.2383,-7.1992,-7.1992,-7.1992,-7.1992,-7.1992,-7.1992,-7.1992,-7.1992,-7.1992,-7.1992,-7.1992,0.0,0.0,0.0,0.0,0.0,-5.0413,-4.9519,-4.9394,-4.9086,-4.8202,-4.8086,-4.8086,-4.8086,-4.8856,-4.9402,-4.95,-5.0476,0.0,0.0,0.0,0.0,0.0,0.0,0.0,-5.0098,-5.0041,-5.0013,-5.0087,-5.0891,-5.1275,-5.1314,-5.2168,-5.2129,-5.1353,0.0,0.0,0.0,0.0,0.0,0.0,0.0,0.0,0.0,0.0,0.0,0.0,0.0,0.0,0.0,0.0,0.0,0.0,0.0,-5.0696,-5.0541,-5.319,-5.5178,-5.7052,-5.962,-6.2815,-6.5387,-6.5387,-6.4127,-6.2223,-5.9683,-5.7137,-5.5039,-5.418,-5.3984,-5.4531,-5.6289,-5.6601,-5.6328,-5.543,-5.5312,-5.5625,-5.6484,-5.664,-5.8242,-6.2539,-6.3047,-6.4765,-6.9101,-7.1015,-7.1992,-7.1992,-7.2812,-7.3672,-7.4531,-7.543,-7.6328,-7.7187,-7.7187,-7.7187,-7.7187,-7.7187,-7.7187,-7.7187,-7.7187,-7.6758,-7.5859,-7.5,-7.4101,-7.3242,-7.2383,-7.1992,-7.1992,-7.1992,-7.1992,-7.1992,-7.1992,-7.1992,-7.1992,-7.1992,-7.1992,-7.1992,0.0,0.0,0.0,0.0,0.0,0.0,-5.0473,-5.0435,-5.0109,-4.9195,-4.9071,-4.884,-4.83,-4.8967,-4.9498,-4.9486,-5.0455,0.0,0.0,0.0,0.0,0.0,0.0,0.0,-5.0118,-5.066,-5.0664,-5.0087,-5.0891,-5.1895,-5.3065,-5.3362,-5.3674,-5.3962,-5.4258,-5.388,0.0,0.0,0.0,0.0,0.0,0.0,-5.4862,0.0,0.0,0.0,0.0,0.0,0.0,0.0,0.0,0.0,0.0,0.0,0.0,-5.2411,-5.3385,-5.4523,-5.7744,-5.9389,-6.0368,-6.0935,-5.941,-5.7478,-5.6698,-5.4487,-5.2891,-5.3828,-5.3984,-5.4531,-5.6289,-5.6601,-5.6328,-5.543,-5.5312,-5.539,-5.5664,-5.7734,-6.0351,-6.3515,-6.6992,-6.9687,-7.1055,-7.168,-7.1992,-7.1992,-7.2265,-7.2773,-7.3672,-7.3984,-7.5078,-7.7148,-7.7187,-7.7187,-7.7187,-7.7187,-7.7187,-7.7187,-7.6601,-7.6172,-7.5859,-7.4375,-7.3555,-7.3242,-7.2383,-7.1992,-7.1992,-7.1992,-7.1992,-7.1992,-7.1992,-7.1992,-7.1992,-7.1992,-7.1992,-7.1992,0.0,0.0,0.0,0.0,0.0,0.0,-5.0905,-5.0888,-5.0679,-5.0113,-5.0019,-4.9663,-4.8853,-4.9474,-4.9872,-4.9545,-5.0393,0.0,0.0,0.0,0.0,0.0,0.0,0.0,-5.0606,-5.1456,-5.1456,-5.0606,-5.1408,-5.2376,-5.3465,-5.3455,-5.3884,-5.4713,-5.4745,-5.444,0.0,0.0,0.0,0.0,0.0,0.0,-5.5705,0.0,0.0,0.0,0.0,0.0,0.0,0.0,0.0,0.0,0.0,0.0,0.0,0.0,-5.238,-5.2827,-5.5968,-5.7541,-5.8412,-5.8975,-5.7161,-5.5299,-5.5299,-5.3512,-5.2305,-5.3711,-5.4258,-5.4922,-5.6328,-5.6601,-5.6406,-5.5898,-5.5508,-5.5547,-5.6172,-5.7812,-6.0156,-6.3437,-6.8086,-7.1055,-7.1015,-7.1601,-7.1992,-7.1992,-7.1992,-7.2383,-7.3242,-7.3281,-7.4219,-7.6172,-7.6523,-7.6875,-7.7187,-7.6875,-7.6719,-7.6719,-7.582,-7.5234,-7.4883,-7.3789,-7.3125,-7.2773,-7.2226,-7.1992,0.0,-7.1992,-7.1992,-7.1992,-7.1992,-7.1992,-7.1992,-7.1992,-7.1992,-7.1992,0.0,0.0,0.0,0.0,0.0,0.0,0.0,-5.0921,-5.0897,-5.0897,-5.0863,-5.052,-4.971,-5.0328,-5.0494,-4.9747,-5.0486,0.0,0.0,0.0,0.0,0.0,0.0,-5.1539,-5.1594,-5.2322,-5.2322,-5.1594,-5.24,-5.2821,-5.2899,-5.2899,-5.3325,-5.4108,-5.4159,-5.4156,-5.4135,-5.494,-5.5744,-5.6507,-5.6507,-5.6468,0.0,0.0,0.0,0.0,0.0,0.0,0.0,0.0,0.0,0.0,0.0,0.0,0.0,0.0,0.0,0.0,0.0,-5.6701,-5.8553,-5.8553,-5.6774,-5.5027,-5.5105,-5.3864,0.0,-5.3906,-5.4726,-5.5586,-5.6445,-5.6601,-5.6601,-5.6601,-5.5937,-5.6015,-5.7734,-5.7578,-5.875,-6.2812,-6.6992,-6.9531,-6.9414,-7.0976,-7.1992,-7.1992,-7.1992,-7.2344,-7.3164,-7.3203,-7.3594,-7.4492,-7.5273,-7.6133,-7.6992,-7.6211,-7.582,-7.5781,-7.4922,-7.4062,-7.3281,-7.3242,-7.2773,-7.1992,-7.1992,-7.1992,-7.1992,-7.1992,-7.1992,-7.1992,-7.1992,-7.1992,-7.1992,-7.1992,-7.1992,-7.1992,0.0,0.0,0.0,0.0,0.0,0.0,0.0,0.0,0.0,0.0,-5.099,-5.089,-5.0658,-5.0789,-5.1057,0.0,0.0,0.0,0.0,0.0,0.0,0.0,-5.2674,-5.2668,-5.3387,-5.2925,-5.293,-5.3401,-5.3584,-5.4003,-5.4612,-5.4599,-5.5067,-5.5896,-5.5915,-5.59,-5.5896,-5.6125,-5.6316,-5.6507,-5.6507,-5.6094,0.0,0.0,0.0,0.0,-5.2653,-5.206,0.0,0.0,0.0,0.0,0.0,0.0,0.0,0.0,-5.2029,-5.1523,-5.2147,0.0,-5.3192,-5.3199,-5.2772,-5.2499,0.0,-5.3008,-5.3125,-5.4687,-5.5156,-5.5586,-5.6445,-5.6601,-5.6601,-5.6601,-5.6445,-5.6914,-5.8633,-6.1523,-6.4101,-6.5781,-6.8594,-7.0156,-6.9453,-7.0976,-7.1992,-7.1992,-7.1992,-7.2109,-7.2305,-7.2305,-7.2695,-7.3594,-7.3789,-7.4336,-7.5195,-7.5,-7.4922,-7.4883,-7.4023,-7.3515,-7.3281,-7.2617,-7.2187,-7.1992,-7.1992,-7.1992,-7.1992,-7.1992,-7.1992,-7.1992,-7.1992,-7.1992,-7.1992,-7.1992,-7.1992,-7.1992,0.0,0.0,0.0,0.0,0.0,0.0,0.0,0.0,0.0,0.0,-5.1055,-5.1027,-5.1005,-5.1316,-5.1694,0.0,0.0,0.0,0.0,0.0,0.0,-5.3879,-5.3483,-5.3474,-5.4008,-5.3945,-5.391,-5.3984,-5.4367,-5.4789,-5.521,-5.5201,-5.5662,-5.6482,-5.6484,-5.6277,-5.5935,-5.6332,-5.6262,-5.5911,-5.589,0.0,0.0,0.0,0.0,0.0,-5.2178,-5.197,0.0,-5.2454,-5.3112,-5.381,0.0,0.0,0.0,0.0,-5.2046,-5.1416,-5.1385,-5.1671,-5.1991,-5.1992,-5.2305,-5.2734,-5.3203,-5.3594,-5.4141,-5.5117,-5.5625,-5.6055,-5.6523,-5.7265,-5.7539,-5.6719,-5.793,-5.9258,-6.0195,-6.2695,-6.5039,-6.6719,-6.8476,-6.9844,-7.0547,-7.1445,-7.1992,-7.1992,-7.1992,-7.1992,-7.1992,-7.1992,-7.2226,-7.2695,-7.2695,-7.332,-7.4609,-7.4219,-7.3984,-7.3984,-7.3125,-7.2695,-7.2695,-7.2226,-7.1992,-7.1992,-7.1992,-7.1992,-7.1992,-7.1992,-7.1992,-7.1992,-7.1992,-7.1992,-7.1992,-7.1992,-7.1992,-7.1992,0.0,0.0,0.0,0.0,0.0,0.0,0.0,0.0,0.0,0.0,0.0,0.0,0.0,0.0,0.0,0.0,0.0,0.0,0.0,0.0,-5.4847,-5.4323,-5.4206,-5.4238,-5.4365,-5.496,-5.5001,-5.4406,-5.495,-5.5182,-5.5218,-5.5215,-5.5675,-5.6475,-5.6367,-5.5974,-5.5447,-5.6049,-5.5861,-5.5207,-5.5189,0.0,0.0,0.0,0.0,0.0,0.0,0.0,0.0,-5.289,-5.3966,-5.5056,-5.416,0.0,0.0,0.0,0.0,0.0,-5.1551,-5.242,-5.3164,-5.2617,-5.3242,-5.3984,-5.3984,0.0,0.0,0.0,-5.6094,-5.668,-5.6953,-5.8008,-5.8398,-5.7187,-5.9648,-6.1797,-6.207,-6.2969,-6.4414,-6.664,-6.7773,-6.9258,-7.1406,-7.1836,-7.1992,-7.1992,-7.1992,-7.1992,-7.1992,-7.1992,-7.1992,-7.1992,-7.1992,-7.2695,-7.418,-7.3476,-7.3086,-7.3086,-7.2344,-7.1992,-7.1992,-7.1992,-7.1992,-7.1992,-7.1992,-7.1992,-7.1992,-7.1992,-7.1992,-7.1992,-7.1992,-7.1992,-7.1992,-7.1992,-7.1992,-7.1992,0.0,0.0,0.0,0.0,0.0,0.0,0.0,0.0,0.0,0.0,0.0,0.0,0.0,0.0,0.0,0.0,0.0,0.0,0.0,-5.6064,-5.6078,-5.6005,-5.5381,-5.535,-5.6094,-5.5502,-5.5541,-5.6213,-5.5538,-5.5215,-5.5201,-5.5184,-5.5677,-5.6476,-5.5744,-5.572,-5.6244,-5.5662,-5.533,-5.5194,-5.5196,0.0,0.0,0.0,0.0,0.0,0.0,0.0,0.0,-5.4294,-5.4979,-5.5056,-5.416,0.0,0.0,0.0,0.0,0.0,-5.2293,-5.4217,-5.5273,-5.2344,-5.2812,-5.3984,-5.3984,-5.4687,-5.5508,0.0,0.0,-5.7031,-5.8515,-5.7812,-5.7383,-5.8594,-6.043,-6.2226,-6.3672,-6.5273,-6.6445,-6.6836,-6.832,-6.9414,-6.9765,-7.1133,-7.1992,-7.1992,-7.1992,-7.1992,-7.1992,-7.1992,-7.1992,-7.1992,-7.1992,-7.2148,-7.2383,-7.2265,-7.2187,-7.2187,-7.207,-7.1992,-7.1992,-7.1992,-7.1992,-7.1992,-7.1992,-7.1992,-7.1992,-7.1992,-7.1992,-7.1992,-7.1992,-7.1992,-7.1992,-7.1992,-7.1992,-7.1992,0.0,0.0,0.0,0.0,0.0,0.0,0.0,0.0,0.0,0.0,0.0,0.0,0.0,0.0,0.0,0.0,0.0,0.0,0.0,-5.6236,-5.632,-5.6335,-5.6094,-5.6147,-5.6497,-5.5677,-5.548,-5.5903,-5.5001,-5.4518,-5.4495,-5.4515,-5.4972,-5.5744,-5.4901,-5.4447,-5.4417,-5.4528,-5.427,-5.385,0.0,0.0,0.0,0.0,0.0,0.0,0.0,0.0,0.0,0.0,-5.4804,-5.4979,-5.3615,0.0,0.0,0.0,0.0,0.0,-5.187,-5.3554,-5.4922,-5.3789,-5.5859,-5.8164,-5.8164,-5.8476,-5.8594,-5.8125,-5.8008,-5.8242,-5.9062,-5.9297,-6.0234,-6.293,-6.2422,-6.2305,-6.4062,-6.418,-6.4609,-6.6015,-6.7305,-6.8633,-6.9961,-7.125,-7.1992,-7.1992,-7.1992,-7.1992,-7.1992,-7.1992,-7.1992,-7.1992,-7.1992,-7.1992,-7.1992,-7.1992,-7.1992,-7.1992,-7.1992,-7.1992,-7.1992,-7.1992,-7.1992,-7.1992,-7.1992,-7.1992,-7.1992,-7.1992,-7.1992,-7.1992,-7.1992,-7.1992,-7.1992,-7.1992,-7.1992,-7.1992,0.0,0.0,0.0,0.0,0.0,0.0,0.0,0.0,0.0,0.0,0.0,0.0,0.0,0.0,0.0,0.0,0.0,0.0,0.0,-5.6185,-5.6312,-5.6312,-5.6477,-5.6477,-5.6235,-5.5609,-5.5175,-5.5005,-5.4099,-5.3654,-5.3589,-5.3582,-5.4043,-5.4865,-5.3988,-5.3376,-5.2957,-5.3497,-5.3313,-5.2691,0.0,0.0,0.0,0.0,0.0,0.0,0.0,0.0,0.0,0.0,0.0,0.0,0.0,0.0,0.0,-5.1633,-5.1414,-5.1501,-5.1913,-5.3281,-5.4883,-5.5937,-5.8398,-6.0664,-6.125,-6.125,-6.0859,-5.9961,-5.9805,-5.9805,-5.9805,-6.082,-6.2578,-6.5234,-6.3789,-6.293,-6.4648,-6.375,-6.375,-6.5937,-6.6992,-6.8359,-7.0508,-7.1484,-7.1992,-7.1992,-7.1992,-7.1992,-7.1992,-7.1992,-7.1992,-7.1992,-7.1992,-7.1992,-7.1992,-7.1992,-7.1992,-7.1992,-7.1992,-7.1992,-7.1992,-7.1992,-7.1992,-7.1992,-7.1992,-7.1992,-7.1992,-7.1992,-7.1992,-7.1992,-7.1992,-7.1992,-7.1992,-7.1992,-7.1992,-7.1992,0.0,0.0,0.0,0.0,0.0,0.0,0.0,0.0,0.0,0.0,0.0,0.0,0.0,0.0,0.0,0.0,0.0,0.0,-5.6012,-5.6185,-5.6312,-5.6312,-5.6507,-5.621,-5.5388,-5.5287,-5.484,-5.4108,-5.3172,-5.271,-5.2688,-5.2682,-5.3166,-5.3946,-5.3155,-5.3215,-5.3855,-5.3116,-5.277,-5.2695,-5.2695,0.0,0.0,0.0,0.0,0.0,0.0,0.0,0.0,0.0,0.0,0.0,0.0,0.0,-5.2426,-5.1633,-5.1414,-5.1735,-5.3358,-5.5078,-5.6836,-5.8515,-5.793,-5.7578,-5.9961,-5.9922,-5.9805,-6.1211,-6.1523,-6.1523,-6.1523,-6.1601,-6.1797,-6.2031,-6.3203,-6.4726,-6.6484,-6.6601,-6.6914,-6.789,-6.8789,-6.9687,-7.0625,-7.1484,-7.1992,-7.1992,-7.1992,-7.1992,-7.1992,-7.1992,-7.1992,-7.1992,-7.1992,-7.1992,-7.1992,-7.1992,-7.1992,-7.1992,-7.1992,-7.1992,-7.1992,-7.1992,-7.1992,-7.1992,-7.1992,-7.1992,-7.1992,-7.1992,-7.1992,-7.1992,-7.1992,-7.1992,-7.1992,-7.1992,-7.1992,-7.1992,0.0,0.0,0.0,0.0,0.0,0.0,0.0,0.0,0.0,0.0,0.0,0.0,0.0,0.0,0.0,0.0,0.0,0.0,-5.6012,-5.6149,-5.6241,-5.6308,-5.6441,-5.6166,-5.5312,-5.4722,-5.4053,-5.3188,-5.2291,-5.2425,-5.3454,-5.2353,-5.2593,-5.3899,-5.2514,-5.2058,-5.2375,-5.2029,-5.1874,-5.1953,-5.2461,-5.2695,0.0,0.0,0.0,0.0,0.0,0.0,0.0,0.0,-5.515,-5.4264,-5.3412,-5.2542,-5.1798,-5.1498,-5.1782,-5.2332,-5.3007,-5.5273,-5.7578,-5.8242,-5.8281,-5.9023,-6.2109,-6.2578,-6.2226,-6.1797,-6.2578,-6.3008,-6.1914,-6.3476,-6.457,-6.3476,-6.4765,-6.6133,-6.6797,-6.6914,-6.7031,-6.7344,-6.8164,-6.9023,-6.9883,-7.0703,-7.1406,-7.1953,-7.1992,-7.1992,-7.1992,-7.1992,-7.1992,-7.1992,-7.1992,-7.1992,-7.1992,-7.1992,-7.1992,-7.1992,-7.1992,-7.1992,-7.1992,-7.1992,-7.1992,-7.1992,-7.1992,-7.1992,-7.1992,-7.1992,-7.1992,-7.1992,-7.1992,-7.1992,-7.1992,-7.1992,-7.1992,-7.1992,0.0,0.0,0.0,0.0,0.0,0.0,0.0,0.0,0.0,0.0,0.0,0.0,0.0,0.0,0.0,0.0,0.0,0.0,-5.5625,-5.5744,-5.5808,-5.5879,-5.6032,-5.5843,-5.5312,-5.4453,-5.3554,-5.2687,-5.2112,-5.2413,-5.3561,-5.2655,-5.2698,-5.3531,-5.2336,-5.1793,-5.1794,-5.1796,-5.1797,-5.1875,-5.2773,-5.3281,0.0,0.0,0.0,0.0,0.0,0.0,0.0,0.0,-5.4901,-5.3823,-5.3286,-5.2301,-5.1399,-5.1393,-5.2414,-5.3588,-5.3867,-5.5859,-5.8086,-5.8906,-5.914,-6.0117,-6.3515,-6.3867,-6.3437,-6.3359,-6.3867,-6.3945,-6.2734,-6.4453,-6.5703,-6.4492,-6.5742,-6.6914,-6.6914,-6.6914,-6.6914,-6.6914,-6.7656,-6.8437,-6.9023,-6.9844,-7.0664,-7.1523,-7.1601,-7.1719,-7.1992,-7.1992,-7.1992,-7.1992,-7.1992,-7.1992,-7.1992,-7.1992,-7.1992,-7.1992,-7.1992,-7.1992,-7.1992,-7.1992,-7.1992,-7.1992,-7.1992,-7.1992,-7.1992,-7.1992,-7.1992,-7.1992,-7.1992,-7.1992,-7.1992,-7.1992,-7.1992,-7.1992,0.0,0.0,0.0,0.0,0.0,0.0,0.0,0.0,-5.6185,-5.6187,-5.6216,0.0,0.0,0.0,0.0,0.0,0.0,0.0,-5.4851,-5.4858,-5.4914,-5.4983,-5.5137,-5.522,-5.5312,-5.4453,-5.3554,-5.2687,-5.2674,-5.2704,-5.2743,-5.3581,-5.3547,-5.2688,-5.2694,-5.2695,-5.2695,-5.2695,-5.2695,-5.2773,-5.3672,-5.4531,-5.5312,0.0,0.0,0.0,0.0,0.0,0.0,0.0,-5.5421,-5.4014,-5.3998,-5.2819,-5.1418,-5.1395,-5.3235,-5.5463,-5.6328,-5.7226,-5.8555,-6.1055,-6.0469,-6.0156,-6.3515,-6.2969,-6.2695,-6.6172,-6.5508,-6.4297,-6.4297,-6.4297,-6.4336,-6.4297,-6.5742,-6.6914,-6.6914,-6.6914,-6.6914,-6.6914,-6.7656,-6.8203,-6.8203,-6.8984,-6.9805,-7.0625,-7.0703,-7.1055,-7.1953,-7.1992,-7.1992,-7.1992,-7.1992,-7.1992,-7.1992,-7.1992,-7.1992,-7.1992,-7.1992,-7.1992,-7.1992,-7.1992,-7.1992,-7.1992,-7.1992,-7.1992,-7.1992,-7.1992,-7.1992,-7.1992,-7.1992,-7.1992,-7.1992,-7.1992,-7.1992,-7.1992,0.0,0.0,0.0,0.0,0.0,0.0,0.0,0.0,-5.6272,-5.6265,-5.6245,0.0,0.0,0.0,0.0,0.0,0.0,0.0,-5.3931,-5.3894,-5.4239,-5.4979,-5.505,-5.5426,-5.6211,-5.4765,-5.3554,-5.2694,-5.2102,-5.2413,-5.3591,-5.3236,-5.2964,-5.2694,-5.2695,-5.2695,-5.2695,-5.2695,-5.3047,-5.3672,-5.457,-5.5078,-5.5351,0.0,0.0,0.0,0.0,0.0,0.0,0.0,0.0,0.0,-5.3277,-5.2298,-5.1395,-5.1404,-5.2812,-5.4452,-5.4687,-5.7617,-6.0469,-6.0039,-6.1367,-6.3047,-6.4062,-6.3906,-6.418,-6.6445,-6.5508,-6.4297,-6.4297,-6.5312,-6.5742,-6.4492,-6.5742,-6.6914,-6.6914,-6.6914,-6.6914,-6.6914,-6.7148,-6.7539,-6.8125,-6.8437,-6.8906,-6.9726,-6.9805,-7.0156,-7.1055,-7.1094,-7.1367,-7.1992,-7.1992,-7.1992,-7.1992,-7.1992,-7.1992,-7.1992,-7.1992,-7.1992,-7.1992,-7.1992,-7.1992,-7.1992,-7.1992,-7.1992,-7.1992,-7.1992,-7.1992,-7.1992,-7.1992,-7.1992,-7.1992,-7.1992,-7.1992,-7.1992,0.0,0.0,0.0,0.0,0.0,0.0,0.0,0.0,-5.6285,-5.6272,-5.5902,-5.5694,0.0,0.0,0.0,0.0,0.0,0.0,-5.3056,-5.3384,-5.3897,-5.4521,-5.4879,-5.5391,-5.6055,-5.5039,-5.4101,-5.3203,-5.2343,-5.246,-5.3476,-5.3319,-5.3046,-5.2734,-5.3047,-5.3203,-5.3242,-5.3594,-5.4023,-5.4609,-5.5469,-5.582,-5.5859,0.0,0.0,0.0,0.0,0.0,0.0,0.0,0.0,0.0,-5.2851,-5.2109,-5.1599,-5.2656,-5.3945,-5.539,-5.7109,-5.9609,-6.1797,-6.2187,-6.3281,-6.4492,-6.5156,-6.5312,-6.5625,-6.668,-6.6055,-6.5312,-6.5312,-6.6172,-6.6562,-6.5508,-6.6211,-6.6914,-6.6914,-6.6914,-6.6914,-6.6914,-6.6914,-6.7109,-6.7617,-6.7695,-6.8047,-6.8867,-6.8906,-6.9297,-7.0156,-7.0195,-7.043,-7.0937,-7.0976,-7.0976,-7.1015,-7.1328,-7.1484,-7.1484,-7.1836,-7.1992,-7.1992,-7.1992,-7.1992,-7.1992,-7.1992,-7.1992,-7.1992,-7.1992,-7.1992,-7.1992,-7.1992,-7.1992,-7.1992,-7.1992,-7.1992,-7.1992,0.0,0.0,-5.5359,-5.6175,0.0,0.0,0.0,0.0,-5.6278,-5.6206,-5.5461,-5.4897,0.0,0.0,0.0,0.0,0.0,0.0,0.0,-5.3137,-5.3735,-5.3873,-5.4818,-5.5379,-5.543,-5.5351,-5.4922,-5.4101,-5.3164,-5.2695,-5.2734,-5.3516,-5.3476,-5.2734,-5.3594,-5.4023,-5.418,-5.4961,-5.5351,-5.5469,-5.6172,-5.6484,-5.6484,-5.6484,0.0,0.0,0.0,0.0,0.0,0.0,0.0,0.0,-5.2617,-5.2031,-5.1875,-5.4336,-5.5781,-5.7461,-6.1445,-6.2226,-6.2695,-6.5859,-6.5586,-6.4961,-6.6523,-6.6914,-6.6914,-6.6914,-6.6914,-6.6914,-6.6914,-6.6914,-6.6914,-6.6914,-6.6914,-6.6914,-6.6914,-6.6914,-6.6914,-6.6914,-6.6914,-6.6914,-6.6914,-6.6914,-6.7226,-6.8008,-6.8086,-6.8437,-6.9258,-6.9297,-6.9336,-6.9414,-6.9414,-6.9453,-6.9492,-7.0234,-7.0586,-7.0586,-7.1367,-7.1758,-7.1758,-7.1914,-7.1992,-7.1992,-7.1992,-7.1992,-7.1992,-7.1992,-7.1992,-7.1992,-7.1992,-7.1992,-7.1992,-7.1992,-7.1992,-7.1992,0.0,0.0,-5.6097,-5.6253,0.0,0.0,0.0,0.0,0.0,-5.6199,0.0,0.0,0.0,0.0,0.0,0.0,0.0,0.0,0.0,-5.2246,-5.3114,-5.3873,-5.5422,-5.6327,-5.6328,-5.5664,-5.5195,-5.5039,-5.3476,-5.2695,-5.2695,-5.2891,-5.2891,-5.2734,-5.3594,-5.4375,-5.5039,-5.5234,-5.5703,-5.6289,-5.5781,-5.5586,-5.5586,-5.5586,-5.5156,0.0,0.0,0.0,0.0,0.0,0.0,0.0,-5.1914,-5.1562,-5.1641,-5.2891,-5.4844,-5.6953,-5.8555,-6.1328,-6.3906,-6.4687,-6.5625,-6.6445,-6.6797,-6.6914,-6.6914,-6.6914,-6.6914,-6.6914,-6.6914,-6.6914,-6.6914,-6.6914,-6.6914,-6.6914,-6.6914,-6.6914,-6.6914,-6.6914,-6.6914,-6.6914,-6.6914,-6.6914,-6.6992,-6.7187,-6.7187,-6.7539,-6.8398,-6.8476,-6.8789,-6.9453,-6.9492,-6.9453,-6.9414,-6.9609,-6.9687,-6.9687,-6.9883,-6.9961,-7.0,-7.1367,-7.1992,-7.1992,-7.1992,-7.1992,-7.1992,-7.1992,-7.1992,-7.1992,-7.1992,-7.1992,-7.1992,-7.1992,-7.1992,-7.1992,0.0,0.0,0.0,0.0,0.0,0.0,0.0,0.0,0.0,0.0,0.0,0.0,0.0,0.0,0.0,0.0,0.0,0.0,0.0,-5.3088,-5.4234,-5.5148,-5.6093,-5.6601,-5.6601,-5.6133,-5.5703,-5.5312,-5.4375,-5.3711,-5.332,-5.332,-5.332,-5.3359,-5.4219,-5.4883,-5.5312,-5.5742,-5.5937,-5.5937,-5.5469,-5.5039,-5.4687,-5.4687,-5.4414,-5.4101,-5.5039,0.0,0.0,0.0,0.0,0.0,0.0,0.0,-5.1836,-5.3945,-5.4922,-5.6172,-5.9922,-6.1992,-6.3476,-6.5117,-6.6211,-6.6914,-6.6914,-6.6914,-6.6914,-6.6914,-6.6914,-6.6914,-6.6914,-6.6914,-6.6914,-6.6914,-6.6914,-6.6914,-6.6914,-6.6914,-6.6914,-6.6914,-6.6914,-6.6914,-6.6914,-6.6914,-6.6914,-6.6914,-6.6914,-6.7109,-6.7539,-6.7578,-6.7773,-6.8242,-6.8242,-6.8242,-6.8203,-6.8633,-6.8828,-6.8828,-6.9258,-6.9453,-6.9492,-7.0351,-7.0976,-7.1367,-7.1367,-7.1601,-7.1992,-7.1992,-7.1992,-7.1992,-7.1992,-7.1992,-7.1992,-7.1992,-7.1992,-7.1953,0.0,0.0,0.0,0.0,0.0,0.0,0.0,0.0,0.0,0.0,0.0,0.0,0.0,0.0,0.0,0.0,0.0,0.0,0.0,0.0,0.0,-5.6562,-5.6601,-5.6601,-5.6601,-5.6601,-5.625,-5.5508,-5.5508,-5.5156,-5.4453,-5.4141,-5.4062,-5.4258,-5.4961,-5.539,-5.5586,-5.6289,-5.6172,-5.5508,-5.5195,-5.4726,-5.4219,-5.4062,-5.3906,-5.3828,-5.4101,-5.3476,-5.25,-5.2656,0.0,0.0,0.0,0.0,-5.2031,-5.5234,-5.5351,-5.5742,-6.1797,-6.2812,-6.289,-6.6094,-6.6914,-6.6914,-6.6914,-6.6914,-6.6914,-6.6914,-6.6914,-6.6914,-6.6914,-6.6914,-6.6914,-6.6914,-6.6914,-6.6914,-6.6914,-6.6914,-6.6914,-6.6914,-6.6914,-6.6914,-6.6914,-6.6914,-6.6914,-6.6914,-6.6914,-6.6914,-6.6914,-6.6914,-6.6914,-6.6914,-6.6914,-6.6914,-6.6914,-6.7617,-6.7969,-6.7969,-6.8711,-6.9062,-6.9062,-6.8984,-6.9531,-7.0508,-7.0469,-7.0898,-7.1562,-7.1562,-7.1562,-7.1562,-7.1562,-7.1562,-7.1562,-7.1562,-7.1562,-7.1484,0.0,0.0,0.0,0.0,0.0,0.0,0.0,0.0,0.0,0.0,-5.4667,-5.3615,0.0,0.0,-5.2028,-5.2028,-5.2887,-5.348,-5.3611,0.0,0.0,-5.6562,-5.6601,-5.6601,-5.6601,-5.6601,-5.6523,-5.6445,-5.6445,-5.6367,-5.6211,-5.4726,-5.4414,-5.5117,-5.5234,-5.5703,-5.6445,-5.6562,-5.6523,-5.6289,-5.4765,-5.457,-5.5039,-5.4297,-5.3516,-5.3086,-5.457,-5.3594,-5.168,-5.2461,-5.2109,0.0,0.0,0.0,-5.1797,-5.3789,-5.5234,-5.6797,-5.9219,-6.1875,-6.4414,-6.6406,-6.6914,-6.6914,-6.6914,-6.6914,-6.6914,-6.6914,-6.6914,-6.6914,-6.6914,-6.6914,-6.6914,-6.6914,-6.6914,-6.6914,-6.6914,-6.6914,-6.6914,-6.6914,-6.6914,-6.6914,-6.6914,-6.6914,-6.6914,-6.6914,-6.6914,-6.6914,-6.6914,-6.6914,-6.6914,-6.6914,-6.6914,-6.6914,-6.6914,-6.7031,-6.707,-6.707,-6.7187,-6.7265,-6.7265,-6.7226,-6.8125,-6.9648,-6.9609,-6.9687,-6.9844,-6.9844,-6.9805,-6.9765,-6.9805,-6.9844,-6.9844,-6.9844,-6.9844,-6.9805,0.0,0.0,0.0,0.0,0.0,0.0,0.0,0.0,0.0,0.0,0.0,-5.4328,-5.4266,-5.3491,-5.2917,-5.2917,-5.3804,-5.4624,-5.5276,-5.5714,-5.6361,-5.7305,-5.7261,-5.7495,-5.8047,-5.8047,-5.8047,-5.8047,-5.7578,-5.7344,-5.7305,-5.6055,-5.5664,-5.6015,-5.6015,-5.625,-5.6601,-5.6601,-5.6328,-5.5781,-5.5039,-5.5234,-5.5898,-5.4531,-5.4375,-5.4844,-5.4648,-5.3828,-5.293,-5.3281,-5.3164,-5.2851,-5.2851,0.0,0.0,0.0,-5.5273,-5.6562,-5.9726,-6.2422,-6.4726,-6.6445,-6.6914,-6.6914,-6.6914,-6.6914,-6.6914,-6.6914,-6.6914,-6.6914,-6.6914,-6.6914,-6.6914,-6.6914,-6.6914,-6.6914,-6.6914,-6.6914,-6.6914,-6.6914,-6.6914,-6.6914,-6.6914,-6.6914,-6.6914,-6.6914,-6.6914,-6.6914,-6.6914,-6.6914,-6.6914,-6.6914,-6.6914,-6.6914,-6.6914,-6.6914,-6.6914,-6.6914,-6.6914,-6.6914,-6.6914,-6.6914,-6.7578,-6.8789,-6.875,-6.8984,-6.9453,-6.9453,-6.9414,-6.9414,-6.9414,-6.9453,-6.9453,-6.9453,-6.9453,-6.9375,0.0,0.0,0.0,0.0,0.0,0.0,0.0,0.0,0.0,0.0,0.0,-5.4893,-5.4824,0.0,0.0,0.0,-5.4854,-5.5952,-5.6978,-5.7097,-5.7439,-5.8161,-5.8057,-5.8367,-5.9138,-5.9138,-5.9138,-5.9138,-5.832,-5.789,-5.789,-5.6992,-5.6601,-5.6601,-5.6601,-5.6601,-5.6601,-5.6601,-5.6211,-5.5664,-5.5859,-5.6484,-5.7148,-5.6055,-5.6445,-5.7344,-5.5625,-5.4844,-5.4609,-5.4141,-5.3984,-5.3984,-5.3984,-5.3984,0.0,0.0,0.0,-5.6445,-6.0078,-6.1992,-6.3515,-6.5703,-6.625,-6.6367,-6.6797,-6.6914,-6.6914,-6.6914,-6.6914,-6.6914,-6.6914,-6.6914,-6.6914,-6.6914,-6.6914,-6.6914,-6.6914,-6.6914,-6.6914,-6.6914,-6.6914,-6.6914,-6.6914,-6.6914,-6.6914,-6.6914,-6.6914,-6.6914,-6.6914,-6.6914,-6.6914,-6.6914,-6.6914,-6.6914,-6.6914,-6.6914,-6.6914,-6.6914,-6.6914,-6.6914,-6.6914,-6.6914,-6.7265,-6.7851,-6.7851,-6.8203,-6.875,-6.875,-6.875,-6.875,-6.875,-6.875,-6.875,-6.875,-6.875,-6.8672,0.0,0.0,0.0,0.0,0.0,0.0,0.0,0.0,0.0,0.0,0.0,-5.4907,-5.49,-5.4793,-5.4735,-5.4735,-5.6253,-5.7567,-5.8506,-5.8757,-5.8909,-5.8951,-5.8886,0.0,-5.9029,-5.9029,-5.9029,-5.9029,-5.8278,-5.789,-5.789,-5.6992,-5.6601,-5.6601,-5.6601,-5.6601,-5.6601,-5.6601,-5.6562,-5.6601,-5.7422,-5.8281,-5.914,-5.9805,-6.0117,-5.9961,-5.8281,-5.7187,-5.6211,-5.457,-5.3984,-5.3984,-5.3984,-5.3984,-5.418,0.0,0.0,0.0,-5.8828,-5.9414,-6.0273,-6.3594,-6.4453,-6.4883,-6.6523,-6.6914,-6.6914,-6.6914,-6.6914,-6.6914,-6.6914,-6.6914,-6.6914,-6.6914,-6.6914,-6.6914,-6.6914,-6.6914,-6.6914,-6.6914,-6.6914,-6.6914,-6.6914,-6.6914,-6.6914,-6.6914,-6.6914,-6.6914,-6.6914,-6.6914,-6.6914,-6.6914,-6.6914,-6.6914,-6.6914,-6.6914,-6.6914,-6.6914,-6.6914,-6.6914,-6.6914,-6.6914,-6.6914,-6.6953,-6.6953,-6.6992,-6.7031,-6.7031,-6.7031,-6.7031,-6.7031,-6.7031,-6.7031,-6.7031,-6.7031,-6.7031,0.0,0.0,0.0,0.0,0.0,0.0,0.0,0.0,0.0,0.0,0.0,0.0,0.0,-5.6164,-5.6463,-5.6399,-5.7505,-5.8319,-5.8686,-5.8782,-5.9095,-5.9701,-5.9104,-5.9104,-5.9747,-5.9205,-5.9228,-5.9848,-5.8456,-5.8119,-5.8711,-5.7265,-5.6601,-5.6601,-5.6601,-5.6601,-5.6601,-5.6601,-5.6601,-5.6719,-5.8164,-5.957,-6.0703,-5.9922,-6.0976,-6.2539,-5.9726,-5.8515,-5.8164,-5.7539,-5.6601,-5.5664,-5.5664,-5.5664,-5.5742,-5.6055,-5.6367,-5.6992,-5.8711,-5.9219,-5.9765,-6.207,-6.3476,-6.4453,-6.5078,-6.6094,-6.6914,-6.6914,-6.6914,-6.6914,-6.6914,-6.6914,-6.6914,-6.6914,-6.6914,-6.6914,-6.6914,-6.6914,-6.6914,-6.6914,-6.6914,-6.6914,-6.6914,-6.6914,-6.6914,-6.6914,-6.6914,-6.6914,-6.6914,-6.6914,-6.6914,-6.6914,-6.6914,-6.6914,-6.6914,-6.6914,-6.6914,-6.6914,-6.6914,-6.6914,-6.6914,-6.6914,-6.6914,-6.6914,-6.6914,-6.6914,-6.6914,-6.6914,-6.6914,-6.6914,-6.6914,-6.6914,-6.6914,-6.6914,-6.6914,-6.6914,0.0,0.0,0.0,0.0,0.0,-5.6291,-5.6291,-5.6291,-5.6291,-5.6291,0.0,0.0,0.0,0.0,-5.7602,-5.8139,-5.8762,-5.9255,-5.9506,-5.9558,-5.986,-6.0495,-5.9872,-5.971,-6.0116,-5.9576,-5.9416,-5.9747,-5.8367,-5.8014,-5.8668,-5.7222,-5.6561,-5.6601,-5.6601,-5.6601,-5.6601,-5.6601,-5.6601,-5.6797,-5.9101,-6.0351,-6.082,-6.0586,-6.1719,-6.3086,-6.0508,-5.9805,-6.0039,-6.0039,-5.9258,-5.8203,-5.7656,-5.707,-5.6601,-5.6601,-5.6601,-5.6836,-5.8008,-5.832,-5.875,-6.043,-6.1719,-6.289,-6.4023,-6.5195,-6.6172,-6.6797,-6.6914,-6.6914,-6.6914,-6.6914,-6.6914,-6.6914,-6.6914,-6.6914,-6.6914,-6.6914,-6.6914,-6.6914,-6.6914,-6.6914,-6.6914,-6.6914,-6.6914,-6.6914,-6.6914,-6.6914,-6.6914,-6.6914,-6.6914,-6.6914,-6.6914,-6.6914,-6.6914,-6.6914,-6.6914,-6.6914,-6.6914,-6.6914,-6.6914,-6.6914,-6.6914,-6.6914,-6.6914,-6.6914,-6.6914,-6.6914,-6.6914,-6.6914,-6.6914,-6.6914,-6.6914,-6.6914,-6.6914,-6.6914,0.0,0.0,-5.6291,-5.6291,-5.6291,-5.6291,-5.6291,-5.6291,-5.6291,-5.633,0.0,0.0,0.0,0.0,0.0,-5.9812,-6.0003,-6.0336,-6.105,-6.1213,-6.1303,-6.1303,-6.1139,-6.0743,-5.9975,-5.9975,-5.9516,-5.8668,-5.7936,-5.7641,-5.766,-5.6879,-5.6548,-5.6601,-5.6601,-5.6601,-5.6601,-5.6601,-5.6601,-5.6914,-6.0312,-6.0742,-5.9531,-6.207,-6.2539,-6.1758,-6.0859,-6.1015,-6.1719,-6.1758,-6.168,-6.1289,-5.9648,-5.7969,-5.6601,-5.6601,-5.6601,-5.6601,0.0,0.0,0.0,-5.8711,-5.914,-6.0078,-6.3398,-6.4219,-6.4765,-6.6484,-6.6875,-6.6914,-6.6914,-6.6914,-6.6914,-6.6914,-6.6914,-6.6914,-6.6914,-6.6914,-6.6914,-6.6914,-6.6914,-6.6914,-6.6914,-6.6914,-6.6914,-6.6914,-6.6914,-6.6914,-6.6914,-6.6914,-6.6914,-6.6914,-6.6914,-6.6914,-6.6914,-6.6914,-6.6914,-6.6914,-6.6914,-6.6914,-6.6914,-6.6914,-6.6914,-6.6914,-6.6914,-6.6914,-6.6914,-6.6914,-6.6914,-6.6914,-6.6914,-6.6914,-6.6914,-6.6914,-6.6914,-6.6914,0.0,-5.6291,-5.6291,-5.6291,-5.6291,-5.6291,-5.6291,-5.6291,-5.6524,0.0,0.0,0.0,-5.8296,-5.8875,-5.9627,-6.0692,-6.0777,-6.0863,-6.1079,-6.1125,-6.1161,-6.1161,-6.0565,-5.983,-5.8992,-5.8992,-5.8591,-5.782,-5.7573,-5.7537,-5.766,-5.6879,-5.6548,-5.6601,-5.6601,-5.6601,-5.6601,-5.6601,-5.6601,-5.6914,-6.0312,-6.1406,-6.1211,-6.3203,-6.457,-6.5273,-6.375,-6.2578,-6.1875,-6.3164,-6.1094,-5.793,-5.7461,-5.6992,-5.6601,-5.6601,-5.6601,-5.6601,-5.6601,0.0,0.0,0.0,0.0,0.0,-6.039,-6.2539,-6.4453,-6.4922,-6.6015,-6.6914,-6.6914,-6.6914,-6.6914,-6.6914,-6.6914,-6.6914,-6.6914,-6.6914,-6.6914,-6.6914,-6.6914,-6.6914,-6.6914,-6.6914,-6.6914,-6.6914,-6.6914,-6.6914,-6.6914,-6.6914,-6.6914,-6.6914,-6.6914,-6.6914,-6.6914,-6.6914,-6.6914,-6.6914,-6.6914,-6.6914,-6.6914,-6.6914,-6.6914,-6.6914,-6.6914,-6.6914,-6.6914,-6.6914,-6.6914,-6.6914,-6.6914,-6.6914,-6.6914,-6.6914,-6.6914,-6.6914,-5.6291,-5.6291,-5.6291,-5.6291,-5.6291,-5.6408,-5.6803,-5.6842,-5.7146,0.0,0.0,0.0,-5.9102,-5.9943,-6.0479,-6.0576,-6.0615,-6.046,-6.0074,-6.0383,-6.0615,-6.0615,-6.046,-5.9996,-5.9145,-5.8806,-5.8233,-5.7463,-5.7068,-5.7001,-5.7192,-5.6331,-5.6196,-5.6562,-5.6211,-5.625,-5.6601,-5.6601,-5.6601,-5.6914,-6.0312,-6.1289,-6.0898,-6.2969,-6.4139,-6.4604,-6.3984,-6.3319,-6.2962,-6.4765,-6.2422,-5.8711,-5.8711,-5.7734,-5.6601,-5.6558,-5.6556,-5.6555,-5.6504,-5.6462,-5.6504,-5.6554,0.0,0.0,-5.9876,-6.175,-6.3583,-6.4974,-6.6065,-6.6768,-6.6768,-6.6768,-6.6774,-6.6827,-6.6829,-6.6832,-6.6875,-6.6914,-6.6914,-6.6914,-6.6914,-6.6914,-6.6914,-6.6914,-6.6914,-6.6914,-6.6914,-6.6914,-6.6914,-6.6914,-6.6914,-6.6914,-6.6914,-6.6914,-6.6914,-6.6914,-6.6914,-6.6914,-6.6914,-6.6914,-6.6914,-6.6914,-6.6914,-6.6914,-6.6914,-6.6914,-6.6914,-6.6914,-6.6914,-6.6914,-6.6914,-6.6914,-6.6914,-6.6914,-6.6914,-6.6914,0.0,-5.6278,-5.6317,-5.6401,-5.6447,-5.6719,-5.7619,-5.7735,-5.8033,0.0,-5.8947,-5.9181,-5.9835,-6.0523,-6.0622,-5.9967,-5.9803,-5.9455,-5.8806,-5.9377,-5.9764,-5.9764,-6.0422,-6.0422,-5.9609,-5.8952,-5.8139,-5.7236,-5.6614,-5.6352,-5.6433,-5.5767,-5.5909,-5.6678,-5.5897,-5.5975,-5.6718,-5.664,-5.6757,-5.7265,-6.0234,-6.0624,-5.9726,-6.2186,-6.2719,-6.2259,-6.3116,-6.3696,-6.4292,-6.5773,-6.4373,-6.1872,-6.1522,-5.9412,-5.7065,-5.661,-5.6597,-5.6704,-5.6371,-5.6312,-5.6328,-5.647,-5.648,0.0,-6.0302,-6.1161,-6.2161,-6.5129,-6.5904,-6.602,-6.605,-6.6064,-6.6065,-6.6126,-6.6288,-6.654,-6.6835,-6.6914,-6.6914,-6.6914,-6.6914,-6.6914,-6.6914,-6.6914,-6.6914,-6.6914,-6.6914,-6.6914,-6.6914,-6.6914,-6.6914,-6.6914,-6.6914,-6.6914,-6.6914,-6.6914,-6.6914,-6.6914,-6.6914,-6.6914,-6.6914,-6.6914,-6.6914,-6.6914,-6.6914,-6.6914,-6.6914,-6.6914,-6.6914,-6.6914,-6.6914,-6.6914,-6.6914,-6.6914,-6.6914,-6.6914,-5.6062,-5.6118,-5.6357,-5.7063,-5.7268,-5.7619,-5.8428,-5.8583,-5.8881,-5.9731,-5.9746,-5.9727,-5.986,-5.9434,-5.9309,-5.9841,-5.9261,-5.9068,-5.9609,-5.9145,-5.8836,-5.8836,-5.899,-5.8681,-5.7821,-5.8333,-5.7848,-5.6256,-5.6837,-5.6784,-5.6286,-5.6747,-5.7123,-5.7404,-5.7248,-5.7281,-5.7436,-5.6774,-5.7707,-5.9575,-5.9546,-6.0171,-6.1336,-6.313,-6.4575,-6.5649,-6.5823,-6.5074,-6.3847,-6.2808,-6.2933,-6.3054,-6.0325,-5.9892,-5.9923,-5.7155,-5.7342,-5.8113,-5.6702,-5.6312,-5.6316,-5.6332,-5.6336,0.0,-5.7194,-5.8406,-5.9615,-6.0257,-6.1556,-6.2551,-6.2496,-6.2574,-6.2645,-6.2588,-6.3711,-6.5132,-6.6679,-6.6914,-6.6914,-6.6914,-6.6914,-6.6914,-6.6914,-6.6914,-6.6914,-6.6914,-6.6914,-6.6914,-6.6914,-6.6914,-6.6914,-6.6914,-6.6914,-6.6914,-6.6914,-6.6914,-6.6914,-6.6914,-6.6914,-6.6914,-6.6914,-6.6914,-6.6914,-6.6914,-6.6914,-6.6914,-6.6914,-6.6914,-6.6914,-6.6914,-6.6914,-6.6914,-6.6914,-6.6914,-6.6914,-6.6914,-5.6661,-5.7013,-5.7426,-5.786,-5.8009,-5.8351,-5.9157,-5.9351,-5.956,-5.994,-5.9938,-5.9904,-5.9916,-5.9511,-5.9416,-5.9841,-5.9106,-5.8806,-5.9223,-5.9261,-5.9261,-5.9261,-5.9609,-5.9648,-5.9223,-5.9223,-5.8841,-5.8002,-5.7994,-5.7843,-5.7548,-5.7503,-5.8192,-5.9406,-5.7702,-5.7689,-5.8776,-5.7106,-5.7145,-5.8471,-6.0182,-6.193,-6.3608,-6.5289,-6.6135,-6.651,-6.6574,-6.6044,-6.5143,-6.4281,-6.3156,-6.2031,-6.1593,-6.0541,-5.9246,-5.7876,-5.8126,-5.8426,-5.6621,-5.6136,-5.6155,-5.622,-5.623,0.0,0.0,-5.8176,-5.9021,-5.9847,-6.0708,-6.1355,-6.1298,-6.1345,-6.1417,-6.1422,-6.2859,-6.4037,-6.4244,-6.5733,-6.6781,-6.6759,-6.6829,-6.6874,-6.6827,-6.6873,-6.6914,-6.6914,-6.6914,-6.6914,-6.6914,-6.6914,-6.6874,-6.6788,-6.6787,-6.6787,-6.6787,-6.6768,-6.6768,-6.6787,-6.6787,-6.6777,-6.6756,-6.6779,-6.6787,-6.6787,-6.6787,-6.6832,-6.6914,-6.6914,-6.6914,-6.6914,-6.6914,-6.6914,-6.6914,-6.6914,-6.6914,-6.6875,-5.7496,-5.8017,-5.8528,-5.8683,-5.874,-5.9059,-5.991,-6.0136,-6.0162,-6.011,-6.011,-6.011,-6.0101,-6.0258,-6.0442,-6.0615,-5.9978,-5.9475,-5.9339,-5.9841,-6.0112,-6.0112,-6.0422,-6.077,-6.1079,-6.0151,-5.968,-5.9738,-5.9039,-5.8746,-5.8843,-5.8293,-5.9149,-6.1011,-5.8565,-5.8465,-5.996,-5.7873,-5.7405,-5.8306,-6.1647,-6.3423,-6.4249,-6.6067,-6.6379,-6.5934,-6.6368,-6.6522,-6.6444,-6.5944,-6.3492,-6.0845,-6.2085,-6.0639,-5.8437,-5.8065,-5.8527,-5.8699,-5.6588,-5.6012,-5.6046,-5.6139,-5.6174,-5.6523,0.0,0.0,0.0,-5.9869,-6.014,-6.0149,-6.0112,-6.0166,-6.0212,-6.0286,-6.1737,-6.2399,-6.1205,-6.3719,-6.5663,-6.5675,-6.6373,-6.6668,-6.6251,-6.6318,-6.6482,-6.683,-6.652,-6.6482,-6.683,-6.683,-6.6781,-6.6664,-6.6661,-6.6661,-6.6661,-6.6633,-6.6633,-6.6661,-6.6661,-6.667,-6.6595,-6.6674,-6.6661,-6.6661,-6.6661,-6.6727,-6.683,-6.683,-6.683,-6.683,-6.6874,-6.6875,-6.6873,-6.6873,-6.6833,-6.6827,-5.8198,-5.8322,-5.8654,-5.9436,-5.9621,-5.9948,-6.0809,-6.0973,-6.0944,-6.0797,-6.0838,-6.0848,-6.0797,-6.1471,-6.2313,-6.3207,-6.3068,-6.266,-6.1998,-6.135,-6.0963,-6.0963,-5.9609,-5.9571,-6.1079,-5.9532,-5.8738,-5.8755,-5.8678,-5.8609,-5.8665,-5.9323,-5.9788,-6.0136,-6.1212,-6.1065,-5.9996,-5.9685,-6.1349,-6.4093,-6.3804,-6.1977,-5.971,-6.2095,-6.3418,-6.4222,-6.5712,-6.6254,-6.5906,-6.3621,-6.2537,-6.153,-5.8007,-5.9168,-6.0979,-5.6549,-5.7895,-6.014,-5.6863,-5.6012,-5.6012,-5.6037,-5.6037,-5.6076,-5.627,0.0,-5.6338,-5.6553,0.0,-5.6728,-5.6618,0.0,0.0,-5.6777,-5.8188,-5.9205,-5.9044,-6.0696,-6.1982,-6.2219,-6.4866,-6.603,-6.4526,-6.4418,-6.5025,-6.6516,-6.525,-6.5064,-6.6555,-6.6629,-6.6624,-6.661,-6.661,-6.661,-6.661,-6.66,-6.66,-6.661,-6.661,-6.6605,-6.659,-6.6605,-6.661,-6.661,-6.661,-6.6619,-6.6629,-6.6629,-6.6629,-6.6646,-6.6827,-6.6831,-6.6727,-6.6727,-6.6694,-6.6624,-5.8204,-5.9122,-5.9733,-5.9628,-5.9622,-5.9577,-5.95,-5.9523,-5.9717,-6.0191,-6.0307,-6.0238,-6.0149,-6.0555,-6.152,-6.3329,-6.302,-6.2811,-6.3018,-6.271,-6.2084,-6.1147,-6.0422,-6.0383,-6.1079,-6.0422,-6.0035,-6.0035,-6.0035,-6.0035,-6.0074,-6.0422,-6.1157,-6.2133,-6.2317,-6.2587,-6.2861,-6.2358,-6.2388,-6.2853,-6.3473,-6.2271,-6.0597,-6.5093,-6.6417,-6.5915,-6.6147,-6.6185,-6.6031,-6.4986,-6.2627,-6.0383,-6.1543,-6.0112,-5.8062,-5.8372,-5.8681,-5.8479,-5.6515,-5.6747,-5.7288,-5.6244,-5.6747,-5.725,-5.6244,-5.6012,-5.6012,-5.6012,0.0,0.0,0.0,0.0,0.0,0.0,-5.7513,-5.832,-5.7359,-5.9514,-6.1235,-6.1461,-6.2329,-6.3059,-6.3355,-6.4294,-6.5322,-6.6522,-6.5507,-6.5361,-6.6561,-6.659,-6.6563,-6.6484,-6.6484,-6.6484,-6.6484,-6.64,-6.64,-6.6484,-6.6484,-6.6443,-6.6353,-6.6443,-6.6484,-6.6484,-6.6484,-6.6528,-6.659,-6.659,-6.659,-6.66,-6.6677,-6.6684,-6.6654,-6.6654,-6.6629,-6.6585,-5.7819,-5.9127,-5.9973,-5.9588,-5.9511,-5.9473,-5.9358,-5.9386,-5.9654,-6.0275,-6.0583,-6.0513,-5.9948,-6.0971,-6.2348,-6.3871,-6.4318,-6.4624,-6.4787,-6.4436,-6.3863,-6.3106,-6.1814,-6.1524,-6.2423,-6.1563,-6.1118,-6.1118,-6.1118,-6.1118,-6.1118,-6.1118,-6.1776,-6.2975,-6.282,-6.3478,-6.4609,-6.4222,-6.371,-6.3284,-6.4329,-6.4406,-6.4251,-6.7655,-6.8506,-6.7733,-6.6882,-6.6263,-6.576,-6.5083,-6.2375,-5.983,-6.2819,-6.0622,-5.7409,-6.0041,-5.9994,-5.8755,-5.7168,-5.768,-5.8222,-5.6471,-5.7005,-5.7577,-5.6338,-5.602,-5.6012,-5.6012,-5.6012,0.0,0.0,0.0,-5.6012,-5.6012,0.0,-5.7486,-5.6294,-5.8217,-5.9766,-5.9931,-5.9693,-6.0116,-6.1648,-6.2847,-6.4099,-6.5378,-6.4943,-6.5173,-6.6419,-6.6497,-6.6457,-6.6384,-6.6392,-6.6392,-6.6376,-6.6283,-6.6273,-6.6359,-6.6359,-6.629,-6.6195,-6.6299,-6.6359,-6.6359,-6.6359,-6.6392,-6.6491,-6.6491,-6.6491,-6.6491,-6.6491,-6.6491,-6.6497,-6.6534,-6.6522,-6.6478,-5.706,-5.7742,-5.8627,-5.9358,-5.9511,-6.005,-6.1716,-6.1985,-6.1937,-6.1851,-6.2605,-6.2526,-6.0776,-6.4216,-6.6406,-6.5782,-6.8622,-6.9784,-6.8231,-6.674,-6.6572,-6.8026,-6.3587,-6.2578,-6.5781,-6.2722,-6.1118,-6.1118,-6.1118,-6.1118,-6.1118,-6.1118,-6.1118,-6.1273,-6.2897,-6.3681,-6.3797,-6.4609,-6.634,-6.8468,-6.7694,-6.8816,-7.0634,-6.7501,-6.7346,-6.8661,-6.7771,-6.6417,-6.4648,-6.218,-6.1268,-6.0704,-5.8428,-5.9793,-6.1965,-6.0483,-6.1724,-6.2848,-5.9514,-5.8661,-5.8312,-5.6606,-5.618,-5.6156,-5.6117,-5.6037,-5.6012,-5.6012,-5.6012,-5.6012,-5.6012,-5.6012,-5.6012,-5.6012,-5.6051,0.0,0.0,-5.6089,-5.625,-5.6437,-5.707,-5.7851,-5.8836,-5.8919,-5.9936,-6.2432,-6.2602,-6.3635,-6.6061,-6.6254,-6.6322,-6.6312,-6.6358,-6.6367,-6.6312,-6.6303,-6.6284,-6.6195,-6.6195,-6.6195,-6.6185,-6.6195,-6.6195,-6.6195,-6.6195,-6.6195,-6.6205,-6.6205,-6.6205,-6.6205,-6.6205,-6.6205,-6.6235,-6.6376,-6.6334,-6.6205,-5.7742,-5.8088,-5.8396,-5.8665,-5.9165,-5.9704,-6.0281,-6.0323,-6.0914,-6.2592,-6.3066,-6.3438,-6.3975,-6.5346,-6.6551,-6.7316,-6.8496,-6.896,-6.8385,-6.6782,-6.6064,-6.6705,-6.302,-6.2032,-6.4304,-6.222,-6.1118,-6.1118,-6.1118,-6.1118,-6.1118,-6.1118,-6.1118,-6.1195,-6.2897,-6.4338,-6.545,-6.6882,-6.8003,-6.8777,-6.8468,-6.8893,-6.9589,-6.8932,-6.839,-6.781,-6.6989,-6.5616,-6.3999,-6.3193,-6.1815,-6.0669,-6.2034,-6.0957,-5.9568,-6.1848,-6.1926,-6.115,-6.0569,-6.1228,-6.1414,-5.8545,-5.8692,-5.8955,-5.666,-5.6149,-5.6133,-5.6133,-5.6117,-5.6062,-5.6133,-5.6046,-5.602,-5.6046,-5.6029,-5.6012,0.0,-5.6012,-5.563,-5.4624,-5.6239,-5.7075,-5.629,-5.8752,-6.098,-6.2331,-6.3581,-6.487,-6.6216,-6.6331,-6.6358,-6.6358,-6.6376,-6.6376,-6.6358,-6.6322,-6.6293,-6.6284,-6.6205,-6.6185,-6.6185,-6.6264,-6.6284,-6.6284,-6.6284,-6.6284,-6.6274,-6.6205,-6.6185,-6.6185,-6.6185,-6.6185,-6.6195,-6.6264,-6.6245,-6.6185,-5.8204,-5.855,-5.8742,-5.8742,-5.9396,-6.0089,-6.0358,-6.04,-6.1156,-6.3437,-6.3399,-6.3604,-6.4743,-6.541,-6.6064,-6.6772,-6.7763,-6.8188,-6.7854,-6.6537,-6.6012,-6.664,-6.3877,-6.3202,-6.5199,-6.3096,-6.1969,-6.1969,-6.1379,-6.1118,-6.1118,-6.1118,-6.1118,-6.1157,-6.2278,-6.4058,-6.6263,-6.7384,-6.8584,-6.9705,-6.9645,-6.948,-6.9286,-6.9767,-6.8756,-6.6989,-6.6477,-6.5189,-6.3705,-6.3469,-6.2291,-6.133,-6.3549,-6.2354,-6.0732,-6.3479,-6.3363,-6.2284,-6.2284,-6.3061,-6.3208,-6.0375,-6.0452,-6.0544,-5.7746,-5.7095,-5.7071,-5.7064,-5.6583,-5.649,-5.7746,-5.6939,-5.6256,-5.6892,-5.6458,-5.6054,0.0,-5.6029,-5.5528,-5.4178,-5.5201,-5.5754,-5.5036,-5.7133,-5.9623,-6.2297,-6.3293,-6.4535,-6.6224,-6.6376,-6.6403,-6.6403,-6.642,-6.642,-6.6403,-6.6376,-6.6349,-6.6331,-6.6303,-6.6284,-6.6284,-6.6322,-6.6331,-6.6331,-6.6331,-6.6331,-6.6331,-6.6293,-6.6284,-6.6284,-6.6225,-6.6254,-6.6215,-6.6195,-6.6185,-6.6185,-5.8434,-5.905,-5.955,-5.955,-6.0242,-6.1089,-6.1908,-6.205,-6.268,-6.4283,-6.3809,-6.3361,-6.3372,-6.4778,-6.5416,-6.4663,-6.6797,-6.7841,-6.6925,-6.6189,-6.6485,-6.805,-6.5948,-6.5827,-6.8205,-6.5141,-6.3531,-6.3531,-6.1882,-6.1099,-6.1099,-6.1099,-6.1099,-6.1099,-6.1099,-6.3004,-6.6175,-6.6175,-6.8148,-7.128,-7.1224,-7.066,-6.9849,-6.983,-6.8326,-6.6216,-6.6216,-6.5159,-6.3585,-6.2804,-6.2517,-6.2525,-6.2641,-6.3813,-6.5134,-6.5173,-6.5794,-6.6144,-6.4559,-6.4131,-6.3704,-6.1949,-6.1391,-6.0898,-5.9274,-5.8806,-5.8738,-5.8792,-5.7568,-5.7397,-6.0511,-5.8474,-5.6785,-5.8264,-5.7203,-5.6164,-5.6125,-5.6117,-5.5791,-5.4899,-5.4163,-5.403,-5.4901,-5.4239,-5.6203,-6.2057,-6.1772,-6.2814,-6.623,-6.6303,-6.6329,-6.6406,-6.6485,-6.6485,-6.6406,-6.6406,-6.6381,-6.6385,-6.6385,-6.6385,-6.6385,-6.6385,-6.6385,-6.6385,-6.6385,-6.6385,-6.6385,-6.6385,-6.6385,-6.6376,-6.6331,-6.6312,-6.6303,-6.6205,-6.6185,-6.6185,-6.0012,-6.0319,-6.0473,-6.0473,-6.0666,-6.0858,-6.1089,-6.163,-6.2643,-6.4372,-6.4911,-6.5628,-6.6922,-6.7422,-6.7614,-6.7384,-6.7947,-6.8254,-6.801,-6.6627,-6.6537,-6.8196,-6.5333,-6.4576,-6.6423,-6.3866,-6.2497,-6.2497,-6.1434,-6.0872,-6.0872,-6.0872,-6.0872,-6.0872,-6.0872,-6.2816,-6.6058,-6.5928,-6.7921,-7.1081,-7.1118,-6.9856,-6.8081,-6.8675,-6.7382,-6.5178,-6.5178,-6.4105,-6.254,-6.1774,-6.1483,-6.1608,-6.2275,-6.3175,-6.4143,-6.4792,-6.5606,-6.6187,-6.5761,-6.5644,-6.5218,-6.3466,-6.3013,-6.2568,-6.0875,-6.046,-6.0442,-6.047,-6.0103,-5.9678,-5.9396,-5.8596,-5.7735,-5.6931,-5.6466,-5.618,-5.6164,-5.6164,-5.5854,-5.4994,-5.5769,-5.552,-5.3242,-5.5653,-5.8001,-5.9607,-6.1881,-6.4131,-6.6273,-6.5266,-6.5173,-6.6415,-6.6501,-6.6501,-6.6454,-6.6422,-6.6398,-6.6389,-6.6394,-6.6385,-6.6385,-6.6411,-6.6389,-6.6389,-6.6389,-6.6389,-6.6389,-6.6394,-6.6385,-6.6385,-6.6367,-6.634,-6.6303,-6.6205,-6.6185,-6.6185,-6.0704,-6.0781,-6.0935,-6.1281,-6.1358,-6.1358,-6.1358,-6.1757,-6.2783,-6.4897,-6.5218,-6.6051,-6.8154,-6.8052,-6.7975,-6.8359,-6.8385,-6.8231,-6.7806,-6.6884,-6.6794,-6.7675,-6.5936,-6.559,-6.6923,-6.4831,-6.3546,-6.3176,-6.1982,-6.1162,-6.0781,-6.0781,-6.0781,-6.0781,-6.0781,-6.229,-6.4902,-6.6357,-6.809,-6.9939,-7.0349,-6.9437,0.0,-6.7909,-6.6842,-6.5207,-6.486,-6.3924,-6.2742,-6.1959,-6.1427,-6.1195,-6.166,-6.2636,-6.3719,-6.4174,-6.5218,-6.6185,-6.6185,-6.6185,-6.5953,-6.4986,-6.4675,-6.4219,-6.2559,-6.2181,-6.2161,-6.2211,-6.1573,-6.1225,-6.1842,-6.0083,-5.8011,-5.6427,-5.6156,-5.6187,-5.6202,-5.6209,-5.6008,-5.5528,-5.5954,-5.5552,-5.3623,-5.6614,-5.8692,-5.8746,-6.0546,-6.2261,-6.3596,-6.3502,-6.4022,-6.5382,-6.612,-6.6508,-6.6508,-6.6446,-6.6431,-6.6431,-6.6453,-6.6437,-6.6437,-6.6422,-6.6431,-6.6431,-6.6431,-6.6431,-6.6431,-6.6445,-6.6437,-6.6437,-6.642,-6.6385,-6.634,-6.6303,-6.6264,-6.6185,-6.0935,-6.105,-6.1358,-6.2127,-6.237,-6.2486,-6.2601,-6.2601,-6.3447,-6.5743,-6.5513,-6.5936,-6.8154,-6.7705,-6.759,-6.8321,-6.8385,-6.8064,-6.7228,-6.7256,-6.7256,-6.719,-6.7256,-6.7552,-6.8244,-6.6705,-6.5396,-6.4423,-6.2856,-6.1624,-6.0757,-6.0757,-6.0757,-6.0757,-6.0757,-6.1834,-6.3808,-6.7101,-6.8629,-6.8847,-6.9528,-6.9258,-6.8372,-6.7462,-6.659,-6.5782,-6.5051,-6.4232,-6.3438,-6.2626,-6.1776,-6.108,-6.1196,-6.2317,-6.3593,-6.3709,-6.4868,-6.6144,-6.6144,-6.6144,-6.6144,-6.6144,-6.6069,-6.5627,-6.4219,-6.3847,-6.3841,-6.391,-6.2722,-6.2547,-6.528,-6.1959,-5.8312,-5.6707,-5.6637,-5.6807,-5.6851,-5.6851,-5.6798,-5.6575,-5.6071,0.0,-5.4985,-5.7125,-5.8552,-5.8648,-5.875,-5.9333,-6.0565,-6.1847,-6.309,-6.4294,-6.5732,-6.6508,-6.6508,-6.6508,-6.6508,-6.6508,-6.6508,-6.6508,-6.6508,-6.6508,-6.6508,-6.6508,-6.6508,-6.6508,-6.6508,-6.6508,-6.6508,-6.6501,-6.6422,-6.6381,-6.6394,-6.6385,-6.6331,-6.6215,-6.1716,-6.2397,-6.2897,-6.3051,-6.3666,-6.4397,-6.5128,-6.5243,-6.5628,-6.6744,-6.7398,-6.7898,-6.8359,-6.8282,-6.8244,-6.8385,-6.8385,-6.8346,-6.8179,-6.8154,-6.8154,-6.8141,-6.8154,-6.7898,-6.7321,-6.632,-6.5026,-6.3438,-6.2427,-6.148,-6.0661,-6.0661,-6.0661,-6.0661,-6.0661,-6.2336,-6.5342,-6.7552,-6.922,-7.0382,-6.9898,-6.918,-6.8334,-6.7449,-6.659,-6.5859,-6.5743,-6.4653,-6.3226,-6.2429,-6.1582,-6.0965,-6.1697,-6.2583,-6.3495,-6.4188,-6.5163,-6.5933,-6.5933,-6.5933,-6.5933,-6.5933,-6.5909,-6.582,-6.5575,-6.5485,-6.5473,-6.5498,-6.5267,-6.4829,-6.41,-6.2151,-6.0121,-5.8529,-5.9396,-6.0326,-6.0414,-6.0399,-5.9879,-5.8505,-5.9444,-5.8799,-5.5333,-5.664,-5.7712,-5.7727,-5.8408,-6.013,-6.3168,-6.2235,-6.3012,-6.5965,-6.6353,-6.6508,-6.6508,-6.6508,-6.6508,-6.6508,-6.6508,-6.6508,-6.6508,-6.6508,-6.6508,-6.6508,-6.6508,-6.6508,-6.6508,-6.6508,-6.6508,-6.6501,-6.6422,-6.6398,-6.6389,-6.6394,-6.6367,-6.6349,-6.2627,-6.3051,-6.3589,-6.4474,-6.5013,-6.5859,-6.7628,-6.7859,-6.7859,-6.7782,-6.8129,-6.8577,-6.9013,-6.909,-6.9244,-6.9667,-6.9706,-6.9706,-6.9706,-6.9321,-6.909,-6.909,-6.8629,-6.8205,-6.7782,-6.691,-6.5615,-6.3886,-6.3002,-6.1889,-6.0585,-6.0585,-6.0585,-6.0661,-6.1505,-6.277,-6.4471,-6.723,-6.8819,-6.9495,-6.914,-6.8783,-6.8282,-6.6974,-6.6244,-6.5897,-6.5897,-6.5051,-6.3858,-6.3012,-6.2435,-6.2089,-6.2101,-6.2974,-6.4051,-6.4474,-6.5205,-6.5897,-6.5897,-6.5897,-6.5897,-6.5897,-6.5897,-6.5897,-6.5897,-6.5897,-6.5897,-6.5897,-6.5897,-6.5371,-6.37,-6.205,-6.071,-5.9968,-5.9804,-6.0112,-6.1112,-6.1267,-6.0965,-6.025,-6.007,-5.9216,-5.7158,-5.6925,-5.6893,-5.6893,-5.7683,-5.9283,-6.1847,-6.1186,-6.2119,-6.511,-6.6042,-6.6508,-6.6508,-6.6508,-6.6508,-6.6508,-6.6508,-6.6508,-6.6508,-6.6508,-6.6508,-6.6508,-6.6508,-6.6508,-6.6508,-6.6508,-6.6508,-6.6508,-6.6446,-6.6439,-6.6439,-6.6453,-6.6437,-6.6411,-6.382,-6.4012,-6.4589,-6.6167,-6.659,-6.7359,-6.9398,-6.986,-6.9706,-6.9013,-6.8936,-6.9206,-6.9898,-6.9975,-7.0206,-7.0821,-7.0898,-7.0898,-7.0898,-7.0321,-6.9975,-6.9975,-6.9321,-6.8859,-6.8667,-6.8013,-6.6718,-6.4782,-6.3937,-6.2606,-6.0891,-6.0738,-6.0738,-6.0968,-6.2478,-6.3437,-6.4141,-6.7074,-6.851,-6.8831,-6.8525,-6.8385,-6.8244,-6.6551,-6.5897,-6.5897,-6.609,-6.5705,-6.5013,-6.4359,-6.3743,-6.3243,-6.2781,-6.3551,-6.4628,-6.482,-6.5359,-6.5897,-6.5897,-6.5897,-6.5897,-6.5897,-6.5897,-6.5897,-6.5897,-6.5897,-6.5897,-6.5897,-6.5897,-6.5359,-6.3628,-6.2512,-6.179,-6.1516,-6.064,-6.0537,-6.2034,-6.2263,-6.2172,-6.1889,-6.0684,-5.9721,-5.9328,-5.8129,-5.7373,-5.7359,-5.7683,-5.8583,-6.0293,-6.037,-6.1497,-6.3906,-6.5265,-6.5965,-6.5965,-6.6314,-6.6508,-6.6508,-6.6508,-6.6508,-6.6508,-6.6508,-6.6508,-6.6508,-6.6508,-6.6508,-6.6508,-6.6508,-6.6508,-6.6508,-6.6508,-6.6508,-6.6508,-6.6508,-6.6485,-6.6414,-6.5513,-6.6244,-6.7051,-6.8013,-6.8821,-6.9436,-6.9667,-7.0321,-7.0744,-7.0667,-7.0667,-7.0706,-7.0783,-7.0783,-7.0821,-7.0898,-7.0898,-7.0898,-7.0898,-7.0821,-7.0783,-7.0783,-7.0706,-7.0321,-6.959,-6.9513,-6.8244,-6.5782,-6.4885,-6.3615,-6.1923,-6.1154,-6.1192,-6.2,-6.2872,-6.4564,-6.6808,-6.7923,-6.9269,-7.05,-6.9,-6.8385,-6.8244,-6.6551,-6.5897,-6.6013,-6.6744,-6.6936,-6.6859,-6.6782,-6.5205,-6.3423,-6.4128,-6.4474,-6.4743,-6.5551,-6.582,-6.5897,-6.5897,-6.5897,-6.5897,-6.5897,-6.5897,-6.5897,-6.5897,-6.5897,-6.5897,-6.5897,-6.5897,-6.5359,-6.3628,-6.4474,-6.4946,-6.3494,-6.4386,-6.5361,-6.5599,-6.5701,-6.5141,-6.3583,-6.3395,-6.2781,-6.1142,-6.0941,-6.0886,-6.0825,-5.952,-5.9438,-6.1179,-6.1296,-6.2119,-6.3945,-6.4139,-6.4216,-6.4216,-6.5732,-6.6508,-6.6508,-6.6508,-6.6508,-6.6508,-6.6508,-6.6508,-6.6508,-6.6508,-6.6508,-6.6508,-6.6508,-6.6508,-6.6508,-6.6508,-6.6508,-6.6508,-6.6508,-6.6508,-6.6501,-6.7321,-6.7667,-6.8167,-6.9052,-6.9475,-6.986,-7.036,-7.0706,-7.0898,-7.0898,-7.0898,-7.0898,-7.0898,-7.0898,-7.0898,-7.0898,-7.0898,-7.0898,-7.0898,-7.0898,-7.0898,-7.0898,-7.0898,-7.0744,-7.0437,-6.9937,-6.8936,-6.7398,-6.5513,-6.3974,-6.282,-6.1973,-6.2012,-6.2897,-6.4243,-6.5705,-6.7167,-6.859,-6.986,-7.0783,-6.9629,-6.9167,-6.9052,-6.7859,-6.7398,-6.7436,-6.7744,-6.7898,-6.7898,-6.7898,-6.6859,-6.5551,-6.5436,-6.5397,-6.5436,-6.5782,-6.5897,-6.5897,-6.5897,-6.5897,-6.5897,-6.5897,-6.5897,-6.5897,-6.5897,-6.5897,-6.5897,-6.5897,-6.5897,-6.5705,-6.4974,-6.4589,-6.4448,-6.4855,-6.4612,-6.479,-6.587,-6.6069,-6.587,-6.5216,-6.4329,-6.3437,-6.2712,-6.1772,-6.1199,-6.1173,-6.0591,-6.0569,-6.1314,-6.2277,-6.3193,-6.3983,-6.4993,-6.5498,-6.5498,-6.6159,-6.6508,-6.6508,-6.6508,-6.6508,-6.6508,-6.6508,-6.6508,-6.6508,-6.6508,-6.6508,-6.6508,-6.6508,-6.6508,-6.6508,-6.6508,-6.6508,-6.6508,-6.6508,-6.6508,-6.6508,-6.8744,-6.8783,-6.9052,-6.9898,-7.0052,-7.0244,-7.0821,-7.0898,-7.0898,-7.0898,-7.0898,-7.0898,-7.0898,-7.0898,-7.0898,-7.0898,-7.0898,-7.0898,-7.0898,-7.0898,-7.0898,-7.0898,-7.0898,-7.0898,-7.0898,-7.036,-6.9629,-6.8783,-6.6705,-6.5166,-6.4051,-6.2974,-6.2897,-6.3743,-6.5243,-6.6359,-6.7205,-6.8975,-7.0014,-7.0514,-6.9937,-6.9706,-6.959,-6.8744,-6.8385,-6.8423,-6.8706,-6.8783,-6.8821,-6.9052,-6.859,-6.7667,-6.659,-6.6244,-6.6205,-6.5974,-6.5897,-6.5897,-6.5897,-6.5897,-6.5897,-6.5897,-6.5897,-6.5897,-6.5897,-6.5897,-6.5897,-6.5897,-6.5897,-6.5897,-6.5897,-6.4897,-6.4474,-6.5705,-6.4859,-6.4499,-6.5789,-6.5978,-6.5831,-6.5385,-6.4327,-6.3613,-6.3583,-6.2559,-6.1863,-6.1823,-6.2327,-6.2421,-6.2,-6.3115,-6.3761,-6.3867,-6.504,-6.5661,-6.5661,-6.6165,-6.6406,-6.6431,-6.6431,-6.6446,-6.6508,-6.6508,-6.6508,-6.6508,-6.6508,-6.6508,-6.6508,-6.6508,-6.6508,-6.6508,-6.6508,-6.6508,-6.6508,-6.6508,-6.6508,-6.6508,-6.9513,-6.9667,-6.9937,-7.0744,-7.0898,-7.0898,-7.0898,-7.0898,-7.0898,-7.0898,-7.0898,-7.0898,-7.0898,-7.0898,-7.0898,-7.0898,-7.0898,-7.0898,-7.0898,-7.0898,-7.0898,-7.0898,-7.0898,-7.0898,-7.0898,-7.0898,-7.0475,-6.9667,-6.8783,-6.7513,-6.582,-6.4089,-6.3743,-6.4628,-6.5513,-6.6359,-6.7205,-6.8975,-6.9706,-6.9706,-6.9706,-6.9706,-6.959,-6.8744,-6.8385,-6.85,-6.9398,-6.9667,-6.9821,-7.0591,-7.0321,-6.936,-6.7628,-6.709,-6.6936,-6.6128,-6.5897,-6.5897,-6.5897,-6.5897,-6.5897,-6.5897,-6.5897,-6.5897,-6.5897,-6.5897,-6.5897,-6.5897,-6.5897,-6.5897,-6.5897,-6.5859,-6.5859,-6.5897,-6.5859,-6.5859,-6.5897,-6.597,-6.535,-6.3563,-6.3538,-6.3641,-6.3527,-6.3621,-6.3593,-6.3488,-6.501,-6.5247,-6.3661,-6.3584,-6.3584,-6.3594,-6.3632,-6.3632,-6.3632,-6.5334,-6.6245,-6.6308,-6.6308,-6.6351,-6.6508,-6.6508,-6.6508,-6.6508,-6.6508,-6.6508,-6.6508,-6.6508,-6.6508,-6.6508,-6.6508,-6.6508,-6.6508,-6.6508,-6.6508,-6.6508,-7.0475,-7.0514,-7.0591,-7.086,-7.0898,-7.0898,-7.0898,-7.0898,-7.0898,-7.0898,-7.0898,-7.0898,-7.0898,-7.0898,-7.0898,-7.0898,-7.0898,-7.0898,-7.0898,-7.0898,-7.0898,-7.0898,-7.0898,-7.0898,-7.0898,-7.0898,-7.0783,-7.0514,-6.909,-6.7552,-6.5859,-6.4705,-6.4666,-6.5513,-6.5782,-6.6359,-6.7167,-6.8321,-6.9167,-6.9744,-7.0283,-7.0514,-7.0475,-7.0206,-7.009,-7.0129,-7.0437,-7.0514,-7.0552,-7.0821,-7.0744,-7.0321,-6.9206,-6.8475,-6.7821,-6.6974,-6.6705,-6.659,-6.6051,-6.5897,-6.5897,-6.5897,-6.5897,-6.5897,-6.5897,-6.5897,-6.5897,-6.5897,-6.5897,-6.5897,-6.5897,-6.5897,-6.5897,-6.5897,-6.5897,-6.5897,-6.5897,-6.5935,-6.5716,-6.5128,-6.5163,-6.516,-6.5125,-6.5149,-6.4698,-6.3457,-6.388,-6.3465,-6.185,-6.3973,-6.4749,-6.3623,-6.4754,-6.5373,-6.5373,-6.5915,-6.6205,-6.6235,-6.6235,-6.6292,-6.6389,-6.6446,-6.6508,-6.6508,-6.6508,-6.6508,-6.6508,-6.6508,-6.6508,-6.6508,-6.6508,-6.6508,-6.6508,-6.6508,-6.6508,-6.6508,-7.0898,-7.0898,-7.0898,-7.0898,-7.0898,-7.0898,-7.0898,-7.0898,-7.0898,-7.0898,-7.0898,-7.0898,-7.0898,-7.0898,-7.0898,-7.0898,-7.0898,-7.0898,-7.0898,-7.0898,-7.0898,-7.0898,-7.0898,-7.0898,-7.0898,-7.0898,-7.0898,-7.0898,-6.9552,-6.8205,-6.6821,-6.5936,-6.5667,-6.5897,-6.5897,-6.6167,-6.6705,-6.7552,-6.8398,-6.9283,-7.0129,-7.0629,-7.0898,-7.0898,-7.0898,-7.0898,-7.0898,-7.0898,-7.0898,-7.0898,-7.0898,-7.0821,-7.0321,-6.9783,-6.9129,-6.7936,-6.759,-6.7398,-6.659,-6.6359,-6.6282,-6.5974,-6.5897,-6.5897,-6.5897,-6.5897,-6.5897,-6.5897,-6.5897,-6.5897,-6.5897,-6.5897,-6.5897,-6.5897,-6.5897,-6.5897,-6.5897,-6.5897,-6.5667,-6.5013,-6.4936,-6.4936,-6.4936,-6.4936,-6.4743,-6.432,-6.4282,-6.3844,-6.2848,-6.4159,-6.4822,-6.4464,-6.5517,-6.6097,-6.6097,-6.6097,-6.608,-6.6123,-6.6205,-6.6244,-6.6308,-6.6431,-6.6508,-6.6508,-6.6508,-6.6454,-6.6422,-6.6493,-6.6454,-6.6422,-6.6493,-6.6493,-6.6422,-6.6422,-6.6398,-6.6381,-7.0898,-7.0898,-7.0898,-7.0898,-7.0898,-7.0898,-7.0898,-7.0898,-7.0898,-7.0898,-7.0898,-7.0898,-7.0898,-7.0898,-7.0898,-7.0898,-7.0898,-7.0898,-7.0898,-7.0898,-7.0898,-7.0898,-7.0898,-7.0898,-7.0898,-7.0898,-7.0898,-7.0898,-7.009,-6.9244,-6.8385,-6.7513,-6.6667,-6.5897,-6.5897,-6.5897,-6.5936,-6.6744,-6.759,-6.8475,-6.936,-7.0167,-7.0898,-7.0898,-7.0898,-7.0898,-7.0898,-7.0898,-7.0898,-7.0898,-7.0898,-7.0898,-7.0898,-7.0898,-7.0591,-6.8975,-6.8513,-6.8321,-6.7436,-6.7167,-6.7013,-6.6205,-6.5936,-6.5897,-6.5897,-6.5897,-6.5897,-6.5897,-6.5897,-6.5897,-6.5897,-6.5897,-6.5897,-6.5897,-6.5897,-6.5897,-6.5897,-6.5897,-6.5282,-6.3666,-6.3462,-6.3462,-6.3462,-6.3462,-6.4089,-6.559,-6.5705,-6.5705,-6.5705,-6.4166,-6.4089,-6.582,-6.5897,-6.5897,-6.5897,-6.5897,-6.5921,-6.6001,-6.6187,-6.6281,-6.629,-6.6414,-6.6493,-6.6493,-6.6493,-6.6406,-6.6299,-6.6422,-6.6406,-6.6299,-6.6422,-6.6406,-6.629,-6.629,-6.6235,-6.6205,-7.0898,-7.0898,-7.0898,-7.0898,-7.0898,-7.0898,-7.0898,-7.0898,-7.0898,-7.0898,-7.0898,-7.0898,-7.0898,-7.0898,-7.0898,-7.0898,-7.0898,-7.0898,-7.0898,-7.0898,-7.0898,-7.0898,-7.0898,-7.0898,-7.0898,-7.0898,-7.0898,-7.0898,-7.009,-6.9244,-6.8385,-6.7513,-6.6667,-6.5897,-6.5897,-6.5897,-6.5936,-6.6744,-6.759,-6.8475,-6.936,-7.0167,-7.0898,-7.0898,-7.0898,-7.0898,-7.0898,-7.0898,-7.0898,-7.0898,-7.0898,-7.0898,-7.0898,-7.0898,-7.0706,-6.9706,-6.9398,-6.9206,-6.8321,-6.809,-6.7898,-6.7013,-6.6359,-6.5897,-6.5897,-6.5897,-6.5897,-6.5897,-6.5897,-6.5897,-6.5897,-6.5897,-6.5897,-6.5897,-6.5897,-6.5897,-6.5897,-6.5897,-6.5743,-6.532,-6.5282,-6.5282,-6.5282,-6.5282,-6.4897,-6.3974,-6.3935,-6.3935,-6.3935,-6.3512,-6.4089,-6.582,-6.5897,-6.5897,-6.5897,-6.5897,-6.5923,-6.5909,-6.6024,-6.6052,-6.6102,-6.6215,-6.6264,-6.6264,-6.6264,-6.6245,-6.6225,-6.6254,-6.6245,-6.6225,-6.6254,-6.6245,-6.6225,-6.6225,-6.6205,-6.6185,-7.0898,-7.0898,-7.0898,-7.0898,-7.0898,-7.0898,-7.0898,-7.0898,-7.0898,-7.0898,-7.0898,-7.0898,-7.0898,-7.0898,-7.0898,-7.0898,-7.0898,-7.0898,-7.0898,-7.0898,-7.0898,-7.0898,-7.0898,-7.0898,-7.0898,-7.0898,-7.0898,-7.0898,-7.0475,-6.9821,-6.8975,-6.809,-6.7244,-6.6436,-6.6051,-6.5897,-6.5936,-6.6359,-6.7051,-6.7898,-6.8744,-6.9629,-7.0398,-7.0744,-7.0898,-7.0898,-7.0898,-7.0898,-7.0898,-7.0898,-7.0898,-7.0898,-7.0898,-7.0898,-7.0821,-7.0398,-7.0244,-7.0052,-6.9206,-6.9013,-6.8783,-6.7898,-6.7051,-6.6436,-6.6436,-6.6167,-6.5897,-6.5897,-6.5897,-6.5897,-6.5897,-6.5897,-6.5897,-6.5897,-6.5243,-6.4974,-6.5782,-6.5205,-6.5013,-6.582,-6.5897,-6.5897,-6.5897,-6.5897,-6.5513,-6.4551,-6.4474,-6.4474,-6.4474,-6.4474,-6.4936,-6.5859,-6.5897,-6.5897,-6.5897,-6.5897,-6.5897,-6.5897,-6.5993,-6.6001,-6.6013,-6.6134,-6.6185,-6.6185,-6.6185,-6.6155,-6.6112,-6.6165,-6.6155,-6.6112,-6.6165,-6.6425,-6.6681,-6.6681,-6.6918,-6.7232,-7.1283,-7.1283,-7.1283,-7.1283,-7.1283,-7.1283,-7.1283,-7.1168,-7.1091,-7.1091,-7.0975,-7.0898,-7.0898,-7.0898,-7.0898,-7.0898,-7.0898,-7.0898,-7.0898,-7.0898,-7.0898,-7.0898,-7.0898,-7.0898,-7.0898,-7.0898,-7.0898,-7.0898,-7.0898,-7.0475,-6.9667,-6.8936,-6.8052,-6.7051,-6.6397,-6.6013,-6.5897,-6.5897,-6.6359,-6.7167,-6.7898,-6.8744,-6.959,-7.0398,-7.0706,-7.0744,-7.086,-7.0898,-7.0898,-7.0898,-7.0898,-7.0898,-7.0898,-7.0898,-7.0898,-7.0898,-7.0898,-7.0744,-7.0052,-6.9783,-6.9513,-6.8783,-6.7936,-6.7282,-6.7282,-6.6667,-6.609,-6.609,-6.5974,-6.5897,-6.5897,-6.5897,-6.582,-6.5551,-6.4474,-6.4128,-6.532,-6.4474,-6.4243,-6.5705,-6.5897,-6.5897,-6.5897,-6.5897,-6.5897,-6.5897,-6.5897,-6.5897,-6.5897,-6.5897,-6.5897,-6.5897,-6.5897,-6.5897,-6.5897,-6.5897,-6.5897,-6.5897,-6.597,-6.5978,-6.5978,-6.6091,-6.6134,-6.6134,-6.6134,-6.608,-6.599,-6.6091,-6.6157,-6.6183,-6.6295,-6.6803,-6.7482,-6.7482,-6.7872,-6.8411,-7.3091,-7.3091,-7.3091,-7.3091,-7.3091,-7.3091,-7.3091,-7.2476,-7.2014,-7.2014,-7.136,-7.0898,-7.0898,-7.0898,-7.0898,-7.0898,-7.0898,-7.0898,-7.0898,-7.0898,-7.0898,-7.0898,-7.0898,-7.0898,-7.0898,-7.0898,-7.0898,-7.0898,-7.0898,-7.0475,-6.9706,-6.9552,-6.8629,-6.709,-6.6974,-6.6551,-6.5897,-6.5897,-6.6359,-6.709,-6.7244,-6.7821,-6.8706,-6.9552,-6.9898,-6.9975,-7.0667,-7.0898,-7.0898,-7.0898,-7.0898,-7.0898,-7.0898,-7.0898,-7.0898,-7.0898,-7.0898,-7.086,-7.0744,-7.0206,-6.9667,-6.9513,-6.8859,-6.8205,-6.8205,-6.7513,-6.6898,-6.6898,-6.6359,-6.5897,-6.5897,-6.5897,-6.5436,-6.3935,-6.4705,-6.5089,-6.3858,-6.4743,-6.559,-6.5859,-6.5897,-6.5897,-6.5897,-6.5897,-6.5897,-6.5897,-6.5897,-6.5897,-6.5897,-6.5897,-6.5897,-6.5897,-6.5897,-6.5897,-6.5897,-6.5897,-6.5897,-6.5897,-6.5923,-6.5935,-6.5935,-6.5947,-6.596,-6.596,-6.596,-6.5909,-6.5935,-6.596,-6.6332,-6.6936,-6.6961,-6.7487,-6.8232,-6.8232,-6.8296,-6.8398,-7.3514,-7.3514,-7.3514,-7.3514,-7.3514,-7.3514,-7.3514,-7.3168,-7.2899,-7.2899,-7.2129,-7.1591,-7.1591,-7.1168,-7.0898,-7.0898,-7.0898,-7.0898,-7.0898,-7.0898,-7.0898,-7.0898,-7.0898,-7.0898,-7.0898,-7.0898,-7.0898,-7.0898,-7.0898,-7.0706,-7.036,-6.9898,-6.9283,-6.8475,-6.8013,-6.7321,-6.6551,-6.6551,-6.6513,-6.6474,-6.6936,-6.7321,-6.7782,-6.8667,-6.9013,-6.9129,-6.9937,-7.0244,-7.0321,-7.0744,-7.0898,-7.0898,-7.0898,-7.0898,-7.0898,-7.0898,-7.0898,-7.0898,-7.0898,-7.0629,-7.036,-7.036,-6.9706,-6.909,-6.909,-6.8436,-6.7782,-6.7782,-6.7128,-6.6551,-6.6551,-6.6205,-6.5628,-6.482,-6.4589,-6.4551,-6.4666,-6.4589,-6.4859,-6.5782,-6.5897,-6.5897,-6.5897,-6.5897,-6.5897,-6.5897,-6.5897,-6.5897,-6.5897,-6.5897,-6.5897,-6.5897,-6.5897,-6.5897,-6.5897,-6.5897,-6.5897,-6.5897,-6.5897,-6.5897,-6.5897,-6.5897,-6.5897,-6.5897,-6.5897,-6.6128,-6.6551,-6.6551,-6.7051,-6.7782,-6.7782,-6.8321,-6.909,-6.909,-6.936,-6.9744,-7.4091,-7.4091,-7.4091,-7.4091,-7.4091,-7.4091,-7.4091,-7.3899,-7.3783,-7.3783,-7.3014,-7.2437,-7.2206,-7.1591,-7.1129,-7.0937,-7.0898,-7.0898,-7.0898,-7.0898,-7.0898,-7.0898,-7.0898,-7.0898,-7.0898,-7.0898,-7.0898,-7.0898,-7.0898,-7.0898,-7.0898,-7.0283,-6.9898,-6.9667,-6.9013,-6.8205,-6.7398,-6.7398,-6.7051,-6.6513,-6.6936,-6.709,-6.7167,-6.7859,-6.809,-6.8205,-6.909,-6.9513,-6.9783,-7.0398,-7.0744,-7.0898,-7.0898,-7.0898,-7.0898,-7.0898,-7.0898,-7.0898,-7.0898,-7.0898,-7.0898,-7.0898,-7.0437,-6.9975,-6.9975,-6.9321,-6.8706,-6.8706,-6.8013,-6.7398,-6.7398,-6.6898,-6.6282,-6.5705,-6.4782,-6.4436,-6.5205,-6.4474,-6.4397,-6.5743,-6.5897,-6.5897,-6.5897,-6.5897,-6.5897,-6.5897,-6.5897,-6.5897,-6.5897,-6.5897,-6.5897,-6.5897,-6.5897,-6.5897,-6.5897,-6.5897,-6.5897,-6.5897,-6.5897,-6.5897,-6.5897,-6.609,-6.6167,-6.6205,-6.6397,-6.6821,-6.7398,-6.7398,-6.7936,-6.8706,-6.8706,-6.9244,-6.9975,-6.9975,-7.036,-7.0898,-7.5822,-7.5822,-7.5822,-7.5822,-7.5822,-7.5822,-7.5822,-7.513,-7.463,-7.463,-7.3899,-7.3091,-7.2283,-7.2129,-7.1783,-7.0975,-7.0898,-7.0898,-7.0898,-7.0898,-7.0898,-7.0898,-7.0898,-7.0898,-7.0898,-7.0898,-7.0898,-7.0898,-7.0898,-7.0898,-7.0898,-7.0821,-7.0398,-6.9706,-6.9629,-6.9129,-6.8321,-6.8321,-6.8282,-6.8167,-6.7398,-6.709,-6.709,-6.7167,-6.7205,-6.7321,-6.8167,-6.9013,-6.9706,-6.9783,-7.0283,-7.0898,-7.0898,-7.0898,-7.0898,-7.0898,-7.0898,-7.0898,-7.0898,-7.0898,-7.0898,-7.0898,-7.086,-7.0821,-7.0821,-7.0206,-6.959,-6.959,-6.8898,-6.8321,-6.8321,-6.8282,-6.7436,-6.5089,-6.5897,-6.6051,-6.382,-6.4782,-6.5743,-6.5859,-6.5897,-6.5897,-6.5897,-6.5897,-6.5897,-6.5897,-6.5897,-6.5897,-6.5897,-6.5897,-6.5897,-6.5897,-6.5897,-6.5897,-6.5897,-6.5897,-6.5897,-6.5897,-6.5897,-6.5897,-6.5936,-6.6667,-6.7013,-6.7051,-6.7859,-6.8244,-6.8321,-6.8321,-6.8821,-6.959,-6.959,-7.009,-7.0821,-7.0821,-7.086,-7.0898,-7.6015,-7.6015,-7.6015,-7.6015,-7.6015,-7.6015,-7.6015,-7.5707,-7.5515,-7.5515,-7.4784,-7.413,-7.3783,-7.2822,-7.2052,-7.1745,-7.1206,-7.0898,-7.0898,-7.0898,-7.0898,-7.0898,-7.0898,-7.0898,-7.0898,-7.0898,-7.0898,-7.0898,-7.0898,-7.0898,-7.0898,-7.0898,-7.0744,-7.0437,-7.0437,-6.9975,-6.9206,-6.9206,-6.8898,-6.8359,-6.8052,-6.7898,-6.7898,-6.7898,-6.7552,-6.7205,-6.809,-6.8282,-6.8167,-6.8706,-6.9475,-7.0167,-7.0167,-7.0514,-7.0898,-7.0898,-7.0898,-7.0898,-7.0898,-7.0898,-7.0898,-7.0898,-7.0898,-7.0898,-7.0898,-7.0667,-7.0437,-7.0437,-6.9783,-6.9206,-6.9206,-6.8783,-6.809,-6.7128,-6.7475,-6.759,-6.659,-6.7051,-6.7244,-6.6705,-6.6628,-6.6436,-6.5936,-6.5897,-6.5897,-6.5897,-6.5897,-6.5897,-6.5897,-6.5897,-6.6128,-6.6628,-6.6628,-6.6397,-6.5897,-6.5897,-6.6128,-6.6628,-6.6628,-6.6936,-6.7475,-6.7782,-6.7898,-6.7936,-6.8282,-6.8706,-6.9206,-6.9206,-6.9706,-7.0437,-7.0437,-7.0629,-7.0898,-7.0898,-7.0898,-7.0898,-7.6015,-7.6015,-7.6015,-7.6015,-7.6015,-7.6015,-7.6015,-7.6015,-7.6015,-7.6015,-7.5476,-7.5014,-7.4745,-7.3668,-7.2783,-7.2245,-7.1629,-7.1206,-7.0937,-7.0898,-7.0898,-7.0898,-7.0898,-7.0898,-7.0898,-7.0898,-7.0898,-7.0898,-7.0898,-7.0898,-7.0898,-7.0898,-7.0898,-7.0898,-7.0898,-7.0591,-7.009,-7.009,-6.9744,-6.9167,-6.8898,-6.8821,-6.8783,-6.85,-6.8013,-6.759,-6.8205,-6.8205,-6.7975,-6.8282,-6.8975,-6.9706,-6.9706,-7.0244,-7.0898,-7.0898,-7.0898,-7.0898,-7.0898,-7.0898,-7.0898,-7.0898,-7.0898,-7.0898,-7.0898,-7.0898,-7.0898,-7.0898,-7.0475,-7.009,-7.009,-6.959,-6.909,-6.8859,-6.8821,-6.8706,-6.8423,-6.8385,-6.8167,-6.759,-6.7513,-6.7282,-6.6744,-6.6705,-6.6705,-6.6705,-6.6705,-6.6705,-6.6705,-6.6705,-6.6936,-6.7475,-6.7513,-6.7244,-6.6705,-6.6705,-6.6974,-6.7513,-6.7513,-6.7821,-6.8398,-6.8667,-6.8821,-6.8821,-6.909,-6.9513,-7.009,-7.009,-7.0398,-7.0898,-7.0898,-7.0898,-7.0898,-7.0898,-7.0898,-7.0898,-7.6015,-7.6015,-7.6015,-7.6015,-7.6015,-7.6015,-7.6015,-7.6015,-7.6015,-7.6015,-7.6015,-7.5668,-7.4822,-7.4707,-7.4014,-7.236,-7.2206,-7.1822,-7.0975,-7.0898,-7.0898,-7.0898,-7.0898,-7.0898,-7.0898,-7.0898,-7.0898,-7.0898,-7.0898,-7.0898,-7.0898,-7.0898,-7.0898,-7.0898,-7.0898,-7.0898,-7.0898,-7.0898,-7.0898,-7.0821,-7.0014,-6.9706,-6.9629,-6.8744,-6.8436,-6.8398,-6.8398,-6.8975,-6.9552,-6.8706,-6.8975,-6.9706,-6.9706,-7.0244,-7.0898,-7.0898,-7.0898,-7.0898,-7.0898,-7.0898,-7.0898,-7.0898,-7.0898,-7.0898,-7.0898,-7.0898,-7.0898,-7.0898,-7.0898,-7.0898,-7.0898,-7.0898,-7.0629,-6.986,-6.9706,-6.9398,-6.8552,-6.8436,-6.8436,-6.8398,-6.8398,-6.8398,-6.8385,-6.8385,-6.8385,-6.8385,-6.8385,-6.8385,-6.8385,-6.8385,-6.8385,-6.8398,-6.8398,-6.8398,-6.8436,-6.8398,-6.8385,-6.8398,-6.8398,-6.8398,-6.8462,-6.9321,-6.9706,-6.9744,-7.0552,-7.0898,-7.0898,-7.0898,-7.0898,-7.0898,-7.0898,-7.0898,-7.0898,-7.0898,-7.0898,-7.0898,-7.6015,-7.6015,-7.6015,-7.6015,-7.6015,-7.6015,-7.6015,-7.6015,-7.6015,-7.6015,-7.6015,-7.5899,-7.563,-7.5091,-7.4514,-7.4014,-7.3437,-7.2745,-7.186,-7.1245,-7.0898,-7.0898,-7.0898,-7.0898,-7.0898,-7.0898,-7.0898,-7.0898,-7.0898,-7.0898,-7.0898,-7.0898,-7.0898,-7.0898,-7.0898,-7.0898,-7.0898,-7.0898,-7.0898,-7.0898,-7.0629,-7.0552,-7.0514,-7.0244,-6.9821,-6.9321,-6.9321,-6.909,-6.8744,-6.8513,-6.8975,-6.9821,-7.036,-7.0706,-7.0898,-7.0898,-7.0898,-7.0898,-7.0898,-7.0898,-7.0898,-7.0898,-7.0898,-7.0898,-7.0898,-7.0898,-7.0898,-7.0898,-7.0898,-7.0898,-7.0898,-7.0898,-7.0821,-7.0591,-7.0552,-7.0437,-7.0206,-7.0167,-6.9937,-6.9398,-6.9321,-6.909,-6.8462,-6.8385,-6.8385,-6.8385,-6.8385,-6.8385,-6.8385,-6.8385,-6.8667,-6.9283,-6.9321,-6.959,-7.0167,-6.9013,-6.8706,-6.9321,-6.9321,-6.9629,-7.0167,-7.0437,-7.0552,-7.0552,-7.0783,-7.0898,-7.0898,-7.0898,-7.0898,-7.0898,-7.0898,-7.0898,-7.0898,-7.0898,-7.0898,-7.0898,-7.6015,-7.6015,-7.6015,-7.6015,-7.6015,-7.6015,-7.6015,-7.6015,-7.6015,-7.6015,-7.6015,-7.6015,-7.6015,-7.5515,-7.5091,-7.4745,-7.3976,-7.3283,-7.2745,-7.2206,-7.1783,-7.1437,-7.1398,-7.1245,-7.0898,-7.0898,-7.0898,-7.0898,-7.0898,-7.0898,-7.0898,-7.0898,-7.0898,-7.0898,-7.0898,-7.0898,-7.0898,-7.0898,-7.0898,-7.0898,-7.0898,-7.0898,-7.0898,-7.0898,-7.0821,-7.0706,-7.0706,-7.0591,-7.036,-7.0014,-7.0244,-7.0783,-7.1245,-7.1668,-7.1937,-7.1937,-7.1668,-7.1398,-7.1398,-7.1168,-7.0898,-7.0898,-7.0898,-7.0898,-7.0898,-7.0898,-7.0898,-7.0898,-7.0898,-7.0898,-7.0898,-7.0898,-7.0898,-7.0898,-7.0898,-7.0898,-7.0898,-7.0898,-7.0706,-7.0244,-7.0167,-6.9975,-6.9436,-6.9398,-6.9398,-6.9398,-6.9398,-6.9398,-6.9398,-6.9398,-6.9629,-7.0167,-7.0167,-7.0398,-7.0898,-6.9898,-6.9667,-7.0167,-7.0167,-7.0437,-7.0898,-7.0898,-7.0898,-7.0898,-7.0898,-7.0898,-7.0898,-7.0898,-7.0898,-7.0898,-7.0898,-7.0898,-7.0898,-7.0898,-7.0898,-7.0898,-7.6015,-7.6015,-7.6015,-7.6015,-7.6015,-7.6015,-7.6015,-7.6015,-7.6015,-7.6015,-7.6015,-7.6015,-7.6015,-7.6015,-7.5668,-7.4899,-7.4091,-7.363,-7.363,-7.3538,-7.3168,-7.236,-7.2322,-7.1937,-7.1168,-7.0975,-7.0898,-7.0898,-7.0898,-7.0898,-7.0898,-7.0898,-7.0898,-7.0898,-7.0898,-7.0937,-7.1014,-7.1014,-7.1052,-7.1129,-7.1129,-7.1129,-7.1129,-7.1129,-7.1629,-7.2322,-7.2322,-7.2822,-7.3399,-7.2591,-7.2322,-7.2322,-7.2322,-7.286,-7.3514,-7.3514,-7.2937,-7.2322,-7.2322,-7.1668,-7.1014,-7.1014,-7.0975,-7.0898,-7.0898,-7.0898,-7.0898,-7.0898,-7.0898,-7.0898,-7.0898,-7.0898,-7.0898,-7.0898,-7.0898,-7.0898,-7.0898,-7.0898,-7.0898,-7.0898,-7.0898,-7.0898,-7.0898,-7.0898,-7.0898,-7.0898,-7.0898,-7.0898,-7.0898,-7.0898,-7.0898,-7.0898,-7.0898,-7.0898,-7.0898,-7.0898,-7.0898,-7.0898,-7.0898,-7.0898,-7.0898,-7.0898,-7.0898,-7.0898,-7.0898,-7.0898,-7.0898,-7.0898,-7.0898,-7.0898,-7.0898,-7.0898,-7.0898,-7.0898,-7.0898,-7.0898,-7.6015,-7.6015,-7.6015,-7.6015,-7.6015,-7.6015,-7.6015,-7.6015,-7.6015,-7.6015,-7.6015,-7.6015,-7.6015,-7.6015,-7.5938,-7.5745,-7.4938,-7.4437,-7.4437,-7.386,-7.3437,-7.3245,-7.3206,-7.3129,-7.2937,-7.1591,-7.0898,-7.0898,-7.0898,-7.0898,-7.0898,-7.0898,-7.0898,-7.0898,-7.0898,-7.1283,-7.1898,-7.1898,-7.2322,-7.2937,-7.2937,-7.2937,-7.2937,-7.2937,-7.3053,-7.3206,-7.3206,-7.336,-7.3476,-7.3283,-7.3206,-7.3206,-7.3206,-7.336,-7.3514,-7.3514,-7.336,-7.3206,-7.3206,-7.2591,-7.1898,-7.1898,-7.1398,-7.0898,-7.0898,-7.0898,-7.0898,-7.0898,-7.0898,-7.0898,-7.0898,-7.0898,-7.0898,-7.0898,-7.0898,-7.0898,-7.0898,-7.0898,-7.0898,-7.0898,-7.0898,-7.0898,-7.0898,-7.0898,-7.0898,-7.0898,-7.0898,-7.0898,-7.0898,-7.0898,-7.0898,-7.0898,-7.0898,-7.0898,-7.0898,-7.0898,-7.0898,-7.0898,-7.0898,-7.0898,-7.0898,-7.0898,-7.0898,-7.0898,-7.0898,-7.0898,-7.0898,-7.0898,-7.0898,-7.0898,-7.0898,-7.0898,-7.0898,-7.0898,-7.0898,-7.0898,-7.6015,-7.6015,-7.6015,-7.6015,-7.6015,-7.6015,-7.6015,-7.6015,-7.6015,-7.6015,-7.6015,-7.6015,-7.6015,-7.6015,-7.6015,-7.6015,-7.5592,-7.5322,-7.5322,-7.4938,-7.4514,-7.4091,-7.4091,-7.3899,-7.3514,-7.2629,-7.2129,-7.2129,-7.2129,-7.2129,-7.2129,-7.2129,-7.2129,-7.2129,-7.2129,-7.2399,-7.2822,-7.2822,-7.3091,-7.3514,-7.3514,-7.3514,-7.3514,-7.3514,-7.3745,-7.4091,-7.4091,-7.4361,-7.4707,-7.4707,-7.4707,-7.4707,-7.4707,-7.4707,-7.4707,-7.4707,-7.4399,-7.4091,-7.4091,-7.3476,-7.2822,-7.2822,-7.2476,-7.1937,-7.1091,-7.0898,-7.0898,-7.0898,-7.0898,-7.0898,-7.0898,-7.0898,-7.0898,-7.0898,-7.0898,-7.0898,-7.0898,-7.0898,-7.0898,-7.0898,-7.0898,-7.0898,-7.0898,-7.0898,-7.0898,-7.0898,-7.0898,-7.0898,-7.0898,-7.0898,-7.0898,-7.0898,-7.0898,-7.0898,-7.0898,-7.0898,-7.0898,-7.0898,-7.0898,-7.0898,-7.0898,-7.0898,-7.0898,-7.0898,-7.0898,-7.0898,-7.0898,-7.0898,-7.0898,-7.0898,-7.0898,-7.0898,-7.0898,-7.0898,-7.0898,-7.0898,-7.6015,-7.6015,-7.6015,-7.6015,-7.6015,-7.6015,-7.6015,-7.6015,-7.6015,-7.6015,-7.6015,-7.6015,-7.6015,-7.6015,-7.6015,-7.6015,-7.6015,-7.6015,-7.6015,-7.6015,-7.5668,-7.4938,-7.4938,-7.463,-7.3937,-7.3937,-7.3783,-7.3514,-7.3514,-7.3514,-7.3514,-7.3514,-7.3514,-7.3514,-7.3514,-7.3591,-7.3707,-7.3707,-7.3783,-7.3937,-7.3937,-7.3937,-7.3937,-7.3937,-7.4361,-7.4938,-7.4938,-7.5399,-7.6015,-7.6015,-7.6015,-7.6015,-7.6015,-7.6015,-7.6015,-7.6015,-7.5476,-7.4938,-7.4938,-7.4322,-7.3707,-7.3707,-7.3577,-7.3129,-7.1668,-7.1245,-7.1091,-7.0937,-7.0898,-7.0898,-7.0898,-7.0898,-7.0898,-7.0898,-7.0898,-7.0898,-7.0898,-7.0898,-7.0898,-7.0898,-7.0898,-7.0898,-7.0898,-7.0898,-7.0898,-7.0898,-7.0898,-7.0898,-7.0898,-7.0898,-7.0898,-7.0898,-7.0898,-7.0898,-7.0898,-7.0898,-7.0898,-7.0898,-7.0898,-7.0898,-7.0898,-7.0898,-7.0898,-7.0898,-7.0898,-7.0898,-7.0898,-7.0898,-7.0898,-7.0898,-7.0898,-7.0898,-7.0898,-7.0898,-7.0898,-7.0898,-7.6015,-7.6015,-7.6015,-7.6015,-7.6015,-7.6015,-7.6015,-7.6015,-7.6015,-7.6015,-7.6015,-7.6015,-7.6015,-7.6015,-7.6015,-7.6015,-7.6015,-7.6015,-7.6015,-7.6015,-7.5938,-7.5822,-7.5822,-7.5784,-7.5668,-7.5668,-7.4938,-7.3514,-7.3514,-7.3514,-7.3514,-7.3514,-7.3514,-7.3514,-7.3514,-7.3899,-7.4553,-7.4553,-7.4976,-7.5668,-7.5668,-7.5668,-7.5668,-7.5668,-7.5745,-7.5822,-7.5822,-7.5899,-7.6015,-7.6015,-7.6015,-7.6015,-7.6015,-7.6015,-7.6015,-7.6015,-7.5938,-7.5822,-7.5822,-7.5207,-7.4553,-7.4553,-7.4014,-7.3437,-7.3206,-7.2552,-7.1822,-7.1052,-7.0898,-7.0898,-7.0898,-7.0898,-7.0898,-7.0898,-7.0898,-7.0898,-7.0898,-7.0898,-7.0898,-7.0898,-7.0898,-7.0898,-7.0898,-7.0898,-7.0898,-7.0898,-7.0898,-7.0898,-7.0898,-7.0898,-7.0898,-7.0898,-7.0898,-7.0898,-7.0898,-7.0898,-7.0898,-7.0898,-7.0898,-7.0898,-7.0898,-7.0898,-7.0898,-7.0898,-7.0898,-7.0898,-7.0898,-7.0898,-7.0898,-7.0898,-7.0898,-7.0898,-7.0898,-7.0898,-7.0898,-7.0898,-7.6015,-7.6015,-7.6015,-7.6015,-7.6015,-7.6015,-7.6015,-7.6015,-7.6015,-7.6015,-7.6015,-7.6015,-7.6015,-7.6015,-7.6015,-7.6015,-7.6015,-7.6015,-7.6015,-7.6015,-7.6015,-7.6015,-7.6015,-7.6015,-7.6015,-7.6015,-7.563,-7.4899,-7.4899,-7.4899,-7.4899,-7.4899,-7.4899,-7.4899,-7.4899,-7.5091,-7.5438,-7.5438,-7.5668,-7.6015,-7.6015,-7.6015,-7.6015,-7.6015,-7.6015,-7.6015,-7.6015,-7.6015,-7.6015,-7.6015,-7.6015,-7.6015,-7.6015,-7.6015,-7.6015,-7.6015,-7.6015,-7.6015,-7.6015,-7.5707,-7.5438,-7.5438,-7.5168,-7.4784,-7.4284,-7.386,-7.336,-7.2514,-7.1975,-7.1629,-7.1629,-7.1245,-7.0898,-7.0898,-7.0898,-7.0898,-7.0898,-7.0898,-7.0898,-7.0898,-7.0898,-7.0898,-7.0898,-7.0898,-7.0898,-7.0898,-7.0898,-7.0898,-7.0898,-7.0898,-7.0898,-7.0898,-7.0898,-7.0898,-7.0898,-7.0898,-7.0898,-7.0898,-7.0898,-7.0898,-7.0898,-7.0898,-7.0898,-7.0898,-7.0898,-7.0898,-7.0898,-7.0898,-7.0898,-7.0898,-7.0898,-7.0898,-7.0898,-7.0898,-7.0898,-7.0898]},{"header":{"parameterUnit":"m.s-1","parameterCategory":1,"la1":30.6,"la2":28.766,"lo1":-90.7593,"lo2":-88.6598,"dy":0.0162,"dx":0.0183,"nx":116,"ny":114,"refTime":"2024-05-04T06:00:00:Z","depth":0,"parameterNumber":3,"parameterNumberName":"V-component_of_WINDS"},"data":[0.0,0.0,0.0,0.0,0.0,0.0,0.0,0.0,0.0,0.0,0.0,0.0,0.0,0.0,0.0,0.0,0.0,0.0,0.0,0.0,0.0,0.0,0.0,0.0,0.0,0.0,0.0,0.0,0.0,0.0,0.0,0.0,0.0,0.0,0.0,0.0,0.0,0.0,0.0,0.0,0.0,0.0,0.0,0.0,0.0,0.0,0.0,0.0,0.0,0.0,0.0,0.0,0.0,0.0,0.0,0.0,0.0,0.0,0.0,0.0,0.0,0.0,0.0,0.0,0.0,0.0,0.0,0.0,0.0,0.0,0.0,0.0,0.0,0.0,0.0,0.0,0.0,0.0,0.0,0.0,0.0,0.0,0.0,0.0,0.0,0.0,0.0,0.0,0.0,0.0,0.0,0.0,0.0,0.0,0.0,0.0,0.0,0.0,0.0,0.0,0.0,0.0,0.0,0.0,0.0,0.0,0.0,0.0,0.0,0.0,0.0,0.0,0.0,0.0,0.0,0.0,0.0,0.0,0.0,0.0,0.0,0.0,0.0,0.0,0.0,0.0,0.0,0.0,0.0,0.0,0.0,0.0,0.0,0.0,0.0,0.0,0.0,0.0,0.0,0.0,0.0,0.0,0.0,0.0,0.0,0.0,0.0,0.0,0.0,0.0,0.0,0.0,0.0,0.0,0.0,0.0,0.0,0.0,0.0,0.0,0.0,0.0,0.0,0.0,0.0,0.0,0.0,0.0,0.0,0.0,0.0,0.0,0.0,0.0,0.0,0.0,0.0,0.0,0.0,0.0,0.0,0.0,0.0,0.0,0.0,0.0,0.0,0.0,0.0,0.0,0.0,0.0,0.0,0.0,0.0,0.0,0.0,0.0,0.0,0.0,0.0,0.0,0.0,0.0,0.0,0.0,0.0,0.0,0.0,0.0,0.0,0.0,0.0,0.0,0.0,0.0,0.0,0.0,0.0,0.0,0.0,0.0,0.0,0.0,0.0,0.0,0.0,0.0,0.0,0.0,0.0,0.0,0.0,0.0,0.0,0.0,0.0,0.0,0.0,0.0,0.0,0.0,0.0,0.0,0.0,0.0,0.0,0.0,0.0,0.0,0.0,0.0,0.0,0.0,0.0,0.0,0.0,0.0,0.0,0.0,0.0,0.0,0.0,0.0,0.0,0.0,0.0,0.0,0.0,0.0,0.0,0.0,0.0,0.0,0.0,0.0,0.0,0.0,0.0,0.0,0.0,0.0,0.0,0.0,0.0,0.0,0.0,0.0,0.0,0.0,0.0,0.0,0.0,0.0,0.0,0.0,0.0,0.0,0.0,0.0,0.0,0.0,0.0,0.0,0.0,0.0,0.0,0.0,0.0,0.0,0.0,0.0,0.0,0.0,0.0,0.0,0.0,0.0,0.0,0.0,0.0,0.0,0.0,0.0,0.0,0.0,0.0,0.0,0.0,0.0,0.0,0.0,0.0,0.0,0.0,0.0,0.0,0.0,0.0,0.0,0.0,0.0,0.0,0.0,0.0,0.0,0.0,0.0,0.0,0.0,0.0,0.0,0.0,0.0,0.0,0.0,0.0,0.0,0.0,0.0,0.0,0.0,0.0,0.0,0.0,0.0,0.0,0.0,0.0,0.0,0.0,0.0,0.0,0.0,0.0,0.0,0.0,0.0,0.0,0.0,0.0,0.0,0.0,0.0,0.0,0.0,0.0,0.0,0.0,0.0,0.0,0.0,0.0,0.0,0.0,0.0,0.0,0.0,0.0,0.0,0.0,0.0,0.0,0.0,0.0,0.0,0.0,0.0,0.0,0.0,0.0,0.0,0.0,0.0,0.0,0.0,0.0,0.0,0.0,0.0,0.0,0.0,0.0,0.0,0.0,0.0,0.0,0.0,0.0,0.0,0.0,0.0,0.0,0.0,0.0,0.0,0.0,0.0,0.0,0.0,0.0,0.0,0.0,0.0,0.0,0.0,0.0,0.0,0.0,0.0,0.0,0.0,0.0,0.0,0.0,0.0,0.0,0.0,0.0,0.0,0.0,0.0,0.0,0.0,0.0,0.0,0.0,0.0,0.0,0.0,0.0,0.0,0.0,0.0,0.0,0.0,0.0,0.0,0.0,0.0,0.0,0.0,0.0,0.0,0.0,0.0,0.0,0.0,0.0,0.0,0.0,0.0,0.0,0.0,0.0,0.0,0.0,0.0,0.0,0.0,0.0,0.0,0.0,0.0,0.0,0.0,0.0,0.0,0.0,0.0,0.0,0.0,0.0,0.0,0.0,0.0,0.0,0.0,0.0,0.0,0.0,0.0,0.0,0.0,0.0,0.0,0.0,0.0,0.0,0.0,0.0,0.0,0.0,0.0,0.0,0.0,0.0,0.0,0.0,0.0,0.0,0.0,0.0,0.0,0.0,0.0,0.0,0.0,0.0,0.0,0.0,0.0,0.0,0.0,0.0,0.0,0.0,0.0,0.0,0.0,0.0,0.0,0.0,0.0,0.0,0.0,0.0,0.0,0.0,0.0,0.0,0.0,0.0,0.0,0.0,0.0,0.0,0.0,0.0,0.0,0.0,0.0,0.0,0.0,0.0,0.0,0.0,0.0,0.0,0.0,0.0,0.0,0.0,0.0,0.0,0.0,0.0,0.0,0.0,0.0,0.0,0.0,0.0,0.0,0.0,0.0,0.0,0.0,0.0,0.0,0.0,0.0,0.0,0.0,0.0,0.0,0.0,0.0,0.0,0.0,0.0,0.0,0.0,0.0,0.0,0.0,0.0,0.0,0.0,0.0,0.0,0.0,0.0,0.0,0.0,0.0,0.0,0.0,0.0,0.0,0.0,0.0,0.0,0.0,0.0,0.0,0.0,0.0,0.0,0.0,0.0,0.0,0.0,0.0,0.0,0.0,0.0,0.0,0.0,0.0,0.0,0.0,0.0,0.0,0.0,0.0,0.0,0.0,0.0,0.0,0.0,0.0,0.0,0.0,0.0,0.0,0.0,0.0,0.0,0.0,0.0,0.0,0.0,0.0,0.0,0.0,0.0,0.0,0.0,0.0,0.0,0.0,0.0,0.0,0.0,0.0,0.0,0.0,0.0,0.0,0.0,0.0,0.0,0.0,0.0,0.0,0.0,0.0,0.0,0.0,0.0,0.0,0.0,0.0,0.0,0.0,0.0,0.0,0.0,0.0,0.0,0.0,0.0,0.0,0.0,0.0,0.0,0.0,0.0,0.0,0.0,0.0,0.0,0.0,0.0,0.0,0.0,0.0,0.0,0.0,0.0,0.0,0.0,0.0,0.0,0.0,0.0,0.0,0.0,0.0,0.0,0.0,0.0,0.0,0.0,0.0,0.0,0.0,0.0,0.0,0.0,0.0,0.0,0.0,0.0,0.0,0.0,0.0,0.0,0.0,0.0,0.0,0.0,0.0,0.0,0.0,0.0,0.0,0.0,0.0,0.0,0.0,0.0,0.0,0.0,0.0,0.0,0.0,0.0,0.0,0.0,0.0,0.0,0.0,0.0,0.0,0.0,0.0,0.0,0.0,0.0,0.0,0.0,0.0,0.0,0.0,0.0,0.0,0.0,0.0,0.0,0.0,0.0,0.0,0.0,0.0,0.0,0.0,0.0,0.0,0.0,0.0,0.0,0.0,0.0,0.0,0.0,0.0,0.0,0.0,0.0,0.0,0.0,0.0,0.0,0.0,0.0,0.0,0.0,0.0,0.0,0.0,0.0,0.0,0.0,0.0,0.0,0.0,0.0,0.0,0.0,0.0,0.0,0.0,0.0,0.0,0.0,0.0,0.0,0.0,0.0,0.0,0.0,0.0,0.0,0.0,0.0,0.0,0.0,0.0,0.0,0.0,0.0,0.0,0.0,0.0,0.0,0.0,0.0,0.0,0.0,0.0,0.0,0.0,0.0,0.0,0.0,0.0,0.0,0.0,0.0,0.0,0.0,0.0,0.0,0.0,0.0,0.0,0.0,0.0,0.0,0.0,0.0,0.0,0.0,0.0,0.0,0.0,0.0,0.0,0.0,0.0,0.0,0.0,0.0,0.0,0.0,0.0,0.0,0.0,0.0,0.0,0.0,0.0,0.0,0.0,0.0,0.0,0.0,0.0,0.0,0.0,0.0,0.0,0.0,0.0,0.0,0.0,0.0,0.0,0.0,0.0,0.0,0.0,0.0,0.0,0.0,0.0,0.0,0.0,0.0,0.0,0.0,0.0,0.0,0.0,0.0,0.0,0.0,0.0,0.0,0.0,0.0,0.0,0.0,0.0,0.0,0.0,0.0,0.0,0.0,0.0,0.0,0.0,0.0,0.0,0.0,0.0,0.0,0.0,0.0,0.0,0.0,0.0,0.0,0.0,0.0,0.0,0.0,0.0,0.0,0.0,0.0,0.0,0.0,0.0,0.0,0.0,0.0,0.0,0.0,0.0,0.0,0.0,0.0,0.0,0.0,0.0,0.0,0.0,0.0,0.0,0.0,0.0,0.0,0.0,0.0,0.0,0.0,0.0,0.0,0.0,0.0,0.0,0.0,0.0,0.0,0.0,0.0,0.0,0.0,0.0,0.0,0.0,0.0,0.0,0.0,0.0,0.0,0.0,0.0,0.0,0.0,0.0,0.0,0.0,0.0,0.0,0.0,0.0,0.0,0.0,0.0,0.0,0.0,0.0,0.0,0.0,0.0,0.0,0.0,0.0,0.0,0.0,0.0,0.0,0.0,0.0,0.0,0.0,0.0,0.0,0.0,0.0,0.0,0.0,0.0,0.0,0.0,0.0,0.0,0.0,0.0,0.0,0.0,0.0,0.0,0.0,0.0,0.0,0.0,0.0,0.0,0.0,0.0,0.0,0.0,0.0,0.0,0.0,0.0,0.0,0.0,0.0,0.0,0.0,0.0,0.0,0.0,0.0,0.0,0.0,0.0,0.0,0.0,0.0,0.0,0.0,0.0,0.0,0.0,0.0,0.0,0.0,0.0,0.0,0.0,0.0,0.0,0.0,0.0,0.0,0.0,0.0,0.0,0.0,0.0,0.0,0.0,0.0,0.0,0.0,0.0,0.0,0.0,0.0,0.0,0.0,0.0,0.0,0.0,0.0,0.0,0.0,0.0,0.0,0.0,0.0,0.0,0.0,0.0,0.0,0.0,0.0,0.0,0.0,0.0,0.0,0.0,0.0,0.0,0.0,0.0,0.0,0.0,0.0,0.0,0.0,0.0,0.0,0.0,0.0,0.0,0.0,0.0,0.0,0.0,0.0,0.0,0.0,0.0,0.0,0.0,0.0,0.0,0.0,0.0,0.0,0.0,0.0,0.0,0.0,0.0,0.0,0.0,0.0,0.0,0.0,0.0,0.0,0.0,0.0,0.0,0.0,0.0,0.0,0.0,0.0,0.0,0.0,0.0,0.0,0.0,0.0,0.0,0.0,0.0,0.0,0.0,0.0,0.0,0.0,0.0,0.0,0.0,0.0,0.0,0.0,0.0,0.0,0.0,0.0,0.0,0.0,0.0,0.0,0.0,0.0,0.0,0.0,0.0,0.0,0.0,0.0,0.0,0.0,0.0,0.0,0.0,0.0,0.0,0.0,0.0,0.0,0.0,0.0,0.0,0.0,0.0,0.0,0.0,0.0,0.0,0.0,0.0,0.0,0.0,0.0,0.0,0.0,0.0,0.0,0.0,0.0,0.0,0.0,0.0,0.0,0.0,0.0,0.0,0.0,0.0,0.0,0.0,0.0,0.0,0.0,0.0,0.0,0.0,0.0,0.0,0.0,0.0,0.0,0.0,0.0,0.0,0.0,0.0,0.0,0.0,0.0,0.0,0.0,0.0,0.0,0.0,0.0,0.0,0.0,0.0,0.0,0.0,0.0,0.0,0.0,0.0,0.0,0.0,0.0,0.0,0.0,0.0,0.0,0.0,0.0,0.0,0.0,0.0,0.0,0.0,0.0,0.0,0.0,0.0,0.0,0.0,0.0,0.0,0.0,0.0,0.0,0.0,0.0,0.0,0.0,0.0,0.0,0.0,0.0,0.0,0.0,0.0,0.0,0.0,0.0,0.0,0.0,0.0,0.0,0.0,0.0,0.0,0.0,0.0,0.0,0.0,0.0,-0.2515,-0.2487,0.0,0.0,0.0,0.0,0.0,0.0,0.0,0.0,0.0,0.0,0.0,0.0,0.0,0.0,0.0,0.0,0.0,0.0,0.0,0.0,0.0,0.0,0.0,-0.151,-0.2265,-0.3347,-0.3403,-0.3368,-0.3368,0.0,0.0,0.0,0.0,0.0,-0.3181,-0.3181,-0.3181,-0.3181,-0.3208,-0.3202,-0.3155,-0.3024,-0.3063,-0.3319,0.0,0.0,0.0,0.0,0.0,0.0,0.0,0.0,0.0,0.0,0.0,0.0,0.0,0.0,0.0,0.0,0.0,0.0,0.0,0.0,0.0,0.0,0.0,0.0,0.0,0.0,0.0,0.0,0.0,0.0,0.0,0.0,0.0,0.0,0.0,0.0,0.0,0.0,0.0,0.0,0.0,0.0,0.0,0.0,0.0,0.0,0.0,0.0,0.0,0.0,0.0,0.0,0.0,0.0,0.0,0.0,0.0,0.0,0.0,0.0,0.0,0.0,0.0,0.0,0.0,0.0,0.0,0.0,0.0,0.0,-0.3191,-0.33,0.0,0.0,0.0,0.0,0.0,0.0,0.0,0.0,0.0,0.0,0.0,0.0,0.0,0.0,0.0,0.0,0.0,0.0,0.0,0.0,0.0,0.2242,0.0212,-0.0159,-0.1113,-0.3183,-0.3341,-0.3305,-0.3305,-0.3208,0.0,0.0,0.0,-0.3181,-0.3181,-0.3181,-0.3184,-0.3195,-0.3267,-0.3168,-0.2944,-0.2623,-0.2762,-0.3192,-0.3186,0.0,0.0,0.0,0.0,0.0,0.0,0.0,0.0,0.0,0.0,0.0,0.0,0.0,0.0,0.0,0.0,0.0,0.0,0.0,0.0,0.0,0.0,0.0,0.0,0.0,0.0,0.0,0.0,0.0,0.0,0.0,0.0,0.0,0.0,0.0,0.0,0.0,0.0,0.0,0.0,0.0,0.0,0.0,0.0,0.0,0.0,0.0,0.0,0.0,0.0,0.0,0.0,0.0,0.0,0.0,0.0,0.0,0.0,0.0,0.0,0.0,0.0,0.0,-0.2852,-0.3051,-0.402,-0.3245,-0.2875,-0.2967,-0.4826,-0.4863,-0.3591,-0.4523,0.0,0.0,0.0,0.0,0.0,0.0,0.0,0.0,0.0,0.0,0.0,0.0,0.0,0.0,0.0,0.0,0.0,0.0,0.0,0.1296,0.0052,-0.0936,-0.1976,-0.3229,-0.3278,-0.3192,-0.3192,-0.3184,-0.3181,-0.3181,-0.3181,-0.3181,-0.3181,-0.3181,-0.3205,-0.3311,-0.3155,-0.2939,-0.2671,-0.2617,-0.2613,-0.2715,-0.2935,-0.299,-0.2947,0.0,0.0,0.0,0.0,0.0,0.0,0.0,0.0,0.0,0.0,0.0,0.0,0.0,0.0,0.0,0.0,0.0,0.0,0.0,0.0,0.0,0.0,0.0,0.0,0.0,0.0,0.0,0.0,0.0,0.0,0.0,0.0,0.0,0.0,0.0,0.0,0.0,0.0,0.0,0.0,0.0,-0.0059,0.0059,0.0,0.0,0.0,0.0,0.0,0.0,0.0,0.0,0.0,0.0,0.0,0.0,0.0,-0.0942,-0.0946,-0.1751,-0.2169,-0.2366,-0.3457,-0.4075,-0.4275,-0.5335,-0.5804,-0.5882,-0.6179,0.0,-0.2322,-0.2462,0.0,0.0,0.0,0.0,0.0,0.0,0.0,0.0,0.0,0.0,0.0,0.0,0.0,0.0,0.0,0.0,0.0,0.0,0.0,0.0,0.0,-0.1036,-0.2134,-0.3263,-0.3349,-0.3319,-0.3283,-0.3197,-0.3165,-0.313,-0.3245,-0.3243,-0.313,-0.3313,-0.3346,-0.3209,-0.2769,-0.2529,-0.2387,-0.2387,-0.2276,-0.2163,-0.2643,-0.2756,-0.2687,-0.3002,0.0,0.0,0.0,0.0,0.0,0.0,0.0,0.0,0.0,0.0,0.0,0.0,0.0,0.0,0.0,0.0,0.0,0.0,0.0,0.0,0.0,0.0,0.0,0.0,0.0,0.0,0.0,0.0,0.0,0.0,0.0,0.0,0.0,0.0,0.0,0.0,0.0,0.0,0.0,0.0291,0.0528,0.0523,0.0757,0.1042,0.0,0.0,0.0,0.0,0.0,0.0,0.0,0.0,0.0,0.1075,0.0446,0.0,-0.0393,-0.159,-0.2332,-0.2731,-0.4219,-0.5101,-0.5499,-0.6101,-0.6431,-0.6431,-0.6431,-0.5262,-0.3364,-0.3264,-0.3534,-0.3844,0.0,0.0,0.0,0.0,-0.3748,-0.3615,0.0,0.0,0.0,0.0,0.0,0.0,0.0,0.0,0.0,0.0,0.0,0.0,0.0103,-0.052,-0.1365,-0.2821,-0.2932,-0.3075,-0.3297,-0.3303,-0.3205,-0.3162,-0.3332,-0.3378,-0.3157,-0.3372,-0.326,-0.2846,-0.2527,-0.2272,-0.2188,-0.23,-0.2244,-0.2076,-0.2524,-0.2594,-0.2467,-0.279,-0.2868,-0.2819,0.0,0.0,0.0,0.0,0.0,0.0,0.0,0.0,0.0,0.0,0.0,0.0,0.0,0.0,0.0,0.0,0.0,0.0,0.0,0.0,0.0,0.0,0.0,0.0,0.0,0.0,0.0,0.0,0.0,0.0,0.0,0.0,0.0,0.0,0.0,0.0,0.0,0.0528,0.0829,0.087,0.1005,0.1244,0.0,0.0,0.0,0.0,0.0,0.0,0.1999,0.1999,0.1646,0.0781,0.0586,0.0066,-0.0807,-0.1748,-0.2554,-0.3224,-0.4699,-0.5566,-0.59,-0.6635,-0.6765,-0.6431,-0.6431,-0.5633,-0.4294,-0.4267,-0.4091,-0.3873,-0.3839,-0.4534,-0.5451,-0.4221,-0.3776,-0.3635,0.0,0.0,0.0,0.0,0.0,0.0,0.0,0.0,0.0,0.0,0.0,0.2434,0.0311,0.1,0.0744,-0.1491,-0.1704,-0.2183,-0.3302,-0.3403,-0.3401,-0.3398,-0.3542,-0.3534,-0.3395,-0.3188,-0.2837,-0.2242,-0.2557,-0.2522,-0.2188,-0.2524,-0.2694,-0.2638,-0.2694,-0.2499,-0.2239,-0.2512,-0.2596,-0.2549,-0.2822,0.0,0.0,0.0,0.0,0.0,0.0,0.0,0.0,0.0,0.0,0.0,0.0,0.0,0.0,0.0,0.0,0.0,0.0,0.0,0.0,0.0,0.0,0.0,0.0,0.0,0.0,0.0,0.0,0.0,0.0,0.0,0.0,0.0,0.0,0.0,0.0,0.0,0.0,0.0886,0.1225,0.0,0.0,0.0,0.0,0.1973,0.1975,0.2001,0.2121,0.2124,0.1499,0.0067,-0.0604,-0.1678,-0.3023,-0.2486,-0.2554,-0.3228,-0.4693,-0.5028,-0.4501,-0.724,-0.7702,-0.6431,-0.6431,-0.5633,-0.43,-0.4294,-0.419,-0.4068,-0.3876,-0.4642,-0.5596,-0.4281,-0.3791,-0.3677,0.0,0.0,0.0,0.0,0.0,0.3181,0.3181,0.2624,0.2026,0.1589,0.1343,0.0941,0.0053,-0.0269,-0.0815,-0.1649,-0.2421,-0.3069,-0.3415,-0.3433,-0.3376,-0.33,-0.3456,-0.3494,-0.3353,-0.3198,-0.2916,-0.2503,-0.263,-0.2638,-0.2526,-0.2891,-0.2906,-0.2792,-0.2996,-0.2943,-0.2635,-0.2861,-0.2916,-0.2871,-0.3014,-0.3072,0.0,0.0,0.0,0.0,0.0,0.0,0.0,0.0,0.0,0.0,0.0,0.0,0.0,0.0,0.0,0.0,0.0,0.0,0.0,0.0,0.0,0.0,0.0,0.0,0.0,0.0,0.0,0.0,0.0,0.0,0.0,0.0,0.0,0.0,0.0,0.0,0.0,0.1219,0.1441,0.0,0.1782,0.1941,0.1651,0.0698,0.1551,0.1706,0.0795,0.1657,0.1731,0.074,0.0942,0.0538,-0.0403,-0.1545,-0.2751,-0.3954,-0.6425,-0.795,-0.8558,-0.9642,-0.9777,-0.9227,-0.8272,-0.6969,-0.5566,-0.4702,-0.3754,-0.287,-0.2789,-0.3037,-0.3419,-0.2975,-0.2784,-0.2721,0.0,0.0,0.0,0.3181,0.3181,0.3078,0.2725,0.2068,0.1471,0.1085,0.0834,0.0635,0.0598,-0.0055,-0.0718,-0.1174,-0.2297,-0.3122,-0.3529,-0.3471,-0.3403,-0.3324,-0.3477,-0.3503,-0.3297,-0.3179,-0.3022,-0.2715,-0.2845,-0.2851,-0.2739,-0.3056,-0.307,-0.2838,-0.3164,-0.3178,-0.3056,-0.3222,-0.3228,-0.3029,-0.3124,-0.3184,-0.3275,0.0,0.0,0.0,0.0,0.0,0.0,0.0,0.0,0.0,0.0,0.0,0.0,0.0,0.0,0.0,0.0,0.0,0.0,0.0,0.0,0.0,0.0,0.0,0.0,0.0,0.0,0.0,0.0,0.0,0.0,0.0,0.0,0.0,0.0,0.1,0.1339,0.1612,0.1599,0.1683,0.2012,0.1996,0.1571,0.0719,0.1598,0.175,0.0807,0.1683,0.1754,0.0745,0.0677,0.0204,-0.0749,-0.2178,-0.3673,-0.5163,-0.7201,-0.8613,-0.9576,-1.006,-0.9992,-0.9433,-0.7912,-0.6728,-0.5712,-0.4224,-0.3071,-0.2184,-0.223,-0.2223,-0.2223,-0.2223,-0.2223,-0.2154,0.0,0.3181,0.3181,0.3181,0.3181,0.2826,0.1816,0.1613,0.1269,0.0259,0.1106,0.1822,0.1908,0.1829,0.1288,0.0112,-0.112,-0.2351,-0.3527,-0.3529,-0.3496,-0.3499,-0.3499,-0.342,-0.331,-0.3253,-0.3105,-0.2817,-0.3155,-0.3119,-0.2825,-0.3122,-0.3122,-0.2827,-0.3183,-0.33,-0.3303,-0.3656,-0.348,-0.2943,-0.3125,-0.3219,-0.3265,0.0,0.0,0.0,0.0,0.0,0.0,0.0,0.0,0.0,0.0,0.0,0.0,0.0,0.0,0.0,0.0,0.0,0.0,0.0,0.0,0.0,0.0,0.0,0.0,0.0,0.0,0.0,0.0,0.0,0.0,0.0,0.0,0.0,0.0931,0.1331,0.1662,0.1927,0.1758,0.1731,0.2007,0.1789,0.175,0.2087,0.2155,0.2157,0.2155,0.2157,0.1491,0.0069,-0.1509,-0.2967,-0.4335,-0.4544,-0.5315,-0.6786,-0.6844,-0.6913,-0.7061,-0.8457,-0.8318,-0.6922,-0.5384,-0.4686,-0.4547,-0.2943,-0.2245,-0.217,-0.218,-0.2224,-0.2224,-0.2223,-0.2223,-0.2087,0.3282,0.3181,0.3181,0.3181,0.3181,0.3078,0.2826,0.2118,0.1479,0.1211,0.1539,0.1831,0.1829,0.1005,0.0336,0.0056,-0.1903,-0.3233,-0.3523,-0.3504,-0.3515,-0.3561,-0.3561,-0.3482,-0.3322,-0.3543,-0.351,-0.3157,-0.3526,-0.3474,-0.3178,-0.3336,-0.3173,-0.2876,-0.3272,-0.3473,-0.3473,-0.3778,-0.3778,-0.3588,-0.3371,-0.3369,-0.3558,0.0,0.0,0.0,0.0,0.0,0.0,0.0,0.0,0.0,0.0,0.0,0.0,0.0,0.0,0.0,0.0,0.0,0.0,0.0,0.0,0.0,0.0,0.0,0.0,0.0,0.0,0.0,0.0,0.0,0.0,0.0,0.0695,0.0965,0.1084,0.1176,0.1327,0.1647,0.14,0.1275,0.1398,0.1273,0.0942,0.0269,0.1223,0.1503,0.0683,0.0551,0.0347,-0.007,-0.16,-0.2579,-0.2938,-0.4055,-0.5311,-0.6844,-0.7968,-0.9138,-1.0199,-1.055,-1.055,-1.0052,-0.8483,-0.7126,-0.6008,-0.4547,-0.3223,-0.2171,-0.2203,-0.2188,-0.2185,-0.223,-0.2223,-0.2087,0.3232,0.3181,0.3181,0.3181,0.3181,0.3027,0.2574,0.2017,0.1636,0.1696,0.1757,0.1997,0.2511,0.1008,0.0,0.0,-0.217,-0.3523,-0.3466,-0.3461,-0.3499,-0.3583,-0.361,-0.3613,-0.3531,-0.3734,-0.3747,-0.3569,-0.3771,-0.3605,-0.3183,-0.3212,-0.2982,-0.2558,-0.3073,-0.3271,-0.3332,-0.3704,-0.3889,-0.3884,-0.363,-0.3644,-0.379,-0.3587,-0.3614,-0.3698,-0.3673,-0.3662,-0.3662,-0.3377,0.0,0.0,0.0,0.0,0.0,0.0,0.0,0.0,0.0,0.0,0.0,0.0,0.0,0.0,0.0,0.0,0.0,0.0,0.0,0.0,0.0,0.0,0.0,0.0,0.0838,0.1116,0.1116,0.1199,0.1346,0.1414,0.1077,0.0943,0.1077,0.0947,0.0747,0.0475,0.1238,0.1456,0.097,0.0279,-0.007,-0.0071,-0.227,-0.3422,-0.3371,-0.5261,-0.6861,-0.8007,-0.9307,-1.051,-1.1674,-1.1674,-1.1633,-1.15,-0.9906,-0.8632,-0.7597,-0.5544,-0.4056,-0.3201,0.0,0.0,0.0,0.0,-0.1706,-0.1562,0.3232,0.3181,0.3181,0.3181,0.3181,0.2876,0.1917,0.1765,0.184,0.1961,0.197,0.2375,0.3463,0.1567,0.0168,0.0,-0.2038,-0.3312,-0.3425,-0.3428,-0.3485,-0.3602,-0.3668,-0.3728,-0.3788,-0.3842,-0.3869,-0.3869,-0.3863,-0.3517,-0.296,-0.296,-0.2592,-0.2038,-0.2716,-0.3022,-0.3022,-0.364,-0.3889,-0.3889,-0.3889,-0.3889,-0.3884,-0.3891,-0.3869,-0.3864,-0.3809,-0.3785,-0.372,-0.3187,0.0,0.0,0.0,0.0,0.0,0.0,0.0,0.0,0.0,0.0,0.0,0.0,0.0,0.0,0.0,0.0,0.0,0.0,0.0,0.0,0.0,0.0,0.0,0.0,0.0794,0.101,0.101,0.1279,0.1346,0.1077,0.0674,0.0607,0.0945,0.0683,0.0758,0.1516,0.1605,0.176,0.2114,0.0564,0.0,0.0,0.0,-0.5073,-0.5054,-0.729,-0.8835,-0.973,-1.041,-1.1239,-1.2135,-1.2135,-1.1986,-1.1784,-1.0381,-0.9652,-0.9112,-0.6195,-0.4735,-0.4283,-0.2697,-0.2108,-0.1965,-0.1262,-0.0975,-0.0758,0.3232,0.3181,0.3181,0.3181,0.3181,0.3128,0.2927,0.2876,0.2915,0.3077,0.3092,0.3239,0.3575,0.2297,0.1057,0.0165,-0.1203,-0.2453,-0.3425,-0.3526,-0.3608,-0.3728,-0.3852,-0.3853,-0.3855,-0.3865,-0.3809,-0.3564,-0.3574,-0.3271,-0.259,-0.259,-0.2407,-0.2038,-0.2716,-0.3022,-0.3022,-0.364,-0.3889,-0.3889,-0.3889,-0.3889,-0.3887,-0.3876,-0.3871,-0.3871,-0.386,-0.3886,-0.3842,-0.3722,-0.3331,-0.2882,-0.2756,-0.2306,0.0,0.0,0.0,0.0,0.0,0.0,0.0,0.0,0.0,0.0,0.0,0.0,0.0,0.0,0.0,0.0,0.0,0.0,0.0,0.0452,0.0595,0.0606,0.0606,0.0673,0.0673,0.0606,0.034,0.0137,0.0205,0.0139,0.028,0.0699,0.1062,0.1432,0.188,-0.0584,-0.1992,-0.1942,-0.5095,-0.684,-0.6785,-0.7327,-0.8234,-0.973,-0.988,0.0,-1.2135,-1.2135,-1.2047,-1.202,-1.1716,-1.0872,-0.9494,-0.7551,-0.5137,-0.2692,-0.1721,-0.1345,-0.1192,-0.0421,-0.014,0.0,0.3181,0.3181,0.3181,0.3181,0.3181,0.3181,0.3181,0.3181,0.3213,0.3354,0.3368,0.3401,0.3491,0.2405,0.1251,0.0162,-0.1563,-0.2815,-0.3439,-0.358,-0.3687,-0.3869,-0.3872,-0.3918,-0.3889,-0.3889,-0.3828,-0.3702,-0.3579,-0.3271,-0.2775,-0.259,-0.2346,-0.2038,-0.2531,-0.2837,-0.3022,-0.3517,-0.3766,-0.3889,-0.3889,-0.3889,-0.3889,-0.3889,-0.3889,-0.3889,-0.3889,-0.3871,-0.3905,-0.3905,-0.3719,-0.3469,-0.3384,-0.3047,-0.2452,0.0,0.0,0.0,0.0,0.0,0.0,0.0,0.0,0.0,0.0,0.0,0.0,0.0,0.0,0.0,0.0,0.0,0.0324,0.0461,0.0467,0.0471,0.0471,0.0339,0.0272,0.0272,0.0068,0.0,0.0,0.0,0.0142,0.0501,0.0942,0.1393,0.1782,-0.0896,-0.2402,-0.2416,-0.5625,-0.7325,-0.7325,-0.7833,-0.8621,-0.984,-1.0292,-1.1137,-1.2284,-1.2284,-1.201,-1.1566,-1.2025,-1.0995,-0.8815,-0.6369,-0.3936,-0.1618,-0.0438,-0.0434,-0.1001,0.0215,0.0641,0.0709,0.3181,0.3181,0.3181,0.3181,0.3181,0.3181,0.3181,0.3181,0.3203,0.3313,0.3322,0.3343,0.3406,0.2558,0.1436,0.0106,-0.208,-0.3452,-0.351,-0.364,-0.3763,-0.3872,-0.3924,-0.3889,-0.3889,-0.3828,-0.3766,-0.3704,-0.3455,-0.3147,-0.2899,-0.2652,-0.2406,-0.2224,-0.2529,-0.2837,-0.3147,-0.3455,-0.3704,-0.3889,-0.3889,-0.3889,-0.3889,-0.3889,-0.3889,-0.3889,-0.3889,-0.3895,-0.3905,-0.3905,-0.3943,-0.3981,-0.3938,-0.3633,-0.3137,-0.2249,-0.1639,0.0,0.0,0.0,0.0,0.0,0.0,0.0,0.0,0.0,0.0,0.0,0.0,0.0,0.0,0.0195,0.0393,0.0335,0.0337,0.0404,0.0338,0.0137,0.0,0.0,0.0,0.0,0.0,0.0,0.0145,0.0439,0.0963,0.135,0.1671,-0.0607,-0.2049,-0.2433,-0.5376,-0.7107,-0.7415,-0.8192,-0.8934,-0.9786,-1.0486,-1.134,-1.2269,-1.2114,-1.1741,-1.132,-1.1555,-1.0176,-0.7645,-0.4545,-0.2486,-0.1044,0.0597,0.0444,-0.0585,0.0875,0.1376,0.1437,0.3181,0.3181,0.3181,0.3181,0.3181,0.3181,0.3181,0.3181,0.3203,0.3313,0.3322,0.3343,0.3406,0.3305,0.2382,0.026,-0.2087,-0.3512,-0.3572,-0.3741,-0.3869,-0.3876,-0.3887,-0.3889,-0.3889,-0.364,-0.3394,-0.3086,-0.2775,-0.259,-0.2529,-0.2529,-0.2652,-0.2901,-0.3209,-0.3394,-0.3455,-0.3766,-0.3889,-0.3889,-0.3889,-0.3889,-0.3889,-0.3889,-0.3889,-0.3889,-0.3889,-0.3922,-0.3962,-0.3962,-0.4002,-0.4115,-0.4109,-0.401,-0.3635,-0.2431,-0.1971,-0.1645,-0.0341,0.0,0.0,0.0,0.0,0.0,0.0,0.0,0.0,0.0,0.0,0.0,0.0,0.0,-0.0067,-0.0336,-0.0135,-0.0068,-0.0342,-0.0137,0.0,0.0,0.0,0.0,0.0,0.0,0.0,0.0074,0.075,0.1216,0.1384,0.0307,-0.0926,-0.2418,-0.4296,-0.602,-0.7509,-0.7599,-0.8072,-0.8934,-0.9012,-0.9942,-1.1417,-1.0641,-1.1017,-1.2243,-1.0131,-0.8134,-0.6215,-0.368,-0.2058,-0.1058,0.0604,0.1124,0.1036,0.1903,0.2184,0.2183,0.3181,0.3181,0.3181,0.3181,0.3181,0.3181,0.3181,0.3181,0.3189,0.3213,0.3216,0.3227,0.3305,0.2168,0.1084,0.0155,-0.2161,-0.3559,-0.3586,-0.379,-0.3924,-0.3887,-0.3889,-0.3889,-0.3889,-0.364,-0.3517,-0.3517,-0.3022,-0.2899,-0.3086,-0.2899,-0.2837,-0.3022,-0.3147,-0.3332,-0.3517,-0.364,-0.3766,-0.3889,-0.3889,-0.3889,-0.3892,-0.374,-0.365,-0.3593,-0.3593,-0.373,0.0,-0.3787,-0.3836,-0.4074,-0.4074,-0.3825,-0.3352,-0.2351,-0.1798,-0.1272,-0.0244,0.0,0.0,0.0,0.0,0.0,0.0,0.0,0.0,0.0,0.0,0.0,0.0,0.0,0.0,0.0067,0.0203,0.0273,0.0137,0.0209,0.0283,0.0,0.0,0.0,0.0,0.0,0.0,0.0,0.0763,0.1308,0.1324,0.0467,-0.078,-0.2429,-0.4151,-0.5799,-0.7447,-0.7525,-0.7916,-0.8778,-0.8778,-0.9402,-1.0563,-1.0175,-1.0641,-1.1572,-0.7583,-0.6007,-0.5978,-0.1943,-0.0077,0.0306,0.1531,0.1975,0.1951,0.2223,0.2348,0.2333,0.3181,0.3181,0.3181,0.3181,0.3181,0.3181,0.3181,0.3181,0.3181,0.3181,0.3181,0.3181,0.3181,0.1562,0.0356,0.0052,-0.1888,-0.3226,-0.3608,-0.3793,-0.3855,-0.3887,-0.3889,-0.3889,-0.3889,-0.364,-0.3579,-0.3766,-0.3271,-0.3147,-0.3517,-0.3271,-0.3147,-0.3271,-0.3271,-0.3394,-0.3579,-0.3579,-0.3704,-0.3889,-0.3889,-0.3836,-0.3789,-0.3551,-0.3391,-0.3277,-0.3398,-0.357,-0.3746,-0.3666,-0.3777,-0.3948,-0.3823,-0.3452,-0.2931,-0.2028,-0.1309,-0.0666,-0.0125,0.0,0.0,0.0,0.0,0.0,0.0,0.0,0.0,0.0,0.0,0.0,0.0,0.0,0.0067,0.0202,0.034,0.0413,0.0345,0.0423,0.0358,0.0216,0.0073,0.0,0.0,0.0,0.0076,0.0154,0.0851,0.1323,0.1492,0.0942,-0.0314,-0.2429,-0.3681,-0.5327,-0.7447,-0.7525,-0.7838,-0.8466,-0.8466,-0.8856,-0.9708,-0.9864,-1.0097,-1.0008,-0.5949,-0.4542,-0.493,-0.0549,0.125,0.1318,0.2171,0.2463,0.2433,0.2412,0.2379,0.2343,0.3181,0.3181,0.3181,0.3181,0.3181,0.3181,0.3181,0.3181,0.3181,0.3181,0.3181,0.3181,0.3181,0.2219,0.1117,0.0,-0.116,-0.2397,-0.3608,-0.3739,-0.3828,-0.3884,-0.3889,-0.3889,-0.3889,-0.364,-0.3517,-0.3517,-0.3147,-0.3147,-0.3517,-0.3517,-0.364,-0.3889,-0.3889,-0.3889,-0.3889,-0.3889,-0.3889,-0.3889,-0.3889,-0.3738,-0.3522,-0.342,-0.3228,-0.302,-0.333,-0.342,-0.3437,-0.3801,-0.3902,-0.383,-0.3273,-0.3024,-0.2655,-0.1473,-0.0634,-0.0057,0.0,0.0,0.0,0.0,0.0,0.0,0.0,0.0,0.0,0.0,0.0,0.0,0.0,0.0,-0.0135,-0.0404,-0.0204,0.0,0.0,0.0,0.0144,0.051,0.0221,0.0,0.0,0.0,0.0154,0.054,0.1014,0.1492,0.1886,0.22,0.0942,-0.2429,-0.2585,-0.4151,-0.7447,-0.7525,-0.7525,-0.7525,-0.7525,-0.7994,-0.8856,-0.963,-0.9158,-0.7513,-0.5711,-0.4073,-0.2431,0.0235,0.1335,0.1413,0.2199,0.2495,0.2467,0.2466,0.2428,0.2372,0.3292,0.3361,0.3495,0.3537,0.3662,0.3732,0.3732,0.3581,0.3534,0.3732,0.3581,0.0,0.0,0.0,0.0,0.0,-0.1179,-0.2344,-0.3498,-0.3728,-0.3831,-0.3831,-0.3846,-0.3889,-0.3889,-0.364,-0.3579,-0.3766,-0.3455,-0.3455,-0.3766,-0.3766,-0.3828,-0.3889,-0.3889,-0.3889,-0.3889,-0.3889,-0.3787,-0.3633,-0.3633,-0.3436,-0.3171,-0.2921,-0.2676,-0.2596,0.0,-0.3137,-0.3277,-0.343,-0.3396,-0.3231,-0.305,-0.2375,-0.1524,-0.0631,-0.0172,0.0,0.0,0.0,0.0,0.0,0.0,0.0,0.0,0.0,0.0,0.0,0.0,0.0,0.0,0.0,0.0065,0.0132,0.0273,0.035,0.0355,0.0359,0.0364,0.0221,0.0075,0.0,0.0,0.0,0.0155,0.0546,0.1019,0.1493,0.1886,0.2278,0.1492,-0.0784,-0.1959,-0.3603,-0.5799,-0.6975,-0.7525,-0.7525,-0.7525,-0.7681,-0.7916,-0.8228,-0.7751,-0.657,-0.4933,-0.3212,-0.1488,0.0471,0.165,0.2121,0.2357,0.2352,0.2106,0.2089,0.1995,0.2051,0.0,0.3425,0.3566,0.3604,0.3681,0.0,0.0,0.0,0.0,0.0,0.0,0.0,0.0,0.0,0.0,0.0,0.0,-0.1891,-0.3413,-0.3654,-0.3733,-0.3736,-0.3812,-0.3853,-0.3853,-0.3693,-0.3693,-0.3853,-0.3714,-0.3725,-0.3886,-0.3868,-0.3889,-0.3889,-0.3889,-0.3889,-0.3887,-0.3927,-0.3804,-0.3574,-0.3451,-0.3246,-0.2913,-0.2562,-0.2332,0.0,-0.2489,-0.276,-0.3082,-0.3344,-0.3299,-0.3125,-0.2894,-0.2142,-0.127,-0.0796,-0.0692,-0.0654,-0.0434,-0.0382,-0.0325,-0.0067,0.0,0.0,0.0,0.0,0.0,0.0,0.0,0.0,0.0,0.0,0.0064,0.0261,0.0339,0.0419,0.0493,0.0428,0.0363,0.0223,0.0075,0.0,0.0,0.0,0.0156,0.0549,0.1021,0.1493,0.1886,0.2278,0.1728,0.0078,-0.1019,-0.2664,-0.5014,-0.6033,-0.6584,-0.6584,-0.6033,-0.5874,-0.6186,-0.5874,-0.5402,-0.4849,-0.3681,-0.2115,-0.047,0.0471,0.1336,0.2043,0.2043,0.1886,0.1648,0.1636,0.1626,0.1614,0.0,0.0,0.3414,0.0,0.0,0.0,0.0,0.0,0.0,0.0,0.0,0.0,0.0,0.0,0.0,0.0,0.0,0.0,-0.3339,-0.3529,-0.355,-0.3665,-0.3679,-0.3684,-0.3684,-0.3739,-0.3741,-0.3684,-0.3858,-0.3885,-0.3771,-0.3888,-0.3881,-0.3881,-0.3881,-0.3879,-0.3871,-0.388,-0.3823,-0.371,-0.3418,-0.3063,-0.2704,-0.2375,-0.2092,-0.1932,-0.2156,-0.2412,-0.2807,-0.3365,-0.3591,-0.3485,-0.2874,-0.2256,-0.1809,-0.1896,-0.1926,-0.1857,-0.127,-0.1097,-0.0846,-0.0201,0.0,0.0,0.0,0.0,0.0,0.0,0.0,0.0,0.0,0.0,0.0,0.0,0.0,0.0138,0.0483,0.0209,0.0143,0.0519,0.0226,0.0,0.0,0.0,0.0157,0.055,0.1021,0.1414,0.1886,0.22,0.1728,0.0157,0.0,-0.1569,-0.4706,-0.4865,-0.4865,-0.4863,-0.3294,-0.2977,-0.3675,-0.2897,-0.2506,-0.2348,-0.2038,-0.0942,0.0628,0.0157,0.055,0.1336,0.1336,0.1256,0.1256,0.1256,0.1248,0.1154,0.0,0.0,0.0,0.0,0.0,0.0,0.0,0.0,0.0,0.0,0.0,0.0,0.0,0.0,0.0,0.0,0.0,0.0,-0.2116,-0.306,-0.3559,-0.3542,-0.3673,-0.3747,-0.3747,-0.3819,-0.3819,-0.3747,-0.3836,-0.3844,-0.383,-0.3801,-0.3815,-0.3815,-0.3815,-0.379,-0.3749,-0.3779,-0.3546,-0.3065,-0.3041,-0.2678,-0.2119,-0.2053,-0.1909,-0.1873,-0.242,-0.2638,-0.2748,-0.3082,-0.3134,-0.2978,-0.2512,-0.2229,-0.211,-0.2119,-0.173,-0.1265,-0.1156,-0.072,-0.0267,-0.0067,0.0,0.0,0.0,0.0,0.0,0.0,0.0,0.0,0.0,0.0,0.0,0.0,0.0,0.0071,0.0144,0.0072,0.0073,0.015,0.0076,0.0,0.0,0.0,0.0079,0.0157,0.055,0.0942,0.1414,0.1571,0.157,0.1413,0.0238,-0.0715,-0.1271,-0.2483,-0.3123,-0.3097,-0.3017,-0.2924,-0.2819,-0.329,-0.2587,-0.1098,-0.1961,-0.102,0.1099,0.0314,0.055,0.1336,0.1336,0.1099,0.0785,0.0785,0.0784,0.0702,0.0,0.0,0.0,0.0,0.0,0.0,0.0,0.0,0.0,0.0,0.0,0.0,0.0,0.0,0.0,0.0,0.0,0.0,0.0,-0.2817,-0.3507,-0.3496,-0.3572,-0.3624,-0.3649,-0.3676,-0.3676,-0.3649,-0.3703,-0.3714,-0.3692,-0.3744,-0.3827,-0.3827,-0.3827,-0.3749,-0.3719,-0.3725,-0.354,0.0,0.0,-0.2547,-0.2171,-0.1955,-0.1824,-0.1851,-0.23,-0.2662,-0.2987,-0.332,-0.3376,-0.3312,-0.3043,-0.2944,-0.2903,-0.2612,-0.228,-0.1875,-0.1244,-0.0798,-0.0404,-0.0067,0.0,0.0,0.0,0.0,0.0,0.0,0.0,0.0,0.0,0.0,0.0,0.0,0.0,0.0,0.0,0.0,0.0,0.0,0.0,0.0,0.0,0.0,0.0,0.0,0.0393,0.0707,0.0942,0.1178,0.1417,0.1662,0.0717,0.0,-0.0563,-0.1457,-0.1943,-0.1931,-0.144,-0.1034,-0.0869,-0.1336,-0.0941,0.0157,-0.0706,-0.0314,0.0942,0.0236,0.0314,0.0707,0.0707,0.055,0.0314,0.0314,0.0314,0.0314,0.0,0.0,0.0,0.0,0.0,0.0,0.0,0.0,0.0,0.0,0.4653,0.4642,0.3624,0.4169,0.0,0.0,0.0,0.0,0.0,0.0,-0.3444,-0.3493,-0.3458,-0.3458,-0.3507,-0.3559,-0.3561,-0.3507,-0.3616,-0.364,-0.3589,-0.3695,-0.3744,-0.3744,-0.3744,-0.3741,-0.373,-0.3684,-0.3632,-0.3466,-0.2914,-0.2614,-0.2474,0.0,-0.1795,-0.1851,-0.2132,-0.275,-0.3433,-0.3788,-0.39,-0.3905,-0.3932,-0.3956,-0.3821,-0.3297,-0.3085,-0.2741,-0.1539,-0.1077,-0.0808,-0.0135,0.0,0.0,0.0,0.0,0.0,0.0,0.0,0.0,0.0,0.0,0.0,0.0,0.0,0.0,0.0,0.0,0.0,0.0,0.0,0.0,0.0,0.0,0.0,0.0,0.0314,0.055,0.055,0.0944,0.1189,0.1205,0.1286,0.0565,-0.098,-0.098,-0.0979,-0.0978,0.0484,0.1283,0.1279,0.1187,0.118,0.1178,0.0707,0.055,0.0471,0.0157,0.0,0.0,0.0,0.0,0.0,0.0,0.0,0.0,0.0,0.0,0.0,0.0,0.0,0.0,0.0,0.0,0.0,0.0,0.5263,0.4651,0.0,0.0,0.0,0.0,0.0,0.0,0.0,0.0,0.0,-0.3496,-0.3537,-0.3561,-0.3572,-0.358,-0.3583,-0.3572,-0.3594,-0.3597,-0.3589,-0.3608,-0.3619,-0.3619,-0.3619,-0.3591,-0.3545,-0.3586,-0.3458,-0.3136,-0.2845,-0.252,-0.2235,-0.1905,0.0,0.0,-0.2412,-0.3095,-0.3728,-0.3849,-0.3951,-0.4112,-0.4202,-0.4237,-0.4182,-0.4126,-0.3268,-0.2275,-0.2084,-0.1144,-0.0135,0.0,0.0,0.0,0.0,0.0,0.0,0.0,0.0,0.0,0.0,0.0,0.0,0.0,0.0,0.0,0.0,0.0,0.0,0.0,0.0,0.0,0.0,0.0,0.0,0.0,0.0079,0.0079,0.0079,0.0159,0.0402,0.0822,0.1152,0.1158,0.0836,0.0836,0.0833,0.0825,0.0824,0.0978,0.128,0.0558,0.0396,0.0707,0.0314,0.0079,0.0079,0.0,0.0,0.0,0.0,0.0,0.0,0.0,0.0,0.0,0.0,0.0,0.0,0.0,0.0,0.0,0.0,0.6342,0.6503,0.6497,0.6157,0.5728,0.5356,0.538,0.523,0.0,0.0,0.0,0.0,0.0,0.0,-0.3542,0.0,0.0,-0.3586,-0.3556,-0.354,-0.354,0.0,-0.3512,-0.354,-0.354,-0.3556,-0.3589,-0.3589,-0.3572,-0.3545,-0.3575,-0.3405,-0.3105,-0.2796,-0.2524,-0.2188,0.0,0.0,0.0,0.0,-0.3153,-0.3779,-0.3837,-0.3976,-0.4147,-0.427,-0.4308,-0.4241,-0.3835,-0.323,-0.2625,-0.2289,-0.1683,-0.1077,-0.0673,-0.0541,-0.047,-0.0064,0.0,0.0,0.0,0.0,0.0,0.0,0.0,0.0,0.0,0.0,0.0,0.0,0.0,0.0,0.0,0.0,0.0,0.0,0.0,0.0,0.0,0.0,0.0,0.0,0.0,0.0082,0.0331,0.05,0.0586,0.0589,0.0589,0.0588,0.0585,0.0415,0.041,0.0645,0.016,0.0079,0.0314,0.0079,0.0,0.0,0.0,0.0,0.0,0.0,0.0,0.0,0.0,0.0,0.0,0.0,0.0,0.0,0.0,0.0,0.0,0.6834,0.7002,0.7095,0.7093,0.7197,0.7143,0.6824,0.6619,0.6186,0.0,0.0,0.0,0.0,0.0,0.0,0.0,0.0,0.0,-0.3567,0.0,0.0,-0.3496,-0.3466,0.0,0.0,0.0,0.0,0.0,-0.3602,-0.36,-0.3589,-0.353,-0.3362,0.0,0.0,-0.2412,0.0,0.0,0.0,0.0,0.0,-0.3146,-0.3811,-0.3824,-0.3894,-0.4071,-0.4194,-0.4248,-0.4134,-0.3532,-0.3266,-0.307,-0.2554,-0.2293,-0.2028,-0.1488,-0.1229,-0.0949,-0.0379,-0.0125,0.0,0.0,0.0,0.0,0.0,0.0,0.0,0.0,0.0,0.0,0.0,0.0,0.0,0.0,0.0,0.0,0.0,0.0,0.0,0.0,0.0,0.0,0.0,0.0,0.0,0.0,0.0,0.0,0.0,0.0,0.0,0.0,0.0,0.0,0.0,0.0,0.0,0.0,0.0,0.0,0.0,0.0,0.0,0.0,0.0,0.0,0.0,0.0,0.0,0.0,0.0,0.0,0.0,0.0,0.0,0.0,0.8142,0.8345,0.8454,0.8348,0.8335,0.8401,0.8494,0.6828,0.5722,0.0,0.0,0.0,0.0,0.0,0.0,0.0,0.0,0.0,0.0,0.0,0.0,-0.3496,-0.3548,0.0,0.0,0.0,0.0,0.0,0.0,-0.364,-0.3586,-0.325,0.0,0.0,0.0,0.0,0.0,0.0,0.0,0.0,0.0,-0.3122,-0.3695,-0.3749,-0.3785,-0.3823,-0.3884,-0.3994,-0.4077,-0.4013,-0.356,-0.3126,-0.3139,-0.2648,-0.2192,-0.2124,-0.1663,-0.1169,-0.1088,-0.0505,0.0,0.0,0.0,0.0,0.0,0.0,0.0,0.0,0.0,0.0,0.0,0.0,0.0,0.0,0.0,0.0,0.0,0.0,0.0,0.0,0.0,0.0,0.0,0.0,0.0,0.0,0.0,0.0,0.0,0.0,0.0,0.0,0.0,0.0,0.0,0.0,0.0,0.0,0.0,0.0,0.0,0.0,0.0,0.0,0.0,0.0,0.0,0.0,0.0,0.0,0.0,0.0,0.0,0.0,0.0,0.0,0.852,0.8682,0.873,0.8397,0.8431,0.8472,0.8445,0.7464,0.6786,0.6639,0.3349,0.0,0.0,0.0,0.0,0.0,0.0,0.0,0.0,0.0,-0.348,-0.3447,-0.3471,0.0,0.0,0.0,0.0,0.0,0.0,-0.3529,-0.3306,-0.3138,0.0,0.0,0.0,0.0,0.0,0.0,0.0,0.0,0.0,0.0,-0.3676,-0.3662,-0.3709,-0.3766,-0.3739,-0.379,-0.3891,-0.4074,-0.3909,-0.3665,-0.3905,-0.3693,-0.3441,-0.3053,-0.2345,-0.1687,-0.1277,-0.056,0.0,0.0,0.0,0.0,0.0,0.0,0.0,0.0,0.0,0.0,0.0,0.0,0.0,0.0,0.0,0.0,0.0,0.0,0.0,0.0,0.0,0.0,0.0,0.0,0.0,0.0,0.0,0.0,0.0,0.0,0.0,0.0,0.0,0.0,0.0,0.0,0.0,0.0,0.0,0.0,0.0,0.0,0.0,0.0,0.0,0.0,0.0,0.0,0.0,0.0,0.0,0.0,0.0,0.0,0.0,0.8549,0.8676,0.8804,0.8743,0.8377,0.8418,0.8445,0.8343,0.8098,0.7779,0.7419,0.4283,0.0,0.0,0.0,0.0,0.0,0.0,0.0,0.0,0.0,-0.3368,-0.3171,-0.3239,-0.334,0.0,0.0,-0.3514,-0.3537,0.0,0.0,0.0,0.0,0.0,0.0,0.0,0.0,0.0,0.0,0.0,0.0,0.0,0.0,0.0,0.0,0.0,-0.37,-0.3616,-0.3605,-0.3676,-0.3943,-0.4016,-0.3997,-0.4283,-0.4395,-0.4321,-0.3869,-0.2971,-0.2076,-0.1603,-0.0742,0.0,0.0,0.0,0.0,0.0,0.0,0.0,0.0,0.0,0.0,0.0,0.0,0.0,0.0,0.0,0.0,0.0,0.0,0.0,0.0,0.0,0.0,0.0,0.0,0.0,0.0,0.0,0.0,0.0,0.0,0.0,0.0,0.0,0.0,0.0,0.0,0.0,0.0,0.0,0.0,0.0,0.0,0.0,0.0,0.0,0.0,0.0,0.0,0.0,0.0,0.0,0.0,0.0,0.0,0.0,0.8549,0.8676,0.871,0.8655,0.8499,0.8479,0.8479,0.8479,0.8615,0.8433,0.784,0.5194,0.0,0.0,0.0,0.0,0.0,0.0,0.0,-0.3119,-0.339,-0.3223,-0.2625,-0.2946,-0.308,-0.3082,-0.3191,-0.3188,-0.3085,0.0,0.0,0.0,0.0,0.0,0.0,0.0,0.0,0.0,0.0,0.0,0.0,0.0,0.0,0.0,0.0,0.0,0.0,0.0,-0.3545,-0.3534,-0.3719,-0.3858,-0.3927,-0.4169,-0.4392,-0.4572,-0.4572,-0.3431,-0.2309,-0.228,-0.1122,0.0,0.0,0.0,0.0,0.0,0.0,0.0,0.0,0.0,0.0,0.0,0.0,0.0,0.0,0.0,0.0,0.0,0.0,0.0,0.0,0.0,0.0,0.0,0.0,0.0,0.0,0.0,0.0,0.0,0.0,0.0,0.0,0.0,0.0,0.0,0.0,0.0,0.0,0.0,0.0,0.0,0.0,0.0,0.0,0.0,0.0,0.0,0.0,0.0,0.0,0.0,0.0,0.0,0.0,0.0,0.0,0.7938,0.7932,0.7992,0.8012,0.8047,0.8009,0.792,0.8194,0.8339,0.817,0.5749,0.0,0.0,0.0,0.0,0.0,0.0,0.0,-0.2791,-0.2877,-0.2821,-0.2625,-0.2946,-0.3174,-0.3246,-0.3498,-0.3518,-0.33,-0.3556,-0.3354,0.0,0.0,0.0,0.0,0.0,0.0,-0.3295,0.0,0.0,0.0,0.0,0.0,0.0,0.0,0.0,0.0,0.0,0.0,0.0,-0.3665,-0.3733,-0.3693,-0.3532,-0.3502,-0.3494,-0.3127,-0.2269,-0.1568,-0.1547,-0.0773,0.0,0.0,0.0,0.0,0.0,0.0,0.0,0.0,0.0,0.0,0.0,0.0,0.0,0.0,0.0,0.0,0.0,0.0,0.0,0.0,0.0,0.0,0.0,0.0,0.0,0.0,0.0,0.0,0.0,0.0,0.0,0.0,0.0,0.0,0.0,0.0,0.0,0.0,0.0,0.0,0.0,0.0,0.0,0.0,0.0,0.0,0.0,0.0,0.0,0.0,0.0,0.0,0.0,0.0,0.0,0.0,0.7438,0.7549,0.7631,0.7713,0.781,0.781,0.7683,0.8002,0.8234,0.8291,0.6578,0.0,0.0,0.0,0.0,0.0,0.0,0.0,-0.2431,-0.264,-0.264,-0.2431,-0.2807,-0.2974,-0.3094,-0.3269,-0.3296,-0.3167,-0.3288,-0.3151,0.0,0.0,0.0,0.0,0.0,0.0,-0.359,0.0,0.0,0.0,0.0,0.0,0.0,0.0,0.0,0.0,0.0,0.0,0.0,0.0,-0.3548,-0.3289,-0.3117,-0.2953,-0.2742,-0.2382,-0.1746,-0.1207,-0.1207,-0.0584,0.0,0.0,0.0,0.0,0.0,0.0,0.0,0.0,0.0,0.0,0.0,0.0,0.0,0.0,0.0,0.0,0.0,0.0,0.0,0.0,0.0,0.0,0.0,0.0,0.0,0.0,0.0,0.0,0.0,0.0,0.0,0.0,0.0,0.0,0.0,0.0,0.0,0.0,0.0,0.0,0.0,0.0,0.0,0.0,0.0,0.0,0.0,0.0,0.0,0.0,0.0,0.0,0.0,0.0,0.0,0.0,0.0,0.7326,0.7493,0.7493,0.7715,0.7889,0.7762,0.7859,0.8054,0.8269,0.7601,0.0,0.0,0.0,0.0,0.0,0.0,-0.2532,-0.2196,-0.2513,-0.2513,-0.2196,-0.2517,-0.271,-0.2714,-0.2714,-0.2795,-0.2777,-0.2542,-0.2601,-0.3015,-0.33,-0.3593,-0.3889,-0.3889,-0.3887,0.0,0.0,0.0,0.0,0.0,0.0,0.0,0.0,0.0,0.0,0.0,0.0,0.0,0.0,0.0,0.0,0.0,-0.2538,-0.2173,-0.2173,-0.1611,-0.1141,-0.1142,-0.0529,0.0,0.0,0.0,0.0,0.0,0.0,0.0,0.0,0.0,0.0,0.0,0.0,0.0,0.0,0.0,0.0,0.0,0.0,0.0,0.0,0.0,0.0,0.0,0.0,0.0,0.0,0.0,0.0,0.0,0.0,0.0,0.0,0.0,0.0,0.0,0.0,0.0,0.0,0.0,0.0,0.0,0.0,0.0,0.0,0.0,0.0,0.0,0.0,0.0,0.0,0.0,0.0,0.0,0.0,0.0,0.0,0.0,0.0,0.0,0.0,0.6826,0.6982,0.6951,0.7421,0.7744,0.0,0.0,0.0,0.0,0.0,0.0,0.0,-0.253,-0.2645,-0.2331,-0.2137,-0.2022,-0.1981,-0.2281,-0.2535,-0.2862,-0.31,-0.3127,-0.2991,-0.3359,-0.3603,-0.3664,-0.374,-0.3815,-0.3889,-0.3889,-0.3615,0.0,0.0,0.0,0.0,-0.3566,-0.364,0.0,0.0,0.0,0.0,0.0,0.0,0.0,0.0,-0.2897,-0.2024,-0.2049,0.0,-0.1103,-0.0638,-0.0403,-0.0286,0.0,-0.0116,0.0,0.0,0.0,0.0,0.0,0.0,0.0,0.0,0.0,0.0,0.0,0.0,0.0,0.0,0.0,0.0,0.0,0.0,0.0,0.0,0.0,0.0,0.0,0.0,0.0,0.0,0.0,0.0,0.0,0.0,0.0,0.0,0.0,0.0,0.0,0.0,0.0,0.0,0.0,0.0,0.0,0.0,0.0,0.0,0.0,0.0,0.0,0.0,0.0,0.0,0.0,0.0,0.0,0.0,0.0,0.0,0.0,0.0,0.0,0.0,0.6325,0.6548,0.6715,0.7041,0.7438,0.0,0.0,0.0,0.0,0.0,0.0,-0.1705,-0.1868,-0.2101,-0.2417,-0.2061,-0.1941,-0.2062,-0.2255,-0.2452,-0.2652,-0.2833,-0.2978,-0.3022,-0.364,-0.3812,-0.3666,-0.3569,-0.3441,-0.342,-0.3112,0.0,0.0,0.0,0.0,0.0,-0.302,-0.3236,0.0,-0.361,-0.3714,-0.3822,0.0,0.0,0.0,0.0,-0.2557,-0.1739,-0.1458,-0.0958,-0.0397,-0.0057,0.0,0.0,0.0,0.0,0.0,0.0,0.0,0.0,0.0,0.0,0.0,0.0,0.0,0.0,0.0,0.0,0.0,0.0,0.0,0.0,0.0,0.0,0.0,0.0,0.0,0.0,0.0,0.0,0.0,0.0,0.0,0.0,0.0,0.0,0.0,0.0,0.0,0.0,0.0,0.0,0.0,0.0,0.0,0.0,0.0,0.0,0.0,0.0,0.0,0.0,0.0,0.0,0.0,0.0,0.0,0.0,0.0,0.0,0.0,0.0,0.0,0.0,0.0,0.0,0.0,0.0,0.0,0.0,0.0,0.0,0.0,0.0,0.0,0.0,0.1975,-0.1185,-0.1183,-0.1479,-0.2314,-0.2099,-0.2041,-0.2257,-0.2339,-0.2409,-0.2471,-0.2531,-0.2735,-0.3145,-0.3633,-0.3669,-0.3331,-0.306,-0.2928,-0.2712,-0.2229,0.0,0.0,0.0,0.0,0.0,0.0,0.0,0.0,-0.3525,-0.3833,-0.391,-0.3847,0.0,0.0,0.0,0.0,0.0,-0.1069,-0.0457,0.0,0.0,0.0,0.0,0.0,0.0,0.0,0.0,0.0,0.0,0.0,0.0,0.0,0.0,0.0,0.0,0.0,0.0,0.0,0.0,0.0,0.0,0.0,0.0,0.0,0.0,0.0,0.0,0.0,0.0,0.0,0.0,0.0,0.0,0.0,0.0,0.0,0.0,0.0,0.0,0.0,0.0,0.0,0.0,0.0,0.0,0.0,0.0,0.0,0.0,0.0,0.0,0.0,0.0,0.0,0.0,0.0,0.0,0.0,0.0,0.0,0.0,0.0,0.0,0.0,0.0,0.0,0.0,0.0,0.0,0.0,0.0,0.0,0.0,0.0,0.5028,0.3246,0.11,-0.1027,-0.2114,-0.2081,-0.2241,-0.2243,-0.2024,-0.2303,-0.2531,-0.2833,-0.3134,-0.3405,-0.3764,-0.3593,-0.3347,-0.3071,-0.2978,-0.2597,-0.2108,-0.2048,0.0,0.0,0.0,0.0,0.0,0.0,0.0,0.0,-0.3618,-0.3905,-0.391,-0.3847,0.0,0.0,0.0,0.0,0.0,-0.1084,-0.0473,0.0,0.0,0.0,0.0,0.0,0.0,0.0,0.0,0.0,0.0,0.0,0.0,0.0,0.0,0.0,0.0,0.0,0.0,0.0,0.0,0.0,0.0,0.0,0.0,0.0,0.0,0.0,0.0,0.0,0.0,0.0,0.0,0.0,0.0,0.0,0.0,0.0,0.0,0.0,0.0,0.0,0.0,0.0,0.0,0.0,0.0,0.0,0.0,0.0,0.0,0.0,0.0,0.0,0.0,0.0,0.0,0.0,0.0,0.0,0.0,0.0,0.0,0.0,0.0,0.0,0.0,0.0,0.0,0.0,0.0,0.0,0.0,0.0,0.0,0.0,0.5291,0.3753,0.2829,-0.0061,-0.1654,-0.1726,-0.1701,-0.1756,-0.1952,-0.2041,-0.238,-0.2856,-0.3215,-0.3422,-0.3593,-0.3298,-0.3032,-0.2852,-0.2142,-0.1717,-0.1351,0.0,0.0,0.0,0.0,0.0,0.0,0.0,0.0,0.0,0.0,-0.3592,-0.3905,-0.3808,0.0,0.0,0.0,0.0,0.0,-0.0679,-0.0234,0.0,0.0,0.0,0.0,0.0,0.0,0.0,0.0,0.0,0.0,0.0,0.0,0.0,0.0,0.0,0.0,0.0,0.0,0.0,0.0,0.0,0.0,0.0,0.0,0.0,0.0,0.0,0.0,0.0,0.0,0.0,0.0,0.0,0.0,0.0,0.0,0.0,0.0,0.0,0.0,0.0,0.0,0.0,0.0,0.0,0.0,0.0,0.0,0.0,0.0,0.0,0.0,0.0,0.0,0.0,0.0,0.0,0.0,0.0,0.0,0.0,0.0,0.0,0.0,0.0,0.0,0.0,0.0,0.0,0.0,0.0,0.0,0.0,0.0,0.0,0.541,0.3876,0.3876,0.0924,-0.0924,-0.1288,-0.1335,-0.1505,-0.1921,-0.2126,-0.246,-0.2984,-0.3101,-0.3246,-0.3236,-0.2829,-0.2564,-0.2312,-0.1401,-0.0872,-0.0632,0.0,0.0,0.0,0.0,0.0,0.0,0.0,0.0,0.0,0.0,0.0,0.0,0.0,0.0,0.0,-0.2198,-0.1795,-0.1517,-0.034,0.0,0.0,0.0,0.0,0.0,0.0,0.0,0.0,0.0,0.0,0.0,0.0,0.0,0.0,0.0,0.0,0.0,0.0,0.0,0.0,0.0,0.0,0.0,0.0,0.0,0.0,0.0,0.0,0.0,0.0,0.0,0.0,0.0,0.0,0.0,0.0,0.0,0.0,0.0,0.0,0.0,0.0,0.0,0.0,0.0,0.0,0.0,0.0,0.0,0.0,0.0,0.0,0.0,0.0,0.0,0.0,0.0,0.0,0.0,0.0,0.0,0.0,0.0,0.0,0.0,0.0,0.0,0.0,0.0,0.0,0.0,0.0,0.0,0.0,0.0,0.7872,0.541,0.3876,0.3876,0.1356,-0.0245,-0.0544,-0.1689,-0.2155,-0.1889,-0.2728,-0.3282,-0.3627,-0.3107,-0.2844,-0.2886,-0.2263,-0.1684,-0.1116,-0.0985,-0.0576,-0.0057,0.0,0.0,0.0,0.0,0.0,0.0,0.0,0.0,0.0,0.0,0.0,0.0,0.0,0.0,-0.3436,-0.2198,-0.1795,-0.1524,-0.0349,0.0,0.0,0.0,0.0,0.0,0.0,0.0,0.0,0.0,0.0,0.0,0.0,0.0,0.0,0.0,0.0,0.0,0.0,0.0,0.0,0.0,0.0,0.0,0.0,0.0,0.0,0.0,0.0,0.0,0.0,0.0,0.0,0.0,0.0,0.0,0.0,0.0,0.0,0.0,0.0,0.0,0.0,0.0,0.0,0.0,0.0,0.0,0.0,0.0,0.0,0.0,0.0,0.0,0.0,0.0,0.0,0.0,0.0,0.0,0.0,0.0,0.0,0.0,0.0,0.0,0.0,0.0,0.0,0.0,0.0,0.0,0.0,0.0,0.0,0.0,0.7872,0.6149,0.4797,0.3937,0.2218,0.0797,-0.0181,-0.0657,-0.1002,-0.1277,-0.234,-0.2805,-0.2568,-0.2686,-0.2584,-0.2235,-0.1604,-0.1136,-0.0914,-0.0511,-0.0226,0.0,0.0,0.0,0.0,0.0,0.0,0.0,0.0,0.0,0.0,0.0,-0.2227,-0.2785,-0.2624,-0.2811,-0.2828,-0.163,-0.1243,-0.1085,-0.0231,0.0,0.0,0.0,0.0,0.0,0.0,0.0,0.0,0.0,0.0,0.0,0.0,0.0,0.0,0.0,0.0,0.0,0.0,0.0,0.0,0.0,0.0,0.0,0.0,0.0,0.0,0.0,0.0,0.0,0.0,0.0,0.0,0.0,0.0,0.0,0.0,0.0,0.0,0.0,0.0,0.0,0.0,0.0,0.0,0.0,0.0,0.0,0.0,0.0,0.0,0.0,0.0,0.0,0.0,0.0,0.0,0.0,0.0,0.0,0.0,0.0,0.0,0.0,0.0,0.0,0.0,0.0,0.0,0.0,0.0,0.0,0.0,0.0,0.0,0.0,0.7818,0.6598,0.5251,0.3907,0.263,0.134,0.0,0.0,-0.0292,-0.092,-0.1934,-0.2231,-0.187,-0.2069,-0.1955,-0.1577,-0.0914,-0.0622,-0.0565,-0.017,0.0,0.0,0.0,0.0,0.0,0.0,0.0,0.0,0.0,0.0,0.0,0.0,-0.1498,-0.2174,-0.1919,-0.2112,-0.2188,-0.1177,-0.0915,-0.076,-0.0176,0.0,0.0,0.0,0.0,0.0,0.0,0.0,0.0,0.0,0.0,0.0,0.0,0.0,0.0,0.0,0.0,0.0,0.0,0.0,0.0,0.0,0.0,0.0,0.0,0.0,0.0,0.0,0.0,0.0,0.0,0.0,0.0,0.0,0.0,0.0,0.0,0.0,0.0,0.0,0.0,0.0,0.0,0.0,0.0,0.0,0.0,0.0,0.0,0.0,0.0,0.0,0.0,0.0,0.0,0.0,0.0,0.0,0.0,0.0,0.0,0.0,0.0,0.0,0.0,0.0,0.6526,0.6837,0.6591,0.0,0.0,0.0,0.0,0.0,0.0,0.0,0.7709,0.6432,0.5167,0.3845,0.2528,0.1265,0.0,0.0,-0.0292,-0.092,-0.1494,-0.1783,-0.1784,-0.1169,-0.0876,-0.0862,-0.0287,0.0,0.0,0.0,0.0,0.0,0.0,0.0,0.0,0.0,0.0,0.0,0.0,0.0,0.0,0.0,-0.0967,-0.1002,-0.165,-0.1844,-0.1683,-0.1065,-0.0871,-0.0787,-0.0184,0.0,0.0,0.0,0.0,0.0,0.0,0.0,0.0,0.0,0.0,0.0,0.0,0.0,0.0,0.0,0.0,0.0,0.0,0.0,0.0,0.0,0.0,0.0,0.0,0.0,0.0,0.0,0.0,0.0,0.0,0.0,0.0,0.0,0.0,0.0,0.0,0.0,0.0,0.0,0.0,0.0,0.0,0.0,0.0,0.0,0.0,0.0,0.0,0.0,0.0,0.0,0.0,0.0,0.0,0.0,0.0,0.0,0.0,0.0,0.0,0.0,0.0,0.0,0.0,0.0,0.6101,0.6162,0.6346,0.0,0.0,0.0,0.0,0.0,0.0,0.0,0.752,0.7215,0.6,0.3905,0.3427,0.2178,0.0061,0.0,-0.0117,-0.0287,-0.0853,-0.0972,-0.0526,-0.0813,-0.0693,-0.0287,-0.0057,0.0,0.0,0.0,0.0,0.0,0.0,0.0,0.0,0.0,0.0,0.0,0.0,0.0,0.0,0.0,0.0,0.0,-0.0639,-0.0856,-0.1065,-0.0449,-0.0288,-0.0238,-0.006,0.0,0.0,0.0,0.0,0.0,0.0,0.0,0.0,0.0,0.0,0.0,0.0,0.0,0.0,0.0,0.0,0.0,0.0,0.0,0.0,0.0,0.0,0.0,0.0,0.0,0.0,0.0,0.0,0.0,0.0,0.0,0.0,0.0,0.0,0.0,0.0,0.0,0.0,0.0,0.0,0.0,0.0,0.0,0.0,0.0,0.0,0.0,0.0,0.0,0.0,0.0,0.0,0.0,0.0,0.0,0.0,0.0,0.0,0.0,0.0,0.0,0.0,0.0,0.0,0.0,0.5978,0.6101,0.6246,0.6346,0.0,0.0,0.0,0.0,0.0,0.0,0.6691,0.6259,0.513,0.3096,0.2996,0.2055,0.0061,0.0,0.0,0.0,-0.0343,-0.0343,0.0,-0.0349,-0.0347,0.0,0.0,0.0,0.0,0.0,0.0,0.0,0.0,0.0,0.0,0.0,0.0,0.0,0.0,0.0,0.0,0.0,0.0,0.0,-0.0115,-0.0227,-0.045,-0.0115,0.0,0.0,0.0,0.0,0.0,0.0,0.0,0.0,0.0,0.0,0.0,0.0,0.0,0.0,0.0,0.0,0.0,0.0,0.0,0.0,0.0,0.0,0.0,0.0,0.0,0.0,0.0,0.0,0.0,0.0,0.0,0.0,0.0,0.0,0.0,0.0,0.0,0.0,0.0,0.0,0.0,0.0,0.0,0.0,0.0,0.0,0.0,0.0,0.0,0.0,0.0,0.0,0.0,0.0,0.0,0.0,0.0,0.0,0.0,0.0,0.0,0.0,0.5818,0.5904,0.0,0.0,0.0,0.0,0.6039,0.6342,0.6319,0.6437,0.0,0.0,0.0,0.0,0.0,0.0,0.0,0.4415,0.3169,0.1881,0.1675,0.1148,0.0,0.0,0.0,0.0,0.0,0.0,0.0,0.0,0.0,0.0,0.0,0.0,0.0,0.0,0.0,0.0,0.0,0.0,0.0,0.0,0.0,0.0,0.0,0.0,0.0,0.0,0.0,0.0,0.0,0.0,0.0,0.0,0.0,0.0,0.0,0.0,0.0,0.0,0.0,0.0,0.0,0.0,0.0,0.0,0.0,0.0,0.0,0.0,0.0,0.0,0.0,0.0,0.0,0.0,0.0,0.0,0.0,0.0,0.0,0.0,0.0,0.0,0.0,0.0,0.0,0.0,0.0,0.0,0.0,0.0,0.0,0.0,0.0,0.0,0.0,0.0,0.0,0.0,0.0,0.0,0.0,0.0,0.0,0.0,0.0,0.0,0.0,0.0,0.0,0.0,0.0,0.0,0.0,0.0,0.5896,0.5912,0.0,0.0,0.0,0.0,0.0,0.6403,0.0,0.0,0.0,0.0,0.0,0.0,0.0,0.0,0.0,0.4284,0.3074,0.1881,0.0907,0.0246,0.0,0.0,0.0,0.0,0.0,0.0,0.0,0.0,0.0,0.0,0.0,0.0,0.0,0.0,0.0,0.0,0.0,0.0,0.0,0.0,0.0,0.0,0.0,0.0,0.0,0.0,0.0,0.0,0.0,0.0,0.0,0.0,0.0,0.0,0.0,0.0,0.0,0.0,0.0,0.0,0.0,0.0,0.0,0.0,0.0,0.0,0.0,0.0,0.0,0.0,0.0,0.0,0.0,0.0,0.0,0.0,0.0,0.0,0.0,0.0,0.0,0.0,0.0,0.0,0.0,0.0,0.0,0.0,0.0,0.0,0.0,0.0,0.0,0.0,0.0,0.0,0.0,0.0,0.0,0.0,0.0,0.0,0.0,0.0,0.0,0.0,0.0,0.0,0.0,0.0,0.0,0.0,0.0,0.0,0.0,0.0,0.0,0.0,0.0,0.0,0.0,0.0,0.0,0.0,0.0,0.0,0.0,0.0,0.0,0.0,0.0,0.284,0.1598,0.0963,0.0306,0.0,0.0,0.0,0.0,0.0,0.0,0.0,0.0,0.0,0.0,0.0,0.0,0.0,0.0,0.0,0.0,0.0,0.0,0.0,0.0,0.0,0.0,0.0,0.0,0.0,0.0,0.0,0.0,0.0,0.0,0.0,0.0,0.0,0.0,0.0,0.0,0.0,0.0,0.0,0.0,0.0,0.0,0.0,0.0,0.0,0.0,0.0,0.0,0.0,0.0,0.0,0.0,0.0,0.0,0.0,0.0,0.0,0.0,0.0,0.0,0.0,0.0,0.0,0.0,0.0,0.0,0.0,0.0,0.0,0.0,0.0,0.0,0.0,0.0,0.0,0.0,0.0,0.0,0.0,0.0,0.0,0.0,0.0,0.0,0.0,0.0,0.0,0.0,0.0,0.0,0.0,0.0,0.0,0.0,0.0,0.0,0.0,0.0,0.0,0.0,0.0,0.0,0.0,0.0,0.0,0.0,0.0,0.0,0.0,0.0,0.0,0.0,0.0,0.0,0.0,0.0,0.0,0.0,0.0,0.0,0.0,0.0,0.0,0.0,0.0,0.0,0.0,0.0,0.0,0.0,0.0,0.0,0.0,0.0,0.0,0.0,0.0,0.0,0.0,0.0,0.0,0.0,0.0,0.0,0.0,0.0,0.0,0.0,0.0,0.0,0.0,0.0,0.0,0.0,0.0,0.0,0.0,0.0,0.0,0.0,0.0,0.0,0.0,0.0,0.0,0.0,0.0,0.0,0.0,0.0,0.0,0.0,0.0,0.0,0.0,0.0,0.0,0.0,0.0,0.0,0.0,0.0,0.0,0.0,0.0,0.0,0.0,0.0,0.0,0.0,0.0,0.0,0.0,0.0,0.0,0.0,0.0,0.0,0.0,0.0,0.0,0.0,0.0,0.0,0.0,0.0,0.0,0.0,0.0,0.0,0.0,0.0,0.0,0.0,0.0,0.0,0.0,0.0,0.0,0.6712,0.694,0.0,0.0,0.7312,0.7312,0.6143,0.4973,0.3866,0.0,0.0,0.0,0.0,0.0,0.0,0.0,0.0,0.0,0.0,0.0,0.0,0.0,0.0,0.0,0.0,0.0,0.0,0.0,0.0,0.0,0.0,0.0,0.0,0.0,0.0,0.0,0.0,0.0,0.0,0.0,0.0,0.0,0.0,0.0,0.0,0.0,0.0,0.0,0.0,0.0,0.0,0.0,0.0,0.0,0.0,0.0,0.0,0.0,0.0,0.0,0.0,0.0,0.0,0.0,0.0,0.0,0.0,0.0,0.0,0.0,0.0,0.0,0.0,0.0,0.0,0.0,0.0,0.0,0.0,0.0,0.0,0.0,0.0,0.0,0.0,0.0,0.0,0.0,0.0,0.0,0.0,0.0,0.0,0.0,0.0,0.0,0.0,0.0,0.0,0.0,0.0,0.0,0.0,0.0,0.0,0.0,0.0,0.0,0.0,0.0,0.0,0.0,0.0,0.0,0.0,0.0,0.0,0.6911,0.7084,0.728,0.7437,0.7437,0.6368,0.4899,0.2897,0.1763,0.0799,0.0063,0.075,0.0753,0.0,0.0,0.0,0.0,0.0,0.0,0.0,0.0,0.0,0.0,0.0,0.0,0.0,0.0,0.0,0.0,0.0,0.0,0.0,0.0,0.0,0.0,0.0,0.0,0.0,0.0,0.0,0.0,0.0,0.0,0.0,0.0,0.0,0.0,0.0,0.0,0.0,0.0,0.0,0.0,0.0,0.0,0.0,0.0,0.0,0.0,0.0,0.0,0.0,0.0,0.0,0.0,0.0,0.0,0.0,0.0,0.0,0.0,0.0,0.0,0.0,0.0,0.0,0.0,0.0,0.0,0.0,0.0,0.0,0.0,0.0,0.0,0.0,0.0,0.0,0.0,0.0,0.0,0.0,0.0,0.0,0.0,0.0,0.0,0.0,0.0,0.0,0.0,0.0,0.0,0.0,0.0,0.0,0.0,0.0,0.0,0.0,0.0,0.0,0.0,0.0,0.0,0.0,0.6801,0.7035,0.0,0.0,0.0,0.6796,0.5388,0.3235,0.243,0.1567,0.0571,0.1837,0.1911,0.0581,0.0516,0.0516,0.0516,0.0191,0.0,0.0,0.0,0.0,0.0,0.0,0.0,0.0,0.0,0.0,0.0,0.0,0.0,0.0,0.0,0.0,0.0,0.0,0.0,0.0,0.0,0.0,0.0,0.0,0.0,0.0,0.0,0.0,0.0,0.0,0.0,0.0,0.0,0.0,0.0,0.0,0.0,0.0,0.0,0.0,0.0,0.0,0.0,0.0,0.0,0.0,0.0,0.0,0.0,0.0,0.0,0.0,0.0,0.0,0.0,0.0,0.0,0.0,0.0,0.0,0.0,0.0,0.0,0.0,0.0,0.0,0.0,0.0,0.0,0.0,0.0,0.0,0.0,0.0,0.0,0.0,0.0,0.0,0.0,0.0,0.0,0.0,0.0,0.0,0.0,0.0,0.0,0.0,0.0,0.0,0.0,0.0,0.0,0.0,0.0,0.0,0.0,0.0,0.6681,0.6741,0.7274,0.7693,0.7693,0.7843,0.7451,0.6149,0.3594,0.2057,0.1994,0.3408,0.0,0.1997,0.1997,0.1997,0.1997,0.0636,0.0,0.0,0.0,0.0,0.0,0.0,0.0,0.0,0.0,0.0,0.0,0.0,0.0,0.0,0.0,0.0,0.0,0.0,0.0,0.0,0.0,0.0,0.0,0.0,0.0,0.0,0.0,0.0,0.0,0.0,0.0,0.0,0.0,0.0,0.0,0.0,0.0,0.0,0.0,0.0,0.0,0.0,0.0,0.0,0.0,0.0,0.0,0.0,0.0,0.0,0.0,0.0,0.0,0.0,0.0,0.0,0.0,0.0,0.0,0.0,0.0,0.0,0.0,0.0,0.0,0.0,0.0,0.0,0.0,0.0,0.0,0.0,0.0,0.0,0.0,0.0,0.0,0.0,0.0,0.0,0.0,0.0,0.0,0.0,0.0,0.0,0.0,0.0,0.0,0.0,0.0,0.0,0.0,0.0,0.0,0.0,0.0,0.0,0.0,0.0,0.7332,0.7747,0.7926,0.7316,0.6773,0.6298,0.5337,0.4391,0.3521,0.4781,0.4781,0.3393,0.3297,0.2845,0.2025,0.1531,0.0824,0.0,0.0,0.0,0.0,0.0,0.0,0.0,0.0,0.0,0.0,0.0,0.0,0.0,0.0,0.0,0.0,0.0,0.0,0.0,0.0,0.0,0.0,0.0,0.0,0.0,0.0,0.0,0.0,0.0,0.0,0.0,0.0,0.0,0.0,0.0,0.0,0.0,0.0,0.0,0.0,0.0,0.0,0.0,0.0,0.0,0.0,0.0,0.0,0.0,0.0,0.0,0.0,0.0,0.0,0.0,0.0,0.0,0.0,0.0,0.0,0.0,0.0,0.0,0.0,0.0,0.0,0.0,0.0,0.0,0.0,0.0,0.0,0.0,0.0,0.0,0.0,0.0,0.0,0.0,0.0,0.0,0.0,0.0,0.0,0.0,0.0,0.0,0.0,0.0,0.0,0.0,0.5916,0.5916,0.5916,0.5916,0.5916,0.0,0.0,0.0,0.0,0.7775,0.8171,0.702,0.6489,0.7043,0.6588,0.5962,0.5027,0.6227,0.6276,0.4863,0.4754,0.4285,0.3393,0.2867,0.1963,0.064,0.0687,0.0432,0.0,0.0,0.0,0.0,0.0,0.0,0.0,0.0,0.0,0.0,0.0,0.0,0.0,0.0,0.0,0.0,0.0,0.0,0.0,0.0,0.0,0.0,0.0,0.0,0.0,0.0,0.0,0.0,0.0,0.0,0.0,0.0,0.0,0.0,0.0,0.0,0.0,0.0,0.0,0.0,0.0,0.0,0.0,0.0,0.0,0.0,0.0,0.0,0.0,0.0,0.0,0.0,0.0,0.0,0.0,0.0,0.0,0.0,0.0,0.0,0.0,0.0,0.0,0.0,0.0,0.0,0.0,0.0,0.0,0.0,0.0,0.0,0.0,0.0,0.0,0.0,0.0,0.0,0.0,0.0,0.0,0.0,0.0,0.0,0.0,0.5916,0.5916,0.5916,0.5916,0.5916,0.5916,0.5916,0.5921,0.0,0.0,0.0,0.0,0.0,0.8339,0.7168,0.7008,0.8512,0.7245,0.6443,0.6443,0.7846,0.7862,0.637,0.637,0.6255,0.6102,0.4687,0.3273,0.2014,0.1986,0.1296,0.0,0.0,0.0,0.0,0.0,0.0,0.0,0.0,0.0,0.0,0.0,0.0,0.0,0.0,0.0,0.0,0.0,0.0,0.0,0.0,0.0,0.0,0.0,0.0,0.0,0.0,0.0,0.0,0.0,0.0,0.0,0.0,0.0,0.0,0.0,0.0,0.0,0.0,0.0,0.0,0.0,0.0,0.0,0.0,0.0,0.0,0.0,0.0,0.0,0.0,0.0,0.0,0.0,0.0,0.0,0.0,0.0,0.0,0.0,0.0,0.0,0.0,0.0,0.0,0.0,0.0,0.0,0.0,0.0,0.0,0.0,0.0,0.0,0.0,0.0,0.0,0.0,0.0,0.0,0.0,0.0,0.0,0.0,0.0,0.5916,0.5916,0.5916,0.5916,0.5916,0.5916,0.5916,0.5941,0.0,0.0,0.0,0.6964,0.7686,0.8247,0.853,0.8204,0.8148,0.8584,0.8251,0.7984,0.7984,0.831,0.8209,0.7701,0.7701,0.7129,0.595,0.567,0.4276,0.2014,0.1986,0.1296,0.0,0.0,0.0,0.0,0.0,0.0,0.0,0.0,0.0,0.0,0.0,0.0,0.0,0.0,0.0,0.0,0.0,0.0,0.0,0.0,0.0,0.0,0.0,0.0,0.0,0.0,0.0,0.0,0.0,0.0,0.0,0.0,0.0,0.0,0.0,0.0,0.0,0.0,0.0,0.0,0.0,0.0,0.0,0.0,0.0,0.0,0.0,0.0,0.0,0.0,0.0,0.0,0.0,0.0,0.0,0.0,0.0,0.0,0.0,0.0,0.0,0.0,0.0,0.0,0.0,0.0,0.0,0.0,0.0,0.0,0.0,0.0,0.0,0.0,0.0,0.0,0.0,0.0,0.0,0.0,0.0,0.0,0.0,0.5916,0.5916,0.5916,0.5916,0.5916,0.5929,0.5908,0.5912,0.6006,0.0,0.0,0.0,0.7453,0.7958,0.8365,0.8513,0.8519,0.8497,0.8443,0.8486,0.8519,0.8519,0.8497,0.8432,0.8312,0.8199,0.7473,0.5976,0.5998,0.4611,0.1997,0.2029,0.1288,0.0,0.0,0.0,0.0,0.0,0.0,0.0,0.0,0.0,0.0,0.0,0.042,0.0846,0.0209,0.0414,0.0893,0.0212,0.0,0.0,0.0,0.0,0.0123,0.0679,0.0864,0.0925,0.148,0.1602,0.148,0.0987,0.0,0.0,0.0914,0.0943,0.1179,0.1843,0.1946,0.1967,0.1967,0.1967,0.1749,0.1094,0.0948,0.0729,0.0073,0.0,0.0,0.0,0.0,0.0,0.0,0.0,0.0,0.0,0.0,0.0,0.0,0.0,0.0,0.0,0.0,0.0,0.0,0.0,0.0,0.0,0.0,0.0,0.0,0.0,0.0,0.0,0.0,0.0,0.0,0.0,0.0,0.0,0.0,0.0,0.0,0.0,0.0,0.0,0.0,0.6039,0.6043,0.599,0.5933,0.5961,0.5992,0.6005,0.6164,0.0,0.6781,0.7135,0.7877,0.8035,0.8183,0.8361,0.8405,0.8356,0.8199,0.8345,0.8399,0.8399,0.8492,0.8492,0.8378,0.8285,0.759,0.6268,0.62,0.4868,0.2402,0.2435,0.1769,0.0433,0.0427,0.0366,0.0247,0.0247,0.0248,0.025,0.0263,0.0265,0.0261,0.0407,0.1369,0.2378,0.1033,0.139,0.2386,0.1005,0.0492,0.054,0.047,0.0518,0.0747,0.1853,0.2224,0.2476,0.3571,0.3876,0.363,0.2466,0.2219,0.0,0.2435,0.247,0.285,0.434,0.4464,0.4472,0.4619,0.4402,0.3751,0.2454,0.2315,0.1742,0.0219,0.0,0.0,0.0,0.0,0.0,0.0,0.0,0.0,0.0,0.0,0.0,0.0,0.0,0.0,0.0,0.0,0.0,0.0,0.0,0.0,0.0,0.0,0.0,0.0,0.0,0.0,0.0,0.0,0.0,0.0,0.0,0.0,0.0,0.0,0.0,0.0,0.0,0.0,0.0,0.7505,0.7077,0.6733,0.6754,0.6335,0.5992,0.6141,0.6157,0.6319,0.6805,0.7336,0.7797,0.828,0.8221,0.8269,0.841,0.8329,0.8301,0.8378,0.8312,0.8269,0.8269,0.8291,0.8247,0.8191,0.8198,0.8001,0.7531,0.7609,0.6784,0.5172,0.5277,0.4558,0.3322,0.3313,0.2689,0.1692,0.1611,0.1763,0.2015,0.1689,0.1707,0.1941,0.3032,0.3808,0.4159,0.3882,0.398,0.4185,0.391,0.378,0.3719,0.3558,0.3598,0.3731,0.3558,0.3696,0.3873,0.3903,0.3876,0.3815,0.3569,0.3507,0.0,0.3561,0.3572,0.3646,0.4015,0.3226,0.2868,0.3891,0.2322,0.1162,0.1912,0.2225,0.1777,0.0218,0.0,0.0,0.0,0.0,0.0,0.0,0.0,0.0,0.0,0.0,0.0,0.0,0.0,0.0,0.0,0.0,0.0,0.0,0.0,0.0,0.0,0.0,0.0,0.0,0.0,0.0,0.0,0.0,0.0,0.0,0.0,0.0,0.0,0.0,0.0,0.0,0.0,0.0,0.0,0.8026,0.7759,0.7624,0.7617,0.738,0.7165,0.7329,0.7025,0.6918,0.736,0.7692,0.7953,0.8154,0.8231,0.835,0.841,0.8307,0.8199,0.8323,0.8329,0.8329,0.8329,0.8378,0.8383,0.8323,0.8323,0.7943,0.7122,0.7185,0.6463,0.5098,0.5157,0.4899,0.4415,0.4161,0.3781,0.3273,0.3055,0.3057,0.3128,0.2496,0.2772,0.3612,0.4279,0.506,0.5746,0.4947,0.4691,0.4698,0.4706,0.4555,0.4406,0.451,0.4433,0.4468,0.4936,0.5213,0.5369,0.5764,0.59,0.5716,0.5042,0.492,0.0,0.0,0.509,0.5293,0.6092,0.5712,0.5503,0.6105,0.5165,0.4227,0.416,0.4327,0.3636,0.1332,0.1076,0.1457,0.2258,0.0948,0.0292,0.1094,0.0438,0.0,0.0,0.0,0.0,0.0,0.0,0.0365,0.1093,0.1166,0.1166,0.1166,0.1967,0.1967,0.1166,0.1166,0.1603,0.2331,0.153,0.1166,0.1166,0.1166,0.0729,0.0,0.0,0.0,0.0,0.0,0.0,0.0,0.0,0.0,0.0146,0.8529,0.8477,0.8486,0.8509,0.8386,0.8366,0.8486,0.7984,0.7787,0.8181,0.8181,0.8181,0.8246,0.8536,0.8629,0.8519,0.8563,0.8491,0.8339,0.841,0.8448,0.8448,0.8492,0.8541,0.8584,0.8454,0.7857,0.674,0.6661,0.611,0.5083,0.51,0.5175,0.5405,0.5124,0.4922,0.4851,0.4491,0.4455,0.4461,0.3703,0.4087,0.5127,0.5417,0.6319,0.7221,0.6025,0.5601,0.5594,0.548,0.5276,0.5056,0.5227,0.5172,0.5241,0.6231,0.6668,0.6883,0.7701,0.7872,0.7627,0.6582,0.6276,0.6315,0.0,0.0,0.0,0.8214,0.8251,0.8186,0.8448,0.8055,0.7393,0.6403,0.6421,0.5665,0.3208,0.2991,0.3226,0.3729,0.21,0.1236,0.2241,0.1158,0.058,0.0875,0.0653,0.058,0.0875,0.0875,0.1457,0.2692,0.2765,0.2765,0.2765,0.4075,0.4075,0.2765,0.2765,0.3421,0.4657,0.3348,0.2765,0.2765,0.2765,0.2039,0.0875,0.0875,0.0875,0.0875,0.0219,0.0146,0.0438,0.0438,0.0656,0.1094,1.0066,0.9564,0.9224,0.9281,0.8844,0.8492,0.8546,0.8501,0.8701,0.9425,0.916,0.9094,0.9425,0.9667,0.9591,0.8883,0.9566,0.9644,0.8782,0.8622,0.8568,0.8568,0.8378,0.8372,0.8584,0.8367,0.8124,0.7996,0.7986,0.7911,0.7788,0.7876,0.7938,0.7984,0.8195,0.7498,0.6173,0.6141,0.638,0.6807,0.6565,0.6377,0.6276,0.7762,0.849,0.8669,0.8724,0.8796,0.875,0.8447,0.8303,0.8169,0.7701,0.7855,0.8163,0.7696,0.7943,0.8251,0.7992,0.7872,0.7872,0.7689,0.7689,0.7694,0.772,0.0,0.7793,0.7948,0.0,0.6589,0.7768,0.0,0.0,0.578,0.618,0.6223,0.588,0.5844,0.4538,0.095,0.269,0.3677,0.2394,0.2109,0.2626,0.4068,0.2849,0.2627,0.4071,0.4148,0.4221,0.4439,0.4439,0.4439,0.4439,0.4584,0.4584,0.4439,0.4439,0.4511,0.4729,0.4511,0.4439,0.4439,0.4439,0.4293,0.4148,0.4148,0.4148,0.3857,0.1094,0.0802,0.2039,0.2039,0.2912,0.4221,1.0263,1.0225,1.013,1.0045,0.9844,0.9636,0.9624,0.9228,0.8991,0.8996,0.9013,0.9204,0.9527,0.9456,0.9606,1.0172,1.0122,0.9948,0.9629,0.9582,0.9278,0.8662,0.8492,0.8486,0.8584,0.8492,0.8437,0.8437,0.8437,0.8437,0.8443,0.8492,0.8595,0.8663,0.8758,0.8518,0.7927,0.7864,0.7937,0.7996,0.8075,0.7922,0.7776,0.8931,0.9334,0.9264,0.9296,0.9302,0.928,0.9133,0.8802,0.8486,0.8649,0.8448,0.816,0.8204,0.8247,0.8284,0.7943,0.7975,0.8051,0.7905,0.7975,0.8046,0.7905,0.7872,0.7872,0.7872,0.0,0.0,0.0,0.0,0.0,0.0,0.7253,0.7096,0.6219,0.6978,0.6706,0.4163,0.3403,0.2891,0.2351,0.2315,0.2995,0.4579,0.3218,0.2997,0.4581,0.4729,0.5093,0.6036,0.6036,0.6036,0.6036,0.6906,0.6906,0.6036,0.6036,0.6471,0.734,0.6471,0.6036,0.6036,0.6036,0.5528,0.4729,0.4729,0.4729,0.4584,0.3276,0.313,0.3712,0.3712,0.4148,0.4802,1.0195,1.0426,1.0575,1.0507,1.0493,1.0487,1.0466,1.0071,0.9649,0.9479,0.9528,0.972,1.0032,1.0066,1.0363,1.119,1.1124,1.0959,1.0696,1.0422,1.0044,0.9572,0.8963,0.8784,0.912,0.8789,0.859,0.859,0.859,0.859,0.859,0.859,0.8682,0.8851,0.8829,0.8921,0.9008,0.8954,0.8954,0.8894,0.9041,0.9052,0.903,0.9508,0.9628,0.9519,0.94,0.9313,0.9242,0.9002,0.8627,0.8209,0.8549,0.8183,0.7749,0.8105,0.8165,0.7996,0.778,0.7786,0.7859,0.7685,0.7821,0.7964,0.7793,0.7811,0.7872,0.7872,0.7872,0.0,0.0,0.0,0.7872,0.7872,0.0,0.776,0.6601,0.76,0.7802,0.6035,0.424,0.3085,0.2961,0.3225,0.392,0.5217,0.4185,0.4272,0.5884,0.5891,0.6326,0.7417,0.7344,0.7344,0.7489,0.8579,0.8652,0.7634,0.7634,0.8213,0.923,0.814,0.7634,0.7634,0.7634,0.6978,0.5963,0.5963,0.5963,0.5963,0.5963,0.5963,0.5891,0.5456,0.5601,0.6108,0.9997,1.0181,1.0337,1.0466,1.0493,1.0588,1.0813,1.086,1.113,1.1813,1.1391,1.1166,1.1607,1.2337,1.2532,1.1599,1.2796,1.317,1.2108,1.1094,1.0916,1.1918,0.9787,0.9143,1.0419,0.9234,0.859,0.859,0.859,0.859,0.859,0.859,0.859,0.8611,0.884,0.8879,0.8895,0.9008,0.9323,0.9622,0.9514,0.9671,0.9927,0.9487,0.9465,0.965,0.9525,0.9334,0.9014,0.8324,0.8066,0.7857,0.7174,0.7275,0.754,0.7426,0.7579,0.7717,0.7307,0.7203,0.716,0.695,0.7209,0.7393,0.7388,0.7689,0.7872,0.7872,0.7872,0.7872,0.7872,0.7872,0.7872,0.7872,0.7877,0.0,0.0,0.7883,0.6969,0.4318,0.5181,0.5634,0.4695,0.5544,0.6366,0.6906,0.6787,0.7391,0.9064,0.8796,0.8584,0.8657,0.8295,0.8222,0.8657,0.8729,0.8874,0.923,0.923,0.923,0.9302,0.923,0.923,0.923,0.923,0.923,0.9157,0.9157,0.9157,0.9157,0.9157,0.9157,0.8941,0.7489,0.7851,0.9157,1.0181,1.0243,1.0297,1.0344,1.0432,1.0527,1.0629,1.084,1.1084,1.146,1.1475,1.1614,1.1929,1.1817,1.1959,1.2552,1.2618,1.247,1.2135,1.1775,1.1575,1.1537,1.0122,0.9617,1.0257,0.916,0.859,0.859,0.859,0.859,0.859,0.859,0.859,0.86,0.884,0.8971,0.9198,0.94,0.9557,0.9666,0.9622,0.9682,0.978,0.9688,0.9612,0.953,0.9191,0.8857,0.8568,0.8109,0.7795,0.7516,0.7617,0.7417,0.7182,0.7526,0.7535,0.7441,0.737,0.745,0.7541,0.7188,0.7271,0.7369,0.7145,0.7143,0.7266,0.7266,0.7388,0.7505,0.7266,0.7627,0.7811,0.7627,0.775,0.7872,0.0,0.7872,0.72,0.532,0.5663,0.5936,0.5544,0.6046,0.688,0.8068,0.7174,0.7248,0.8791,0.8512,0.8295,0.8295,0.815,0.815,0.8295,0.8584,0.8801,0.8874,0.9157,0.9302,0.9302,0.9018,0.8874,0.8874,0.8874,0.8874,0.8946,0.9157,0.9302,0.9302,0.9302,0.9302,0.923,0.8724,0.8868,0.9302,1.0263,1.0324,1.0358,1.0358,1.0473,1.0595,1.0643,1.0854,1.1059,1.14,1.1607,1.1788,1.2073,1.1902,1.2021,1.2904,1.2712,1.2561,1.2653,1.2257,1.2086,1.2126,1.0689,1.0222,1.0837,0.9641,0.8985,0.8985,0.8695,0.859,0.859,0.859,0.859,0.8595,0.8753,0.9003,0.9313,0.947,0.9639,0.9796,0.9943,0.9997,0.9969,1.0193,0.9816,0.9191,0.8899,0.851,0.8104,0.7793,0.7442,0.7259,0.7451,0.7242,0.6987,0.7373,0.7359,0.7165,0.7165,0.7255,0.7341,0.7012,0.7356,0.7568,0.6962,0.7137,0.7324,0.707,0.7136,0.7249,0.7282,0.7433,0.7531,0.749,0.7495,0.7566,0.0,0.775,0.7372,0.6532,0.6533,0.6168,0.5118,0.6131,0.7057,0.7718,0.7281,0.7424,0.8425,0.815,0.7933,0.7933,0.7788,0.7788,0.7933,0.815,0.8367,0.8512,0.8729,0.8874,0.8874,0.8584,0.8512,0.8512,0.8512,0.8512,0.8512,0.8801,0.8874,0.8874,0.9013,0.909,0.9085,0.923,0.9302,0.9302,1.0304,1.0412,1.05,1.05,1.0622,1.0772,1.0847,1.0941,1.1193,1.1769,1.1754,1.1815,1.2175,1.2518,1.2716,1.2496,1.2984,1.3341,1.354,1.2417,1.2322,1.369,1.1554,1.0868,1.2026,1.0463,0.9637,0.9637,0.9041,0.8723,0.8723,0.8723,0.8723,0.8723,0.8723,0.8925,0.9374,0.9374,0.9653,1.0097,1.0486,1.056,1.0439,1.0826,1.0059,0.8791,0.8791,0.8434,0.7807,0.7433,0.7192,0.7124,0.6791,0.6848,0.699,0.6994,0.706,0.7098,0.6857,0.6811,0.6766,0.6648,0.7402,0.7882,0.7015,0.7611,0.8124,0.7414,0.7132,0.7238,0.7832,0.7439,0.7098,0.7541,0.7214,0.7021,0.7327,0.7388,0.7469,0.7654,0.7552,0.6455,0.3899,0.6,0.7025,0.5975,0.7175,0.7991,0.8059,0.7774,0.7557,0.7566,0.7208,0.7208,0.7566,0.7566,0.7783,0.8078,0.8078,0.8078,0.8078,0.8078,0.8078,0.8078,0.8078,0.8078,0.8078,0.8078,0.8078,0.815,0.8512,0.8657,0.8729,0.9157,0.9302,0.9302,1.0582,1.0636,1.0663,1.0663,1.0697,1.0731,1.0772,1.1075,1.1398,1.1495,1.1811,1.2015,1.2102,1.2192,1.2227,1.2185,1.2363,1.2419,1.2452,1.2198,1.2257,1.2947,1.1667,1.1241,1.1787,1.0759,1.0178,1.0178,1.0143,1.0187,1.0187,1.0187,1.0187,1.0187,1.0187,1.016,1.0167,1.0737,1.1138,1.1417,1.1184,1.0908,1.0631,1.0877,1.0296,0.945,0.945,0.9223,0.8859,0.8407,0.8231,0.8179,0.8199,0.8247,0.8373,0.853,0.8637,0.8714,0.8658,0.8642,0.8586,0.8426,0.8576,0.8654,0.8352,0.8497,0.8629,0.8431,0.8514,0.8454,0.7622,0.7714,0.7665,0.6864,0.6808,0.6898,0.7021,0.7021,0.6982,0.6935,0.7033,0.6817,0.6125,0.7018,0.7443,0.6857,0.7256,0.7519,0.7697,0.722,0.6994,0.7127,0.7063,0.7063,0.7131,0.7421,0.7638,0.7711,0.8005,0.8078,0.8078,0.786,0.7711,0.7711,0.7711,0.7711,0.7711,0.8005,0.8078,0.8078,0.8222,0.844,0.8729,0.9157,0.9302,0.9302,1.0704,1.0717,1.0744,1.0806,1.0819,1.0819,1.0819,1.1028,1.1282,1.1443,1.1646,1.187,1.2094,1.1999,1.1986,1.2054,1.2135,1.2108,1.2261,1.2095,1.2154,1.2543,1.1849,1.1565,1.1876,1.114,1.0776,1.0856,1.065,1.0578,1.0717,1.0717,1.0717,1.0717,1.0717,1.0703,1.0715,1.1253,1.1547,1.1625,1.1536,1.1308,0.0,1.1212,1.0961,1.0547,1.0491,0.991,0.9097,0.8777,0.8633,0.86,0.8666,0.8733,0.8884,0.9019,0.9166,0.9302,0.9302,0.9302,0.9269,0.9133,0.9377,0.9526,0.9001,0.9154,0.929,0.8951,0.8996,0.8945,0.8485,0.8377,0.7959,0.6803,0.6771,0.6837,0.6714,0.6653,0.6691,0.6756,0.6808,0.6882,0.6881,0.7202,0.7271,0.6823,0.6898,0.7025,0.7035,0.6814,0.6729,0.6872,0.6949,0.699,0.699,0.7204,0.7349,0.7349,0.7498,0.7643,0.7643,0.7421,0.7349,0.7349,0.7349,0.7349,0.7349,0.757,0.7643,0.7643,0.7788,0.8078,0.844,0.8729,0.9018,0.9302,1.0744,1.0765,1.0819,1.0955,1.0927,1.0948,1.0968,1.0968,1.1116,1.1592,1.1552,1.1626,1.2094,1.1938,1.1918,1.2047,1.2135,1.2155,1.2384,1.201,1.201,1.2377,1.201,1.1911,1.2033,1.1537,1.1311,1.1432,1.0871,1.0658,1.085,1.085,1.085,1.085,1.085,1.1042,1.1323,1.1304,1.1408,1.1521,1.1713,1.1668,1.1518,1.1744,1.1742,1.1599,1.147,1.0461,0.9198,0.908,0.8957,0.8856,0.8873,0.9036,0.9221,0.9237,0.9405,0.959,0.959,0.959,0.959,0.959,1.0095,1.0394,0.9526,0.9898,1.0183,0.948,0.9234,0.9348,0.9829,0.9053,0.8066,0.7088,0.7017,0.6912,0.654,0.654,0.666,0.6884,0.6823,0.0,0.669,0.6888,0.6801,0.6293,0.6434,0.6498,0.6366,0.65,0.6631,0.6758,0.6909,0.699,0.699,0.699,0.699,0.699,0.699,0.699,0.699,0.699,0.699,0.699,0.699,0.699,0.699,0.699,0.699,0.7063,0.7421,0.7783,0.8005,0.8078,0.8512,0.9085,1.0813,1.1002,1.109,1.1118,1.1226,1.1355,1.1484,1.1504,1.1572,1.1769,1.1884,1.1972,1.2054,1.204,1.2033,1.2135,1.2135,1.2128,1.2175,1.2094,1.2094,1.2168,1.2094,1.1972,1.187,1.1918,1.1832,1.1614,1.1711,1.1672,1.1585,1.1585,1.1585,1.1585,1.1585,1.1976,1.2479,1.1683,1.1894,1.2727,1.2325,1.2121,1.1972,1.1817,1.1742,1.1613,1.1592,1.1255,1.0793,1.0587,1.0443,1.0339,1.0463,1.0613,1.0839,1.0958,1.1051,1.1181,1.1181,1.1181,1.1181,1.1181,1.1325,1.1384,1.1194,1.1252,1.1324,1.1181,1.1142,1.0921,1.0296,0.9358,0.8383,0.7316,0.7622,0.7741,0.7017,0.7149,0.722,0.686,0.6904,0.6699,0.606,0.6328,0.6575,0.645,0.6332,0.6386,0.6639,0.6541,0.6623,0.6933,0.6974,0.699,0.699,0.699,0.699,0.699,0.699,0.699,0.699,0.699,0.699,0.699,0.699,0.699,0.699,0.699,0.699,0.7063,0.7421,0.7638,0.7711,0.8005,0.8222,0.8367,1.1043,1.1118,1.1212,1.1369,1.1463,1.1613,1.1925,1.1965,1.1965,1.1952,1.2013,1.2169,1.2169,1.2182,1.221,1.2284,1.2291,1.2291,1.2291,1.2223,1.2182,1.2182,1.2101,1.2026,1.1952,1.1949,1.1865,1.1768,1.1819,1.182,1.1776,1.1776,1.1776,1.1791,1.1955,1.2201,1.2459,1.2157,1.2367,1.2802,1.2347,1.2128,1.204,1.1809,1.1681,1.1619,1.1619,1.147,1.126,1.1111,1.1009,1.0948,1.088,1.1104,1.1294,1.1369,1.1497,1.1619,1.1619,1.1619,1.1619,1.1619,1.1619,1.1619,1.1619,1.1619,1.1619,1.1619,1.1619,1.1453,1.0803,1.0245,0.948,0.8628,0.8671,0.8448,0.7436,0.7455,0.7351,0.6731,0.6579,0.6485,0.626,0.6234,0.6168,0.6168,0.6126,0.6231,0.65,0.6431,0.6529,0.6843,0.6941,0.699,0.699,0.699,0.699,0.699,0.699,0.699,0.699,0.699,0.699,0.699,0.699,0.699,0.699,0.699,0.699,0.699,0.7204,0.7276,0.7276,0.7498,0.7643,0.786,1.1253,1.1287,1.1389,1.1667,1.1742,1.1877,1.2237,1.2318,1.2291,1.2169,1.2155,1.2203,1.2325,1.2338,1.2379,1.2488,1.2501,1.2501,1.2501,1.24,1.2338,1.2338,1.2223,1.2142,1.2108,1.1993,1.1914,1.1861,1.1706,1.1603,1.1629,1.16,1.16,1.1644,1.1862,1.2044,1.2105,1.2356,1.2543,1.2524,1.2237,1.2135,1.2033,1.1735,1.1619,1.1619,1.1653,1.1586,1.1463,1.1348,1.124,1.1151,1.107,1.1206,1.1396,1.143,1.1525,1.1619,1.1619,1.1619,1.1619,1.1619,1.1619,1.1619,1.1619,1.1619,1.1619,1.1619,1.1619,1.1525,1.1219,1.1023,1.0617,0.9881,0.9672,0.9318,0.8236,0.799,0.7772,0.7188,0.6713,0.6541,0.6891,0.6366,0.6093,0.6219,0.6126,0.6157,0.6337,0.6345,0.6464,0.6717,0.686,0.6933,0.6933,0.697,0.699,0.699,0.699,0.699,0.699,0.699,0.699,0.699,0.699,0.699,0.699,0.699,0.699,0.699,0.699,0.699,0.699,0.699,0.7208,0.7494,1.1552,1.1681,1.1823,1.1993,1.2135,1.2244,1.2284,1.24,1.2474,1.2461,1.2461,1.2467,1.2481,1.2481,1.2488,1.2501,1.2501,1.2501,1.2501,1.2488,1.2481,1.2481,1.2467,1.24,1.2271,1.2257,1.2033,1.1599,1.1514,1.1289,1.0988,1.0852,1.0859,1.1002,1.1228,1.153,1.1855,1.2053,1.2292,1.251,1.2244,1.2135,1.2033,1.1735,1.1619,1.164,1.1769,1.1803,1.1789,1.1775,1.1497,1.1255,1.1307,1.1369,1.1416,1.1558,1.1606,1.1619,1.1619,1.1619,1.1619,1.1619,1.1619,1.1619,1.1619,1.1619,1.1619,1.1619,1.1619,1.1525,1.1219,1.1369,1.116,1.0127,1.0486,1.0572,0.9804,0.938,0.9155,0.929,0.8065,0.7292,0.7507,0.6876,0.6668,0.7199,0.6584,0.6247,0.6498,0.651,0.6529,0.6721,0.6741,0.6749,0.6749,0.6909,0.699,0.699,0.699,0.699,0.699,0.699,0.699,0.699,0.699,0.699,0.699,0.699,0.699,0.699,0.699,0.699,0.699,0.699,0.699,0.7063,1.187,1.1932,1.202,1.2176,1.225,1.2318,1.2406,1.2467,1.2501,1.2501,1.2501,1.2501,1.2501,1.2501,1.2501,1.2501,1.2501,1.2501,1.2501,1.2501,1.2501,1.2501,1.2501,1.2474,1.242,1.2332,1.2155,1.1884,1.1552,1.128,1.1077,1.0928,1.0934,1.109,1.1328,1.1586,1.1843,1.2094,1.2318,1.2481,1.2277,1.2196,1.2176,1.1965,1.1884,1.1891,1.1945,1.1972,1.1972,1.1972,1.1789,1.1558,1.1538,1.1531,1.1538,1.1599,1.1619,1.1619,1.1619,1.1619,1.1619,1.1619,1.1619,1.1619,1.1619,1.1619,1.1619,1.1619,1.1619,1.1586,1.1457,1.1389,1.1291,1.0999,1.103,1.0915,1.0359,1.0095,0.9844,0.9456,0.8755,0.8352,0.8465,0.8132,0.7989,0.8189,0.7507,0.7035,0.7054,0.7233,0.713,0.6725,0.6831,0.6884,0.6884,0.6954,0.699,0.699,0.699,0.699,0.699,0.699,0.699,0.699,0.699,0.699,0.699,0.699,0.699,0.699,0.699,0.699,0.699,0.699,0.699,0.699,1.2121,1.2128,1.2176,1.2325,1.2352,1.2386,1.2488,1.2501,1.2501,1.2501,1.2501,1.2501,1.2501,1.2501,1.2501,1.2501,1.2501,1.2501,1.2501,1.2501,1.2501,1.2501,1.2501,1.2501,1.2501,1.2406,1.2277,1.2128,1.1762,1.1491,1.1294,1.1104,1.109,1.124,1.1504,1.1701,1.185,1.2162,1.2345,1.2433,1.2332,1.2291,1.2271,1.2121,1.2135,1.2142,1.2115,1.2128,1.2135,1.2176,1.2094,1.1932,1.1742,1.1681,1.1674,1.1633,1.1619,1.1619,1.1619,1.1619,1.1619,1.1619,1.1619,1.1619,1.1619,1.1619,1.1619,1.1619,1.1619,1.1619,1.1619,1.1443,1.1369,1.1586,1.1436,1.1228,1.0862,1.0671,1.0353,0.9918,0.9327,0.9082,0.929,0.9001,0.8901,0.9171,0.869,0.8287,0.7887,0.8099,0.797,0.7418,0.7482,0.7554,0.7554,0.7612,0.7566,0.7349,0.7349,0.7204,0.699,0.699,0.699,0.699,0.699,0.699,0.699,0.699,0.699,0.699,0.699,0.699,0.699,0.699,0.699,0.699,1.2257,1.2284,1.2332,1.2474,1.2501,1.2501,1.2501,1.2501,1.2501,1.2501,1.2501,1.2501,1.2501,1.2501,1.2501,1.2501,1.2501,1.2501,1.2501,1.2501,1.2501,1.2501,1.2501,1.2501,1.2501,1.2501,1.2427,1.2284,1.2128,1.1904,1.1606,1.1301,1.124,1.1396,1.1552,1.1701,1.185,1.2162,1.2291,1.2291,1.2291,1.2291,1.2271,1.2121,1.2135,1.2155,1.2237,1.2284,1.2311,1.2447,1.24,1.223,1.1925,1.183,1.1803,1.166,1.1619,1.1619,1.1619,1.1619,1.1619,1.1619,1.1619,1.1619,1.1619,1.1619,1.1619,1.1619,1.1619,1.1619,1.1619,1.1613,1.1613,1.1619,1.1613,1.1613,1.1619,1.0966,1.0643,1.1136,0.985,0.9157,0.992,0.9296,0.9221,0.9914,1.0297,1.0042,0.9018,0.9007,0.9007,0.8938,0.8943,0.8943,0.8943,0.9182,0.8868,0.8068,0.8068,0.7706,0.699,0.699,0.699,0.699,0.699,0.699,0.699,0.699,0.699,0.699,0.699,0.699,0.699,0.699,0.699,0.699,1.2427,1.2433,1.2447,1.2494,1.2501,1.2501,1.2501,1.2501,1.2501,1.2501,1.2501,1.2501,1.2501,1.2501,1.2501,1.2501,1.2501,1.2501,1.2501,1.2501,1.2501,1.2501,1.2501,1.2501,1.2501,1.2501,1.2481,1.2433,1.2182,1.1911,1.1613,1.1409,1.1402,1.1552,1.1599,1.1701,1.1843,1.2047,1.2196,1.2298,1.2393,1.2433,1.2427,1.2379,1.2359,1.2366,1.242,1.2433,1.244,1.2488,1.2474,1.24,1.2203,1.2074,1.1959,1.1809,1.1762,1.1742,1.1647,1.1619,1.1619,1.1619,1.1619,1.1619,1.1619,1.1619,1.1619,1.1619,1.1619,1.1619,1.1619,1.1619,1.1619,1.1619,1.1619,1.1619,1.1619,1.1404,1.1292,1.1484,1.1051,1.0831,1.1044,1.0902,1.0754,1.0833,1.0905,1.0549,0.952,0.9846,0.9677,0.9012,0.9101,0.9188,0.9188,0.9264,0.9157,0.8941,0.8941,0.8507,0.7711,0.7204,0.699,0.699,0.699,0.699,0.699,0.699,0.699,0.699,0.699,0.699,0.699,0.699,0.699,0.699,1.2501,1.2501,1.2501,1.2501,1.2501,1.2501,1.2501,1.2501,1.2501,1.2501,1.2501,1.2501,1.2501,1.2501,1.2501,1.2501,1.2501,1.2501,1.2501,1.2501,1.2501,1.2501,1.2501,1.2501,1.2501,1.2501,1.2501,1.2501,1.2264,1.2026,1.1782,1.1626,1.1579,1.1619,1.1619,1.1667,1.1762,1.1911,1.206,1.2216,1.2366,1.2454,1.2501,1.2501,1.2501,1.2501,1.2501,1.2501,1.2501,1.2501,1.2501,1.2488,1.24,1.2305,1.2189,1.1979,1.1918,1.1884,1.1742,1.1701,1.1687,1.1633,1.1619,1.1619,1.1619,1.1619,1.1619,1.1619,1.1619,1.1619,1.1619,1.1619,1.1619,1.1619,1.1619,1.1619,1.1619,1.1619,1.1579,1.1463,1.145,1.145,1.145,1.145,1.1416,1.1341,1.1335,1.1114,1.0447,1.0665,1.0484,0.9994,1.0084,1.0173,1.0173,1.0173,1.0023,0.9735,0.9157,0.8574,0.8068,0.7349,0.699,0.699,0.699,0.7131,0.7421,0.7135,0.7131,0.7421,0.7135,0.7135,0.7421,0.7421,0.7638,0.7783,1.2501,1.2501,1.2501,1.2501,1.2501,1.2501,1.2501,1.2501,1.2501,1.2501,1.2501,1.2501,1.2501,1.2501,1.2501,1.2501,1.2501,1.2501,1.2501,1.2501,1.2501,1.2501,1.2501,1.2501,1.2501,1.2501,1.2501,1.2501,1.2359,1.221,1.2135,1.1904,1.1755,1.1619,1.1619,1.1619,1.1626,1.1769,1.1918,1.2074,1.223,1.2372,1.2501,1.2501,1.2501,1.2501,1.2501,1.2501,1.2501,1.2501,1.2501,1.2501,1.2501,1.2501,1.2447,1.2162,1.2081,1.2047,1.1891,1.1843,1.1816,1.1674,1.1626,1.1619,1.1619,1.1619,1.1619,1.1619,1.1619,1.1619,1.1619,1.1619,1.1619,1.1619,1.1619,1.1619,1.1619,1.1619,1.1511,1.1226,1.1261,1.1261,1.1261,1.1261,1.1301,1.1565,1.1586,1.1586,1.1586,1.1314,1.1301,1.1606,1.1619,1.1619,1.1619,1.1619,1.1253,1.0527,0.9008,0.8285,0.8213,0.7494,0.7135,0.7135,0.7135,0.7566,0.814,0.7421,0.7566,0.814,0.7421,0.7566,0.8213,0.8213,0.8646,0.9157,1.2501,1.2501,1.2501,1.2501,1.2501,1.2501,1.2501,1.2501,1.2501,1.2501,1.2501,1.2501,1.2501,1.2501,1.2501,1.2501,1.2501,1.2501,1.2501,1.2501,1.2501,1.2501,1.2501,1.2501,1.2501,1.2501,1.2501,1.2501,1.2359,1.221,1.2135,1.1904,1.1755,1.1619,1.1619,1.1619,1.1626,1.1769,1.1918,1.2074,1.223,1.2372,1.2501,1.2501,1.2501,1.2501,1.2501,1.2501,1.2501,1.2501,1.2501,1.2501,1.2501,1.2501,1.2467,1.2291,1.2237,1.2203,1.2047,1.2006,1.1972,1.1816,1.1701,1.1619,1.1619,1.1619,1.1619,1.1619,1.1619,1.1619,1.1619,1.1619,1.1619,1.1619,1.1619,1.1619,1.1619,1.1619,1.1592,1.1518,1.1511,1.1511,1.1511,1.1511,1.1443,1.128,1.1274,1.1274,1.1274,1.1199,1.1301,1.1606,1.1619,1.1619,1.1619,1.1619,1.1476,1.1325,1.0383,0.9945,0.9879,0.9085,0.8724,0.8724,0.8724,0.8868,0.9013,0.8796,0.8868,0.9013,0.8796,0.8868,0.9013,0.9013,0.9157,0.9302,1.2501,1.2501,1.2501,1.2501,1.2501,1.2501,1.2501,1.2501,1.2501,1.2501,1.2501,1.2501,1.2501,1.2501,1.2501,1.2501,1.2501,1.2501,1.2501,1.2501,1.2501,1.2501,1.2501,1.2501,1.2501,1.2501,1.2501,1.2501,1.2427,1.2311,1.2162,1.2006,1.1857,1.1714,1.1647,1.1619,1.1626,1.1701,1.1823,1.1972,1.2121,1.2277,1.2413,1.2474,1.2501,1.2501,1.2501,1.2501,1.2501,1.2501,1.2501,1.2501,1.2501,1.2501,1.2488,1.2413,1.2386,1.2352,1.2203,1.2169,1.2128,1.1972,1.1823,1.1714,1.1714,1.1667,1.1619,1.1619,1.1619,1.1619,1.1619,1.1619,1.1619,1.1619,1.1504,1.1457,1.1599,1.1497,1.1463,1.1606,1.1619,1.1619,1.1619,1.1619,1.1552,1.1382,1.1369,1.1369,1.1369,1.1369,1.145,1.1613,1.1619,1.1619,1.1619,1.1619,1.1619,1.1619,1.0822,1.0527,1.0455,0.9663,0.9302,0.9302,0.9302,0.9518,0.9807,0.9446,0.9518,0.9807,0.9446,0.9557,0.9966,0.9966,1.0225,1.0498,1.2569,1.2569,1.2569,1.2569,1.2569,1.2569,1.2569,1.2549,1.2535,1.2535,1.2515,1.2501,1.2501,1.2501,1.2501,1.2501,1.2501,1.2501,1.2501,1.2501,1.2501,1.2501,1.2501,1.2501,1.2501,1.2501,1.2501,1.2501,1.2501,1.2427,1.2284,1.2155,1.1999,1.1823,1.1708,1.164,1.1619,1.1619,1.1701,1.1843,1.1972,1.2121,1.2271,1.2413,1.2467,1.2474,1.2494,1.2501,1.2501,1.2501,1.2501,1.2501,1.2501,1.2501,1.2501,1.2501,1.2501,1.2474,1.2352,1.2305,1.2257,1.2128,1.1979,1.1864,1.1864,1.1755,1.1653,1.1653,1.1633,1.1619,1.1619,1.1619,1.1606,1.1558,1.1369,1.1307,1.1518,1.1369,1.1328,1.1586,1.1619,1.1619,1.1619,1.1619,1.1619,1.1619,1.1619,1.1619,1.1619,1.1619,1.1619,1.1619,1.1619,1.1619,1.1619,1.1619,1.1619,1.1619,1.0966,1.0671,1.0671,0.9951,0.9663,0.9663,0.9663,1.0023,1.0599,0.9951,1.0035,1.063,0.9908,1.0207,1.0915,1.0915,1.1434,1.1986,1.2888,1.2888,1.2888,1.2888,1.2888,1.2888,1.2888,1.2779,1.2698,1.2698,1.2583,1.2501,1.2501,1.2501,1.2501,1.2501,1.2501,1.2501,1.2501,1.2501,1.2501,1.2501,1.2501,1.2501,1.2501,1.2501,1.2501,1.2501,1.2501,1.2427,1.2291,1.2264,1.2101,1.183,1.1809,1.1735,1.1619,1.1619,1.1701,1.183,1.1857,1.1959,1.2115,1.2264,1.2325,1.2338,1.2461,1.2501,1.2501,1.2501,1.2501,1.2501,1.2501,1.2501,1.2501,1.2501,1.2501,1.2494,1.2474,1.2379,1.2284,1.2257,1.2142,1.2026,1.2026,1.1904,1.1796,1.1796,1.1701,1.1619,1.1619,1.1619,1.1538,1.1274,1.1409,1.1477,1.126,1.1416,1.1565,1.1613,1.1619,1.1619,1.1619,1.1619,1.1619,1.1619,1.1619,1.1619,1.1619,1.1619,1.1619,1.1619,1.1619,1.1619,1.1619,1.1619,1.1619,1.1619,1.1476,1.1404,1.1404,1.1332,1.126,1.126,1.126,1.1325,1.1404,1.126,1.1398,1.1577,1.1431,1.1596,1.1878,1.1878,1.1966,1.206,1.2963,1.2963,1.2963,1.2963,1.2963,1.2963,1.2963,1.2901,1.2854,1.2854,1.2718,1.2623,1.2623,1.2549,1.2501,1.2501,1.2501,1.2501,1.2501,1.2501,1.2501,1.2501,1.2501,1.2501,1.2501,1.2501,1.2501,1.2501,1.2501,1.2467,1.2406,1.2325,1.2216,1.2074,1.1993,1.187,1.1735,1.1735,1.1728,1.1721,1.1803,1.187,1.1952,1.2108,1.2169,1.2189,1.2332,1.2386,1.24,1.2474,1.2501,1.2501,1.2501,1.2501,1.2501,1.2501,1.2501,1.2501,1.2501,1.2454,1.2406,1.2406,1.2291,1.2182,1.2182,1.2067,1.1952,1.1952,1.1837,1.1735,1.1735,1.1674,1.1572,1.143,1.1389,1.1382,1.1402,1.1389,1.1436,1.1599,1.1619,1.1619,1.1619,1.1619,1.1619,1.1619,1.1619,1.1619,1.1619,1.1619,1.1619,1.1619,1.1619,1.1619,1.1619,1.1619,1.1619,1.1619,1.1619,1.1619,1.1619,1.1619,1.1619,1.1619,1.1619,1.166,1.1735,1.1735,1.1823,1.1952,1.1952,1.2047,1.2182,1.2182,1.223,1.2298,1.3064,1.3064,1.3064,1.3064,1.3064,1.3064,1.3064,1.303,1.301,1.301,1.2874,1.2773,1.2732,1.2623,1.2542,1.2508,1.2501,1.2501,1.2501,1.2501,1.2501,1.2501,1.2501,1.2501,1.2501,1.2501,1.2501,1.2501,1.2501,1.2501,1.2501,1.2393,1.2325,1.2284,1.2169,1.2026,1.1884,1.1884,1.1823,1.1728,1.1803,1.183,1.1843,1.1965,1.2006,1.2026,1.2182,1.2257,1.2305,1.2413,1.2474,1.2501,1.2501,1.2501,1.2501,1.2501,1.2501,1.2501,1.2501,1.2501,1.2501,1.2501,1.242,1.2338,1.2338,1.2223,1.2115,1.2115,1.1993,1.1884,1.1884,1.1796,1.1687,1.1586,1.1423,1.1362,1.1497,1.1369,1.1355,1.1592,1.1619,1.1619,1.1619,1.1619,1.1619,1.1619,1.1619,1.1619,1.1619,1.1619,1.1619,1.1619,1.1619,1.1619,1.1619,1.1619,1.1619,1.1619,1.1619,1.1619,1.1619,1.1653,1.1667,1.1674,1.1708,1.1782,1.1884,1.1884,1.1979,1.2115,1.2115,1.221,1.2338,1.2338,1.2406,1.2501,1.337,1.337,1.337,1.337,1.337,1.337,1.337,1.3247,1.3159,1.3159,1.303,1.2888,1.2745,1.2718,1.2657,1.2515,1.2501,1.2501,1.2501,1.2501,1.2501,1.2501,1.2501,1.2501,1.2501,1.2501,1.2501,1.2501,1.2501,1.2501,1.2501,1.2488,1.2413,1.2291,1.2277,1.2189,1.2047,1.2047,1.204,1.202,1.1884,1.183,1.183,1.1843,1.185,1.187,1.202,1.2169,1.2291,1.2305,1.2393,1.2501,1.2501,1.2501,1.2501,1.2501,1.2501,1.2501,1.2501,1.2501,1.2501,1.2501,1.2494,1.2488,1.2488,1.2379,1.2271,1.2271,1.2149,1.2047,1.2047,1.204,1.1891,1.1477,1.1619,1.1647,1.1253,1.1423,1.1592,1.1613,1.1619,1.1619,1.1619,1.1619,1.1619,1.1619,1.1619,1.1619,1.1619,1.1619,1.1619,1.1619,1.1619,1.1619,1.1619,1.1619,1.1619,1.1619,1.1619,1.1619,1.1626,1.1755,1.1816,1.1823,1.1965,1.2033,1.2047,1.2047,1.2135,1.2271,1.2271,1.2359,1.2488,1.2488,1.2494,1.2501,1.3403,1.3403,1.3403,1.3403,1.3403,1.3403,1.3403,1.3349,1.3315,1.3315,1.3186,1.3071,1.301,1.284,1.2705,1.2651,1.2556,1.2501,1.2501,1.2501,1.2501,1.2501,1.2501,1.2501,1.2501,1.2501,1.2501,1.2501,1.2501,1.2501,1.2501,1.2501,1.2474,1.242,1.242,1.2338,1.2203,1.2203,1.2149,1.2054,1.1999,1.1972,1.1972,1.1972,1.1911,1.185,1.2006,1.204,1.202,1.2115,1.225,1.2372,1.2372,1.2433,1.2501,1.2501,1.2501,1.2501,1.2501,1.2501,1.2501,1.2501,1.2501,1.2501,1.2501,1.2461,1.242,1.242,1.2305,1.2203,1.2203,1.2128,1.2006,1.1837,1.1898,1.1918,1.1742,1.1823,1.1857,1.1762,1.1748,1.1714,1.1626,1.1619,1.1619,1.1619,1.1619,1.1619,1.1619,1.1619,1.166,1.1748,1.1748,1.1708,1.1619,1.1619,1.166,1.1748,1.1748,1.1803,1.1898,1.1952,1.1972,1.1979,1.204,1.2115,1.2203,1.2203,1.2291,1.242,1.242,1.2454,1.2501,1.2501,1.2501,1.2501,1.3403,1.3403,1.3403,1.3403,1.3403,1.3403,1.3403,1.3403,1.3403,1.3403,1.3308,1.3227,1.318,1.299,1.2834,1.2739,1.263,1.2556,1.2508,1.2501,1.2501,1.2501,1.2501,1.2501,1.2501,1.2501,1.2501,1.2501,1.2501,1.2501,1.2501,1.2501,1.2501,1.2501,1.2501,1.2447,1.2359,1.2359,1.2298,1.2196,1.2149,1.2135,1.2128,1.2155,1.1993,1.1918,1.2026,1.2026,1.1986,1.204,1.2162,1.2291,1.2291,1.2386,1.2501,1.2501,1.2501,1.2501,1.2501,1.2501,1.2501,1.2501,1.2501,1.2501,1.2501,1.2501,1.2501,1.2501,1.2427,1.2359,1.2359,1.2271,1.2182,1.2142,1.2135,1.2115,1.2142,1.2135,1.202,1.1918,1.1904,1.1864,1.1769,1.1762,1.1762,1.1762,1.1762,1.1762,1.1762,1.1762,1.1803,1.1898,1.1904,1.1857,1.1762,1.1762,1.1809,1.1904,1.1904,1.1959,1.206,1.2108,1.2135,1.2135,1.2182,1.2257,1.2359,1.2359,1.2413,1.2501,1.2501,1.2501,1.2501,1.2501,1.2501,1.2501,1.3403,1.3403,1.3403,1.3403,1.3403,1.3403,1.3403,1.3403,1.3403,1.3403,1.3403,1.3342,1.3193,1.3173,1.3051,1.2759,1.2732,1.2664,1.2515,1.2501,1.2501,1.2501,1.2501,1.2501,1.2501,1.2501,1.2501,1.2501,1.2501,1.2501,1.2501,1.2501,1.2501,1.2501,1.2501,1.2501,1.2501,1.2501,1.2501,1.2488,1.2345,1.2291,1.2277,1.2121,1.2067,1.206,1.206,1.2162,1.2264,1.2115,1.2162,1.2291,1.2291,1.2386,1.2501,1.2501,1.2501,1.2501,1.2501,1.2501,1.2501,1.2501,1.2501,1.2501,1.2501,1.2501,1.2501,1.2501,1.2501,1.2501,1.2501,1.2501,1.2454,1.2318,1.2291,1.2237,1.2088,1.2067,1.2067,1.206,1.206,1.206,1.2135,1.2135,1.2135,1.2135,1.2135,1.2135,1.2135,1.2135,1.2135,1.206,1.206,1.206,1.2067,1.206,1.2135,1.206,1.206,1.206,1.2149,1.2223,1.2291,1.2298,1.244,1.2501,1.2501,1.2501,1.2501,1.2501,1.2501,1.2501,1.2501,1.2501,1.2501,1.2501,1.3403,1.3403,1.3403,1.3403,1.3403,1.3403,1.3403,1.3403,1.3403,1.3403,1.3403,1.3383,1.3336,1.3241,1.3139,1.3051,1.2949,1.2827,1.2671,1.2562,1.2501,1.2501,1.2501,1.2501,1.2501,1.2501,1.2501,1.2501,1.2501,1.2501,1.2501,1.2501,1.2501,1.2501,1.2501,1.2501,1.2501,1.2501,1.2501,1.2501,1.2454,1.244,1.2433,1.2386,1.2311,1.2223,1.2223,1.2182,1.2121,1.2081,1.2162,1.2311,1.2406,1.2467,1.2501,1.2501,1.2501,1.2501,1.2501,1.2501,1.2501,1.2501,1.2501,1.2501,1.2501,1.2501,1.2501,1.2501,1.2501,1.2501,1.2501,1.2501,1.2488,1.2447,1.244,1.242,1.2379,1.2372,1.2332,1.2237,1.2223,1.2182,1.2149,1.2135,1.2135,1.2135,1.2135,1.2135,1.2135,1.2135,1.2108,1.2216,1.2223,1.2271,1.2372,1.2169,1.2115,1.2223,1.2223,1.2277,1.2372,1.242,1.244,1.244,1.2481,1.2501,1.2501,1.2501,1.2501,1.2501,1.2501,1.2501,1.2501,1.2501,1.2501,1.2501,1.3403,1.3403,1.3403,1.3403,1.3403,1.3403,1.3403,1.3403,1.3403,1.3403,1.3403,1.3403,1.3403,1.3315,1.3241,1.318,1.3044,1.2922,1.2827,1.2732,1.2657,1.2596,1.2589,1.2562,1.2501,1.2501,1.2501,1.2501,1.2501,1.2501,1.2501,1.2501,1.2501,1.2501,1.2501,1.2501,1.2501,1.2501,1.2501,1.2501,1.2501,1.2501,1.2501,1.2501,1.2488,1.2467,1.2467,1.2447,1.2406,1.2345,1.2386,1.2481,1.2562,1.2637,1.2684,1.2684,1.2637,1.2589,1.2589,1.2549,1.2501,1.2501,1.2501,1.2501,1.2501,1.2501,1.2501,1.2501,1.2501,1.2501,1.2501,1.2501,1.2501,1.2501,1.2501,1.2501,1.2501,1.2501,1.2467,1.2386,1.2372,1.2338,1.2244,1.2237,1.2237,1.2237,1.2237,1.2237,1.2237,1.2237,1.2277,1.2372,1.2372,1.2413,1.2501,1.2325,1.2284,1.2372,1.2372,1.242,1.2501,1.2501,1.2501,1.2501,1.2501,1.2501,1.2501,1.2501,1.2501,1.2501,1.2501,1.2501,1.2501,1.2501,1.2501,1.2501,1.3403,1.3403,1.3403,1.3403,1.3403,1.3403,1.3403,1.3403,1.3403,1.3403,1.3403,1.3403,1.3403,1.3403,1.3342,1.3207,1.3064,1.2983,1.2983,1.305,1.2901,1.2759,1.2752,1.2684,1.2549,1.2515,1.2501,1.2501,1.2501,1.2501,1.2501,1.2501,1.2501,1.2501,1.2501,1.2508,1.2522,1.2522,1.2528,1.2542,1.2542,1.2542,1.2542,1.2542,1.263,1.2752,1.2752,1.284,1.2942,1.28,1.2752,1.2752,1.2752,1.2847,1.2963,1.2963,1.2861,1.2752,1.2752,1.2637,1.2522,1.2522,1.2515,1.2501,1.2501,1.2501,1.2501,1.2501,1.2501,1.2501,1.2501,1.2501,1.2501,1.2501,1.2501,1.2501,1.2501,1.2501,1.2501,1.2501,1.2501,1.2501,1.2501,1.2501,1.2501,1.2501,1.2501,1.2501,1.2501,1.2501,1.2501,1.2501,1.2501,1.2501,1.2501,1.2501,1.2501,1.2501,1.2501,1.2501,1.2501,1.2501,1.2501,1.2501,1.2501,1.2501,1.2501,1.2501,1.2501,1.2501,1.2501,1.2501,1.2501,1.2501,1.2501,1.2501,1.3403,1.3403,1.3403,1.3403,1.3403,1.3403,1.3403,1.3403,1.3403,1.3403,1.3403,1.3403,1.3403,1.3403,1.339,1.3356,1.3214,1.3125,1.3125,1.3024,1.2949,1.2915,1.2908,1.2895,1.2861,1.2623,1.2501,1.2501,1.2501,1.2501,1.2501,1.2501,1.2501,1.2501,1.2501,1.2569,1.2678,1.2678,1.2752,1.2861,1.2861,1.2861,1.2861,1.2861,1.2881,1.2908,1.2908,1.2935,1.2956,1.2922,1.2908,1.2908,1.2908,1.2935,1.2963,1.2963,1.2935,1.2908,1.2908,1.28,1.2678,1.2678,1.2589,1.2501,1.2501,1.2501,1.2501,1.2501,1.2501,1.2501,1.2501,1.2501,1.2501,1.2501,1.2501,1.2501,1.2501,1.2501,1.2501,1.2501,1.2501,1.2501,1.2501,1.2501,1.2501,1.2501,1.2501,1.2501,1.2501,1.2501,1.2501,1.2501,1.2501,1.2501,1.2501,1.2501,1.2501,1.2501,1.2501,1.2501,1.2501,1.2501,1.2501,1.2501,1.2501,1.2501,1.2501,1.2501,1.2501,1.2501,1.2501,1.2501,1.2501,1.2501,1.2501,1.2501,1.3403,1.3403,1.3403,1.3403,1.3403,1.3403,1.3403,1.3403,1.3403,1.3403,1.3403,1.3403,1.3403,1.3403,1.3403,1.3403,1.3329,1.3281,1.3281,1.3214,1.3139,1.3064,1.3064,1.303,1.2963,1.2807,1.2718,1.2718,1.2718,1.2718,1.2718,1.2718,1.2718,1.2718,1.2718,1.2766,1.284,1.284,1.2888,1.2963,1.2963,1.2963,1.2963,1.2963,1.3003,1.3064,1.3064,1.3112,1.3173,1.3173,1.3173,1.3173,1.3173,1.3173,1.3173,1.3173,1.3119,1.3064,1.3064,1.2956,1.284,1.284,1.2779,1.2684,1.2535,1.2501,1.2501,1.2501,1.2501,1.2501,1.2501,1.2501,1.2501,1.2501,1.2501,1.2501,1.2501,1.2501,1.2501,1.2501,1.2501,1.2501,1.2501,1.2501,1.2501,1.2501,1.2501,1.2501,1.2501,1.2501,1.2501,1.2501,1.2501,1.2501,1.2501,1.2501,1.2501,1.2501,1.2501,1.2501,1.2501,1.2501,1.2501,1.2501,1.2501,1.2501,1.2501,1.2501,1.2501,1.2501,1.2501,1.2501,1.2501,1.2501,1.2501,1.2501,1.3403,1.3403,1.3403,1.3403,1.3403,1.3403,1.3403,1.3403,1.3403,1.3403,1.3403,1.3403,1.3403,1.3403,1.3403,1.3403,1.3403,1.3403,1.3403,1.3403,1.3342,1.3214,1.3214,1.3159,1.3037,1.3037,1.301,1.2963,1.2963,1.2963,1.2963,1.2963,1.2963,1.2963,1.2963,1.2976,1.2996,1.2996,1.301,1.3037,1.3037,1.3037,1.3037,1.3037,1.3112,1.3214,1.3214,1.3295,1.3403,1.3403,1.3403,1.3403,1.3403,1.3403,1.3403,1.3403,1.3308,1.3214,1.3214,1.3105,1.2996,1.2996,1.3056,1.2895,1.2637,1.2562,1.2535,1.2508,1.2501,1.2501,1.2501,1.2501,1.2501,1.2501,1.2501,1.2501,1.2501,1.2501,1.2501,1.2501,1.2501,1.2501,1.2501,1.2501,1.2501,1.2501,1.2501,1.2501,1.2501,1.2501,1.2501,1.2501,1.2501,1.2501,1.2501,1.2501,1.2501,1.2501,1.2501,1.2501,1.2501,1.2501,1.2501,1.2501,1.2501,1.2501,1.2501,1.2501,1.2501,1.2501,1.2501,1.2501,1.2501,1.2501,1.2501,1.2501,1.3403,1.3403,1.3403,1.3403,1.3403,1.3403,1.3403,1.3403,1.3403,1.3403,1.3403,1.3403,1.3403,1.3403,1.3403,1.3403,1.3403,1.3403,1.3403,1.3403,1.339,1.337,1.337,1.3363,1.3342,1.3342,1.3214,1.2963,1.2963,1.2963,1.2963,1.2963,1.2963,1.2963,1.2963,1.303,1.3146,1.3146,1.322,1.3342,1.3342,1.3342,1.3342,1.3342,1.3356,1.337,1.337,1.3383,1.3403,1.3403,1.3403,1.3403,1.3403,1.3403,1.3403,1.3403,1.339,1.337,1.337,1.3261,1.3146,1.3146,1.3051,1.2949,1.2908,1.2793,1.2664,1.2528,1.2501,1.2501,1.2501,1.2501,1.2501,1.2501,1.2501,1.2501,1.2501,1.2501,1.2501,1.2501,1.2501,1.2501,1.2501,1.2501,1.2501,1.2501,1.2501,1.2501,1.2501,1.2501,1.2501,1.2501,1.2501,1.2501,1.2501,1.2501,1.2501,1.2501,1.2501,1.2501,1.2501,1.2501,1.2501,1.2501,1.2501,1.2501,1.2501,1.2501,1.2501,1.2501,1.2501,1.2501,1.2501,1.2501,1.2501,1.2501,1.3403,1.3403,1.3403,1.3403,1.3403,1.3403,1.3403,1.3403,1.3403,1.3403,1.3403,1.3403,1.3403,1.3403,1.3403,1.3403,1.3403,1.3403,1.3403,1.3403,1.3403,1.3403,1.3403,1.3403,1.3403,1.3403,1.3336,1.3207,1.3207,1.3207,1.3207,1.3207,1.3207,1.3207,1.3207,1.3241,1.3302,1.3302,1.3342,1.3403,1.3403,1.3403,1.3403,1.3403,1.3403,1.3403,1.3403,1.3403,1.3403,1.3403,1.3403,1.3403,1.3403,1.3403,1.3403,1.3403,1.3403,1.3403,1.3403,1.3349,1.3302,1.3302,1.3254,1.3186,1.3098,1.3024,1.2935,1.2786,1.2691,1.263,1.263,1.2562,1.2501,1.2501,1.2501,1.2501,1.2501,1.2501,1.2501,1.2501,1.2501,1.2501,1.2501,1.2501,1.2501,1.2501,1.2501,1.2501,1.2501,1.2501,1.2501,1.2501,1.2501,1.2501,1.2501,1.2501,1.2501,1.2501,1.2501,1.2501,1.2501,1.2501,1.2501,1.2501,1.2501,1.2501,1.2501,1.2501,1.2501,1.2501,1.2501,1.2501,1.2501,1.2501,1.2501,1.2501]}]]